[[{"header":{"parameterUnit":"m.s-1","parameterCategory":1,"la1":31.0,"la2":29.5877,"lo1":-88.7671,"lo2":-86.6584,"dx":0.0162,"dy":0.0185,"nx":115,"ny":88,"refTime":"2023-02-03T18:00:00:Z","depth":0,"parameterNumber":2,"parameterNumberName":"U-component_of_WINDS"},"data":[0.0,0.0,0.0,0.0,0.0,0.0,0.0,0.0,0.0,0.0,0.0,0.0,0.0,0.0,0.0,0.0,0.0,0.0,0.0,0.0,0.0,0.0,0.0,0.0,0.0,0.0,0.0,0.0,0.0,0.0,0.0,0.0,0.0,0.0,0.0,0.0,0.0,0.0,0.0,0.0,0.0,0.0,0.0,0.0,0.0,0.0,0.0,0.0,0.0,0.0,0.0,0.0,0.0,0.0,0.0,0.0,0.0,0.0,0.0,0.0,0.0,0.0,0.0,0.0,0.0,0.0,0.0,0.0,0.0,0.0,0.0,0.0,0.0,0.0,0.0,0.0,0.0,0.0,0.0,0.0,0.0,0.0,0.0,0.0,0.0,0.0,0.0,0.0,0.0,0.0,0.0,0.0,0.0,0.0,0.0,0.0,0.0,0.0,0.0,0.0,0.0,0.0,0.0,0.0,0.0,0.0,0.0,0.0,0.0,0.0,0.0,0.0,0.0,0.0,0.0,0.0,0.0,0.0,0.0,0.0,0.0,0.0,0.0,0.0,0.0,0.0,0.0,0.0,0.0,0.0,0.0,0.0,0.0,0.0,0.0,0.0,0.0,0.0,0.0,0.0,0.0,0.0,0.0,0.0,0.0,0.0,0.0,0.0,0.0,0.0,0.0,0.0,0.0,0.0,0.0,0.0,0.0,0.0,0.0,0.0,0.0,0.0,0.0,0.0,0.0,0.0,0.0,0.0,0.0,0.0,0.0,0.0,0.0,0.0,0.0,0.0,0.0,0.0,0.0,0.0,0.0,0.0,0.0,0.0,0.0,0.0,0.0,0.0,0.0,0.0,0.0,0.0,0.0,0.0,0.0,0.0,0.0,0.0,0.0,0.0,0.0,0.0,0.0,0.0,0.0,0.0,0.0,0.0,0.0,0.0,0.0,0.0,0.0,0.0,0.0,0.0,0.0,0.0,0.0,0.0,0.0,0.0,0.0,0.0,0.0,0.0,0.0,0.0,0.0,0.0,0.0,0.0,0.0,0.0,0.0,0.0,0.0,0.0,0.0,0.0,0.0,0.0,0.0,0.0,0.0,0.0,0.0,0.0,0.0,0.0,0.0,0.0,0.0,0.0,0.0,0.0,0.0,0.0,0.0,0.0,0.0,0.0,0.0,0.0,0.0,0.0,0.0,0.0,0.0,0.0,0.0,0.0,0.0,0.0,0.0,0.0,0.0,0.0,0.0,0.0,0.0,0.0,0.0,0.0,0.0,0.0,0.0,0.0,0.0,0.0,0.0,0.0,0.0,0.0,0.0,0.0,0.0,0.0,0.0,0.0,0.0,0.0,0.0,0.0,0.0,0.0,0.0,0.0,0.0,0.0,0.0,0.0,0.0,0.0,0.0,0.0,0.0,0.0,0.0,0.0,0.0,0.0,0.0,0.0,0.0,0.0,0.0,0.0,0.0,0.0,0.0,0.0,0.0,0.0,0.0,0.0,0.0,0.0,0.0,0.0,0.0,0.0,0.0,0.0,0.0,0.0,0.0,0.0,0.0,0.0,0.0,0.0,0.0,0.0,0.0,0.0,0.0,0.0,0.0,0.0,0.0,0.0,0.0,0.0,0.0,0.0,0.0,0.0,0.0,0.0,0.0,0.0,0.0,0.0,0.0,0.0,0.0,0.0,0.0,0.0,0.0,0.0,0.0,0.0,0.0,0.0,0.0,0.0,0.0,0.0,0.0,0.0,0.0,0.0,0.0,0.0,0.0,0.0,0.0,0.0,0.0,0.0,0.0,0.0,0.0,0.0,0.0,0.0,0.0,0.0,0.0,0.0,0.0,0.0,0.0,0.0,0.0,0.0,0.0,0.0,0.0,0.0,0.0,0.0,0.0,0.0,0.0,0.0,0.0,0.0,0.0,0.0,0.0,0.0,0.0,0.0,0.0,0.0,0.0,0.0,0.0,0.0,0.0,0.0,0.0,0.0,0.0,0.0,0.0,0.0,0.0,0.0,0.0,0.0,0.0,0.0,0.0,0.0,0.0,0.0,0.0,0.0,0.0,0.0,0.0,0.0,0.0,0.0,0.0,0.0,0.0,0.0,0.0,0.0,0.0,0.0,0.0,0.0,0.0,0.0,0.0,0.0,0.0,0.0,0.0,0.0,0.0,0.0,0.0,0.0,0.0,0.0,0.0,0.0,0.0,0.0,0.0,0.0,0.0,0.0,0.0,0.0,0.0,0.0,0.0,0.0,0.0,0.0,0.0,0.0,0.0,0.0,0.0,0.0,0.0,0.0,0.0,0.0,0.0,0.0,0.0,0.0,0.0,0.0,0.0,0.0,0.0,0.0,0.0,0.0,0.0,0.0,0.0,0.0,0.0,0.0,0.0,0.0,0.0,0.0,0.0,0.0,0.0,0.0,0.0,0.0,0.0,0.0,0.0,0.0,0.0,0.0,0.0,0.0,0.0,0.0,0.0,0.0,0.0,0.0,0.0,0.0,0.0,0.0,0.0,0.0,0.0,0.0,0.0,0.0,0.0,0.0,0.0,0.0,0.0,0.0,0.0,0.0,0.0,0.0,0.0,0.0,0.0,0.0,0.0,0.0,0.0,0.0,0.0,0.0,0.0,0.0,0.0,0.0,0.0,0.0,0.0,0.0,0.0,0.0,0.0,0.0,0.0,0.0,0.0,0.0,0.0,0.0,0.0,0.0,0.0,0.0,0.0,0.0,0.0,0.0,0.0,0.0,0.0,0.0,0.0,0.0,0.0,0.0,0.0,0.0,0.0,0.0,0.0,0.0,0.0,0.0,0.0,0.0,0.0,0.0,0.0,0.0,0.0,0.0,0.0,0.0,0.0,0.0,0.0,0.0,0.0,0.0,0.0,0.0,0.0,0.0,0.0,0.0,0.0,0.0,0.0,0.0,0.0,0.0,0.0,0.0,0.0,0.0,0.0,0.0,0.0,0.0,0.0,0.0,0.0,0.0,0.0,0.0,0.0,0.0,0.0,0.0,0.0,0.0,0.0,0.0,0.0,0.0,0.0,0.0,0.0,0.0,0.0,0.0,0.0,0.0,0.0,0.0,0.0,0.0,0.0,0.0,0.0,0.0,0.0,0.0,0.0,0.0,0.0,0.0,0.0,0.0,0.0,0.0,0.0,0.0,0.0,0.0,0.0,0.0,0.0,0.0,0.0,0.0,0.0,0.0,0.0,0.0,0.0,0.0,0.0,0.0,0.0,0.0,0.0,0.0,0.0,0.0,0.0,0.0,0.0,0.0,0.0,0.0,0.0,0.0,0.0,0.0,0.0,0.0,0.0,0.0,0.0,0.0,0.0,0.0,0.0,0.0,0.0,0.0,0.0,0.0,0.0,0.0,0.0,0.0,0.0,0.0,0.0,0.0,0.0,0.0,0.0,0.0,0.0,0.0,0.0,0.0,0.0,0.0,0.0,0.0,0.0,0.0,0.0,0.0,0.0,0.0,0.0,0.0,0.0,0.0,0.0,0.0,0.0,0.0,0.0,0.0,0.0,0.0,0.0,0.0,0.0,0.0,0.0,0.0,0.0,0.0,0.0,0.0,0.0,0.0,0.0,0.0,0.0,0.0,0.0,0.0,0.0,0.0,0.0,0.0,0.0,0.0,0.0,0.0,0.0,0.0,0.0,0.0,0.0,0.0,0.0,0.0,0.0,0.0,0.0,0.0,0.0,0.0,0.0,0.0,0.0,0.0,0.0,0.0,0.0,0.0,0.0,0.0,0.0,0.0,0.0,0.0,0.0,0.0,0.0,0.0,0.0,0.0,0.0,0.0,0.0,0.0,0.0,0.0,0.0,0.0,0.0,0.0,0.0,0.0,0.0,0.0,0.0,0.0,0.0,0.0,0.0,0.0,0.0,0.0,0.0,0.0,0.0,0.0,0.0,0.0,0.0,0.0,0.0,0.0,0.0,0.0,0.0,0.0,0.0,0.0,0.0,0.0,0.0,0.0,0.0,0.0,0.0,0.0,0.0,0.0,0.0,0.0,0.0,0.0,0.0,0.0,0.0,0.0,0.0,0.0,0.0,0.0,0.0,0.0,0.0,0.0,0.0,0.0,0.0,0.0,0.0,0.0,0.0,0.0,0.0,0.0,0.0,0.0,0.0,0.0,0.0,0.0,0.0,0.0,0.0,0.0,0.0,0.0,0.0,0.0,0.0,0.0,0.0,0.0,0.0,0.0,0.0,0.0,0.0,0.0,0.0,0.0,0.0,0.0,0.0,0.0,0.0,0.0,0.0,0.0,0.0,0.0,2.2502,0.0,0.0,0.0,0.0,0.0,0.0,0.0,0.0,0.0,0.0,0.0,0.0,0.0,0.0,0.0,0.0,0.0,0.0,0.0,0.0,0.0,0.0,0.0,0.0,0.0,0.0,0.0,0.0,0.0,0.0,0.0,0.0,0.0,0.0,0.0,0.0,0.0,0.0,0.0,0.0,0.0,0.0,0.0,0.0,0.0,0.0,0.0,0.0,0.0,0.0,0.0,0.0,0.0,0.0,0.0,0.0,0.0,0.0,0.0,0.0,0.0,0.0,0.0,0.0,0.0,0.0,0.0,0.0,0.0,0.0,0.0,0.0,0.0,0.0,0.0,0.0,0.0,0.0,0.0,0.0,0.0,0.0,0.0,0.0,0.0,0.0,0.0,0.0,0.0,0.0,0.0,0.0,0.0,0.0,0.0,0.0,0.0,0.0,0.0,0.0,0.0,0.0,0.0,0.0,0.0,0.0,0.0,0.0,0.0,0.0,2.2948,2.3252,2.3674,2.3866,2.3815,0.0,0.0,0.0,0.0,0.0,0.0,0.0,0.0,0.0,0.0,0.0,0.0,0.0,0.0,0.0,0.0,0.0,0.0,0.0,0.0,0.0,0.0,0.0,0.0,0.0,0.0,0.0,0.0,0.0,0.0,0.0,0.0,0.0,0.0,0.0,0.0,0.0,0.0,0.0,0.0,0.0,0.0,0.0,0.0,0.0,0.0,0.0,0.0,0.0,0.0,0.0,0.0,0.0,0.0,0.0,0.0,0.0,0.0,0.0,0.0,0.0,0.0,0.0,0.0,0.0,0.0,0.0,0.0,0.0,0.0,0.0,0.0,0.0,0.0,0.0,0.0,0.0,0.0,0.0,0.0,0.0,0.0,0.0,0.0,0.0,0.0,0.0,0.0,0.0,0.0,0.0,0.0,0.0,0.0,0.0,0.0,0.0,0.0,0.0,0.0,0.0,0.0,0.0,0.0,0.0,0.0,0.0,0.0,0.0,0.0,0.0,0.0,2.4625,2.4926,2.4856,0.0,0.0,0.0,0.0,0.0,0.0,0.0,0.0,0.0,0.0,0.0,0.0,0.0,0.0,0.0,0.0,0.0,0.0,0.0,0.0,0.0,0.0,0.0,0.0,0.0,0.0,0.0,0.0,0.0,0.0,0.0,0.0,0.0,0.0,0.0,0.0,0.0,0.0,0.0,0.0,0.0,0.0,0.0,0.0,0.0,0.0,0.0,0.0,0.0,0.0,0.0,0.0,0.0,0.0,0.0,0.0,0.0,0.0,0.0,0.0,0.0,0.0,0.0,0.0,0.0,0.0,0.0,0.0,0.0,0.0,0.0,0.0,0.0,0.0,0.0,0.0,0.0,0.0,0.0,0.0,0.0,0.0,0.0,0.0,0.0,0.0,0.0,0.0,0.0,0.0,0.0,0.0,0.0,0.0,0.0,0.0,0.0,0.0,0.0,0.0,0.0,0.0,0.0,0.0,0.0,0.0,0.0,0.0,0.0,0.0,2.4119,2.478,2.4818,0.0,2.4738,0.0,0.0,0.0,0.0,0.0,0.0,0.0,0.0,0.0,0.0,0.0,0.0,0.0,0.0,0.0,0.0,0.0,0.0,0.0,0.0,0.0,0.0,0.0,0.0,0.0,0.0,0.0,0.0,0.0,0.0,0.0,0.0,0.0,0.0,0.0,0.0,0.0,0.0,0.0,0.0,0.0,0.0,0.0,0.0,0.0,0.0,0.0,0.0,0.0,0.0,0.0,0.0,0.0,0.0,0.0,0.0,0.0,0.0,0.0,0.0,0.0,0.0,0.0,0.0,0.0,0.0,0.0,0.0,0.0,0.0,0.0,0.0,0.0,0.0,0.0,0.0,0.0,0.0,0.0,0.0,0.0,0.0,0.0,0.0,0.0,0.0,0.0,0.0,0.0,0.0,0.0,0.0,0.0,0.0,0.0,0.0,0.0,0.0,0.0,0.0,0.0,0.0,0.0,0.0,0.0,0.0,0.0,0.0,0.0,0.0,2.4585,2.4832,2.4738,2.4642,0.0,0.0,0.0,0.0,0.0,0.0,0.0,0.0,0.0,0.0,0.0,0.0,0.0,0.0,0.0,0.0,0.0,0.0,0.0,0.0,0.0,0.0,0.0,0.0,0.0,0.0,0.0,0.0,0.0,0.0,0.0,0.0,0.0,0.0,0.0,0.0,0.0,0.0,0.0,0.0,0.0,0.0,0.0,0.0,0.0,0.0,0.0,0.0,0.0,0.0,0.0,0.0,0.0,0.0,0.0,0.0,0.0,0.0,0.0,0.0,0.0,0.0,0.0,0.0,0.0,0.0,0.0,0.0,0.0,0.0,0.0,0.0,0.0,0.0,0.0,0.0,0.0,0.0,0.0,0.0,0.0,0.0,0.0,0.0,0.0,0.0,0.0,0.0,0.0,0.0,0.0,0.0,0.0,0.0,0.0,0.0,0.0,0.0,0.0,0.0,0.0,0.0,0.0,0.0,0.0,0.0,0.0,0.0,0.0,0.0,2.4623,2.4813,2.4707,2.4631,2.4549,2.4479,0.0,0.0,0.0,0.0,0.0,0.0,0.0,0.0,0.0,0.0,0.0,0.0,0.0,0.0,0.0,0.0,0.0,0.0,0.0,0.0,0.0,0.0,0.0,0.0,0.0,0.0,0.0,0.0,0.0,0.0,0.0,0.0,0.0,0.0,0.0,0.0,0.0,0.0,0.0,0.0,0.0,0.0,0.0,0.0,0.0,0.0,0.0,0.0,0.0,0.0,0.0,0.0,0.0,0.0,0.0,0.0,0.0,0.0,0.0,0.0,0.0,0.0,0.0,0.0,0.0,0.0,0.0,0.0,0.0,0.0,0.0,0.0,0.0,0.0,0.0,0.0,0.0,0.0,0.0,0.0,0.0,0.0,0.0,0.0,0.0,0.0,0.0,0.0,0.0,0.0,0.0,0.0,0.0,0.0,0.0,0.0,0.0,0.0,0.0,0.0,0.0,0.0,0.0,0.0,0.0,0.0,0.0,0.0,2.4855,2.4832,2.4711,2.4547,2.4498,2.4465,0.0,0.0,0.0,0.0,0.0,0.0,0.0,0.0,0.0,0.0,0.0,0.0,0.0,0.0,0.0,0.0,0.0,0.0,0.0,0.0,0.0,0.0,0.0,0.0,0.0,0.0,0.0,0.0,0.0,0.0,0.0,0.0,0.0,0.0,0.0,0.0,0.0,0.0,0.0,0.0,0.0,0.0,0.0,0.0,0.0,0.0,0.0,0.0,0.0,0.0,0.0,0.0,0.0,0.0,0.0,0.0,0.0,0.0,0.0,0.0,0.0,0.0,0.0,0.0,0.0,0.0,0.0,0.0,0.0,0.0,0.0,0.0,0.0,0.0,0.0,0.0,0.0,0.0,0.0,0.0,0.0,0.0,0.0,0.0,0.0,0.0,0.0,0.0,0.0,0.0,0.0,0.0,0.0,0.0,0.0,0.0,0.0,0.0,0.0,0.0,0.0,0.0,0.0,0.0,0.0,0.0,0.0,0.0,0.0,2.4832,2.4698,2.4549,2.4446,2.4393,2.4339,0.0,0.0,0.0,0.0,0.0,0.0,0.0,0.0,0.0,0.0,0.0,0.0,0.0,0.0,0.0,0.0,0.0,0.0,0.0,0.0,0.0,0.0,0.0,0.0,0.0,0.0,0.0,0.0,0.0,0.0,0.0,0.0,0.0,0.0,0.0,0.0,0.0,0.0,0.0,0.0,0.0,0.0,0.0,0.0,0.0,0.0,0.0,0.0,0.0,0.0,0.0,0.0,0.0,0.0,0.0,0.0,0.0,0.0,0.0,0.0,0.0,0.0,0.0,0.0,0.0,0.0,0.0,0.0,0.0,0.0,0.0,0.0,0.0,0.0,0.0,0.0,0.0,0.0,0.0,0.0,0.0,0.0,0.0,0.0,0.0,0.0,0.0,0.0,0.0,0.0,0.0,0.0,0.0,0.0,0.0,0.0,0.0,0.0,0.0,0.0,0.0,0.0,0.0,0.0,0.0,0.0,0.0,0.0,0.0,2.4714,0.0,2.4447,2.4358,2.4321,2.4266,0.0,0.0,0.0,0.0,0.0,0.0,0.0,0.0,0.0,0.0,0.0,0.0,0.0,0.0,0.0,0.0,0.0,0.0,0.0,0.0,0.0,0.0,0.0,0.0,0.0,0.0,0.0,0.0,0.0,0.0,0.0,0.0,0.0,0.0,0.0,0.0,0.0,0.0,0.0,0.0,0.0,0.0,0.0,0.0,0.0,0.0,0.0,0.0,0.0,0.0,0.0,0.0,0.0,0.0,0.0,0.0,0.0,0.0,0.0,0.0,0.0,0.0,0.0,0.0,0.0,0.0,0.0,0.0,0.0,0.0,0.0,0.0,0.0,0.0,0.0,0.0,0.0,0.0,0.0,0.0,0.0,0.0,0.0,0.0,0.0,0.0,0.0,0.0,0.0,0.0,0.0,0.0,0.0,0.0,0.0,0.0,0.0,0.0,0.0,0.0,0.0,0.0,0.0,0.0,0.0,0.0,0.0,0.0,2.4698,2.4517,2.4411,2.4376,2.4303,2.4284,2.4266,0.0,0.0,0.0,0.0,0.0,0.0,0.0,0.0,0.0,0.0,0.0,0.0,0.0,0.0,0.0,0.0,0.0,0.0,0.0,0.0,0.0,0.0,0.0,0.0,0.0,0.0,0.0,0.0,0.0,0.0,0.0,0.0,0.0,0.0,0.0,0.0,0.0,0.0,0.0,0.0,0.0,0.0,0.0,0.0,0.0,0.0,0.0,0.0,0.0,0.0,0.0,0.0,0.0,0.0,0.0,0.0,0.0,0.0,0.0,0.0,0.0,0.0,0.0,0.0,0.0,0.0,0.0,0.0,0.0,0.0,0.0,0.0,0.0,0.0,0.0,0.0,0.0,0.0,0.0,0.0,0.0,0.0,0.0,0.0,0.0,0.0,0.0,0.0,0.0,0.0,0.0,0.0,0.0,0.0,0.0,0.0,0.0,0.0,0.0,0.0,0.0,0.0,0.0,0.0,0.0,0.0,0.0,0.0,0.0,2.443,2.4303,2.4266,2.4247,2.4228,2.4228,0.0,0.0,0.0,0.0,0.0,0.0,0.0,0.0,0.0,0.0,0.0,0.0,0.0,0.0,0.0,0.0,0.0,0.0,0.0,0.0,0.0,0.0,0.0,0.0,0.0,0.0,0.0,0.0,0.0,0.0,0.0,0.0,0.0,0.0,0.0,0.0,0.0,0.0,0.0,0.0,0.0,0.0,0.0,0.0,0.0,0.0,0.0,0.0,0.0,0.0,0.0,0.0,0.0,0.0,0.0,0.0,0.0,0.0,0.0,0.0,0.0,0.0,0.0,0.0,0.0,0.0,0.0,0.0,0.0,0.0,0.0,0.0,0.0,0.0,0.0,0.0,0.0,0.0,0.0,0.0,0.0,0.0,0.0,0.0,0.0,0.0,0.0,0.0,0.0,0.0,0.0,0.0,0.0,0.0,0.0,0.0,0.0,0.0,0.0,0.0,0.0,0.0,0.0,0.0,0.0,0.0,0.0,0.0,0.0,2.4247,2.421,2.4172,2.4134,2.4152,2.417,2.417,0.0,0.0,0.0,0.0,0.0,0.0,0.0,0.0,0.0,0.0,0.0,0.0,0.0,0.0,0.0,0.0,0.0,0.0,0.0,0.0,0.0,0.0,0.0,0.0,0.0,0.0,0.0,0.0,0.0,0.0,0.0,0.0,0.0,0.0,0.0,0.0,0.0,0.0,0.0,0.0,0.0,0.0,0.0,0.0,0.0,0.0,0.0,0.0,0.0,0.0,0.0,0.0,0.0,0.0,0.0,0.0,0.0,0.0,0.0,0.0,0.0,0.0,0.0,0.0,0.0,0.0,0.0,0.0,0.0,0.0,0.0,0.0,0.0,0.0,0.0,0.0,0.0,0.0,0.0,0.0,0.0,0.0,0.0,0.0,0.0,0.0,0.0,0.0,0.0,0.0,0.0,0.0,0.0,0.0,0.0,0.0,0.0,0.0,0.0,0.0,0.0,0.0,0.0,0.0,0.0,0.0,0.0,0.0,2.3996,2.4094,2.4132,2.3996,2.4054,2.4112,0.0,0.0,0.0,0.0,0.0,0.0,0.0,0.0,0.0,0.0,0.0,0.0,0.0,0.0,0.0,0.0,0.0,0.0,0.0,0.0,0.0,0.0,0.0,0.0,0.0,0.0,0.0,0.0,0.0,0.0,0.0,0.0,0.0,0.0,0.0,0.0,0.0,0.0,0.0,0.0,0.0,0.0,0.0,0.0,0.0,0.0,0.0,0.0,0.0,0.0,0.0,0.0,0.0,0.0,0.0,0.0,0.0,0.0,0.0,0.0,0.0,0.0,0.0,0.0,0.0,0.0,0.0,0.0,0.0,0.0,0.0,0.0,0.0,0.0,0.0,0.0,0.0,0.0,0.0,0.0,0.0,0.0,0.0,0.0,0.0,0.0,0.0,0.0,0.0,0.0,0.0,0.0,0.0,0.0,0.0,0.0,0.0,0.0,0.0,0.0,0.0,0.0,0.0,0.0,0.0,0.0,0.0,0.0,0.0,2.385,2.3871,2.3912,2.3917,2.3937,2.3958,0.0,0.0,0.0,0.0,0.0,0.0,0.0,0.0,0.0,0.0,0.0,0.0,0.0,0.0,0.0,0.0,0.0,0.0,0.0,0.0,0.0,0.0,0.0,0.0,0.0,0.0,0.0,0.0,0.0,0.0,0.0,0.0,0.0,0.0,0.0,0.0,0.0,0.0,0.0,0.0,0.0,0.0,0.0,0.0,0.0,0.0,0.0,0.0,0.0,0.0,0.0,0.0,0.0,0.0,0.0,0.0,0.0,0.0,0.0,0.0,0.0,0.0,0.0,0.0,0.0,0.0,0.0,0.0,0.0,0.0,0.0,0.0,0.0,0.0,0.0,0.0,0.0,0.0,0.0,0.0,0.0,0.0,0.0,0.0,0.0,0.0,0.0,0.0,0.0,0.0,0.0,0.0,0.0,0.0,0.0,0.0,0.0,0.0,0.0,0.0,0.0,0.0,0.0,0.0,0.0,0.0,0.0,0.0,2.3831,2.3674,2.3696,2.3721,2.3768,2.3834,2.3858,0.0,0.0,0.0,0.0,0.0,0.0,0.0,0.0,0.0,0.0,0.0,0.0,0.0,0.0,0.0,0.0,0.0,0.0,0.0,0.0,0.0,0.0,0.0,0.0,0.0,0.0,0.0,0.0,0.0,0.0,0.0,0.0,0.0,0.0,0.0,0.0,0.0,0.0,0.0,0.0,0.0,0.0,0.0,0.0,0.0,0.0,0.0,0.0,0.0,0.0,0.0,0.0,0.0,0.0,0.0,0.0,0.0,0.0,0.0,0.0,0.0,0.0,0.0,0.0,0.0,0.0,0.0,0.0,0.0,0.0,0.0,0.0,0.0,0.0,0.0,0.0,0.0,0.0,0.0,0.0,0.0,0.0,0.0,0.0,0.0,0.0,0.0,0.0,0.0,0.0,0.0,0.0,0.0,0.0,0.0,0.0,0.0,0.0,0.0,0.0,0.0,0.0,0.0,0.0,0.0,0.0,0.0,0.0,2.3674,2.3476,2.3539,2.3562,2.3603,2.3707,2.3774,0.0,0.0,0.0,0.0,0.0,0.0,0.0,0.0,0.0,0.0,0.0,0.0,0.0,0.0,0.0,0.0,0.0,0.0,0.0,0.0,0.0,0.0,0.0,0.0,0.0,0.0,0.0,0.0,0.0,0.0,0.0,0.0,0.0,0.0,0.0,0.0,0.0,0.0,0.0,0.0,0.0,0.0,0.0,0.0,0.0,0.0,0.0,0.0,0.0,0.0,0.0,0.0,0.0,0.0,0.0,0.0,0.0,0.0,0.0,0.0,0.0,0.0,0.0,0.0,0.0,0.0,0.0,0.0,0.0,0.0,0.0,0.0,0.0,0.0,0.0,0.0,0.0,0.0,0.0,0.0,0.0,0.0,0.0,0.0,0.0,0.0,0.0,0.0,0.0,0.0,0.0,0.0,0.0,0.0,0.0,0.0,0.0,0.0,0.0,0.0,0.0,0.0,0.0,0.0,0.0,0.0,0.0,0.0,2.3476,2.3354,2.336,2.3383,2.343,2.3585,2.3678,0.0,0.0,0.0,0.0,0.0,0.0,0.0,0.0,0.0,0.0,0.0,0.0,0.0,0.0,0.0,0.0,0.0,0.0,0.0,0.0,0.0,0.0,0.0,0.0,0.0,0.0,0.0,0.0,0.0,0.0,0.0,0.0,0.0,0.0,0.0,0.0,0.0,0.0,0.0,0.0,0.0,0.0,0.0,0.0,0.0,0.0,0.0,0.0,2.4631,0.0,0.0,0.0,0.0,0.0,0.0,0.0,0.0,0.0,0.0,0.0,0.0,0.0,0.0,0.0,0.0,0.0,0.0,0.0,0.0,0.0,0.0,0.0,0.0,0.0,0.0,0.0,0.0,0.0,0.0,0.0,0.0,0.0,0.0,0.0,0.0,0.0,0.0,0.0,0.0,0.0,0.0,0.0,0.0,0.0,0.0,0.0,0.0,0.0,0.0,0.0,0.0,0.0,0.0,0.0,0.0,0.0,0.0,0.0,2.336,2.3265,2.3289,2.3313,2.336,2.3407,2.3539,0.0,0.0,0.0,0.0,0.0,0.0,0.0,0.0,0.0,0.0,0.0,0.0,0.0,0.0,0.0,0.0,0.0,0.0,0.0,0.0,0.0,0.0,0.0,0.0,0.0,0.0,0.0,0.0,0.0,0.0,0.0,0.0,0.0,0.0,0.0,0.0,0.0,0.0,0.0,0.0,0.0,0.0,0.0,0.0,0.0,0.0,0.0,0.0,0.0,0.0,0.0,0.0,0.0,0.0,0.0,0.0,0.0,0.0,0.0,0.0,0.0,0.0,0.0,0.0,0.0,0.0,0.0,0.0,0.0,0.0,0.0,0.0,0.0,0.0,0.0,0.0,0.0,0.0,0.0,0.0,0.0,0.0,0.0,0.0,0.0,0.0,0.0,0.0,0.0,0.0,0.0,0.0,0.0,0.0,0.0,0.0,0.0,0.0,0.0,0.0,0.0,0.0,0.0,0.0,0.0,0.0,0.0,2.3289,2.3241,2.3168,2.3217,2.3265,2.3265,2.3289,2.336,2.3539,0.0,0.0,0.0,0.0,0.0,0.0,0.0,0.0,0.0,0.0,0.0,0.0,0.0,0.0,0.0,0.0,0.0,0.0,0.0,0.0,0.0,0.0,0.0,0.0,0.0,0.0,0.0,0.0,0.0,0.0,0.0,0.0,0.0,0.0,0.0,0.0,0.0,0.0,2.4559,2.5257,0.0,0.0,0.0,0.0,0.0,0.0,0.0,0.0,2.4888,0.0,0.0,0.0,0.0,0.0,0.0,0.0,0.0,0.0,0.0,0.0,0.0,0.0,0.0,0.0,0.0,0.0,0.0,0.0,0.0,0.0,0.0,0.0,0.0,0.0,0.0,0.0,0.0,0.0,0.0,0.0,0.0,0.0,0.0,0.0,0.0,0.0,0.0,0.0,0.0,0.0,0.0,0.0,0.0,0.0,0.0,0.0,0.0,0.0,0.0,0.0,0.0,0.0,0.0,0.0,0.0,2.3168,2.3144,2.307,2.2952,2.3003,2.307,2.3126,2.3193,2.3265,2.336,0.0,0.0,0.0,0.0,0.0,0.0,0.0,0.0,0.0,0.0,0.0,0.0,0.0,0.0,0.0,0.0,0.0,0.0,0.0,0.0,0.0,0.0,0.0,0.0,0.0,0.0,0.0,0.0,0.0,0.0,0.0,0.0,0.0,0.0,0.0,0.0,0.0,0.0,0.0,2.7068,2.7648,0.0,0.0,0.0,0.0,0.0,0.0,0.0,0.0,2.5627,0.0,0.0,0.0,0.0,0.0,0.0,0.0,0.0,0.0,0.0,0.0,0.0,0.0,0.0,0.0,0.0,0.0,0.0,0.0,0.0,0.0,0.0,0.0,0.0,0.0,0.0,0.0,0.0,0.0,0.0,0.0,0.0,0.0,0.0,0.0,0.0,0.0,0.0,0.0,0.0,0.0,0.0,0.0,0.0,0.0,0.0,0.0,0.0,0.0,0.0,0.0,0.0,0.0,0.0,0.0,2.307,2.3003,2.2952,2.2902,2.2944,2.2995,2.3045,2.3077,2.3144,0.0,0.0,0.0,0.0,0.0,0.0,0.0,0.0,0.0,0.0,0.0,0.0,0.0,0.0,0.0,0.0,0.0,0.0,0.0,0.0,0.0,0.0,0.0,0.0,0.0,0.0,0.0,0.0,0.0,0.0,0.0,0.0,0.0,0.0,0.0,0.0,0.0,0.0,0.0,0.0,2.757,2.8202,2.7979,0.0,0.0,0.0,0.0,0.0,0.0,2.7184,2.677,0.0,0.0,0.0,0.0,0.0,0.0,0.0,0.0,0.0,0.0,0.0,0.0,0.0,0.0,0.0,0.0,0.0,0.0,0.0,0.0,0.0,0.0,0.0,0.0,0.0,0.0,0.0,0.0,0.0,0.0,0.0,0.0,0.0,0.0,0.0,0.0,0.0,0.0,0.0,0.0,0.0,0.0,0.0,0.0,0.0,0.0,0.0,0.0,0.0,0.0,0.0,0.0,0.0,0.0,0.0,2.2952,2.2902,2.2868,2.285,2.285,2.2902,2.2977,2.2977,2.3052,0.0,0.0,0.0,0.0,0.0,0.0,0.0,0.0,0.0,0.0,0.0,0.0,0.0,0.0,0.0,0.0,0.0,0.0,0.0,0.0,0.0,0.0,0.0,0.0,0.0,0.0,0.0,0.0,0.0,0.0,0.0,0.0,0.0,0.0,0.0,0.0,0.0,0.0,0.0,0.0,0.0,2.8373,2.8686,2.8854,0.0,0.0,0.0,0.0,2.8256,2.7947,0.0,0.0,0.0,0.0,0.0,0.0,0.0,0.0,0.0,0.0,0.0,0.0,0.0,0.0,0.0,0.0,0.0,0.0,0.0,0.0,0.0,0.0,0.0,0.0,0.0,0.0,0.0,0.0,0.0,0.0,0.0,0.0,0.0,0.0,0.0,0.0,0.0,0.0,0.0,0.0,0.0,0.0,0.0,0.0,0.0,0.0,0.0,0.0,0.0,0.0,0.0,0.0,0.0,0.0,0.0,0.0,2.2842,2.2799,2.279,2.2755,2.279,2.2825,2.2902,2.2952,2.3045,0.0,0.0,0.0,0.0,0.0,0.0,0.0,0.0,0.0,0.0,0.0,0.0,0.0,0.0,0.0,0.0,0.0,0.0,0.0,0.0,0.0,0.0,0.0,0.0,0.0,0.0,0.0,0.0,0.0,0.0,0.0,0.0,0.0,0.0,0.0,0.0,0.0,0.0,0.0,0.0,0.0,2.8677,2.8581,2.9098,2.9243,0.0,0.0,2.8043,2.7939,2.7721,0.0,0.0,0.0,0.0,0.0,0.0,0.0,0.0,0.0,0.0,0.0,0.0,0.0,0.0,0.0,0.0,0.0,0.0,0.0,0.0,0.0,0.0,0.0,0.0,0.0,0.0,0.0,0.0,0.0,0.0,0.0,0.0,0.0,0.0,0.0,0.0,0.0,0.0,0.0,0.0,0.0,0.0,0.0,0.0,0.0,0.0,0.0,0.0,0.0,0.0,0.0,0.0,0.0,0.0,0.0,2.279,2.2685,2.2712,2.2755,2.2712,2.2738,2.279,2.2876,2.2893,2.297,0.0,0.0,0.0,0.0,0.0,0.0,0.0,0.0,0.0,0.0,0.0,0.0,0.0,0.0,0.0,0.0,0.0,0.0,0.0,0.0,0.0,0.0,0.0,0.0,0.0,0.0,0.0,0.0,0.0,0.0,0.0,0.0,0.0,0.0,0.0,0.0,0.0,0.0,0.0,0.0,0.0,0.0,2.9499,2.9904,0.0,0.0,0.0,2.9319,2.9589,0.0,0.0,0.0,0.0,0.0,0.0,0.0,0.0,0.0,0.0,0.0,0.0,0.0,0.0,0.0,0.0,0.0,0.0,0.0,0.0,0.0,0.0,0.0,0.0,0.0,0.0,0.0,0.0,0.0,0.0,0.0,0.0,0.0,0.0,0.0,0.0,0.0,0.0,0.0,0.0,0.0,0.0,0.0,0.0,0.0,0.0,0.0,0.0,0.0,0.0,0.0,0.0,0.0,0.0,0.0,0.0,0.0,2.2596,2.2649,2.2685,2.2685,2.2703,2.2764,2.2868,2.2842,0.0,0.0,0.0,0.0,0.0,0.0,0.0,0.0,0.0,0.0,0.0,0.0,0.0,0.0,0.0,0.0,0.0,0.0,0.0,0.0,0.0,0.0,0.0,0.0,0.0,0.0,0.0,2.2684,0.0,0.0,0.0,0.0,0.0,0.0,0.0,0.0,0.0,0.0,0.0,0.0,0.0,0.0,2.8735,3.0161,3.0401,3.0582,0.0,0.0,3.0212,3.0526,2.9945,2.8933,0.0,0.0,0.0,0.0,0.0,0.0,0.0,0.0,0.0,0.0,0.0,0.0,0.0,0.0,0.0,0.0,0.0,0.0,0.0,0.0,0.0,0.0,0.0,0.0,0.0,0.0,0.0,0.0,0.0,0.0,0.0,0.0,0.0,0.0,0.0,0.0,0.0,0.0,0.0,0.0,0.0,0.0,0.0,0.0,0.0,0.0,0.0,0.0,0.0,0.0,0.0,0.0,0.0,0.0,0.0,2.2497,2.2552,2.2605,2.2605,2.2659,2.2738,2.2816,2.279,2.2868,0.0,0.0,0.0,0.0,0.0,0.0,0.0,0.0,0.0,0.0,0.0,0.0,0.0,0.0,0.0,0.0,0.0,0.0,0.0,0.0,0.0,0.0,0.0,0.0,0.0,0.0,0.0,0.0,0.0,0.0,0.0,0.0,0.0,0.0,0.0,0.0,0.0,0.0,0.0,0.0,0.0,2.8534,2.9992,3.0248,3.0248,0.0,0.0,2.9826,2.9806,2.955,2.8799,2.7363,0.0,0.0,0.0,0.0,0.0,0.0,0.0,0.0,0.0,0.0,0.0,0.0,0.0,0.0,0.0,0.0,0.0,0.0,0.0,0.0,0.0,0.0,0.0,0.0,0.0,0.0,0.0,0.0,0.0,0.0,0.0,0.0,0.0,0.0,0.0,0.0,0.0,0.0,0.0,0.0,0.0,0.0,0.0,0.0,0.0,0.0,0.0,0.0,0.0,0.0,0.0,0.0,0.0,2.2231,2.2377,2.2432,2.2515,2.2542,2.2569,2.2649,2.2738,2.2703,2.279,0.0,0.0,0.0,0.0,0.0,0.0,0.0,0.0,0.0,0.0,0.0,0.0,0.0,0.0,0.0,0.0,0.0,0.0,0.0,0.0,0.0,0.0,0.0,0.0,0.0,0.0,0.0,0.0,2.3441,2.336,2.3219,0.0,0.0,0.0,0.0,0.0,0.0,0.0,0.0,0.0,0.0,2.8893,2.9913,3.006,0.0,0.0,3.0134,2.9826,3.0078,2.9621,2.8926,2.7901,2.7715,0.0,0.0,0.0,0.0,0.0,0.0,0.0,0.0,0.0,0.0,0.0,0.0,0.0,0.0,0.0,0.0,0.0,0.0,0.0,0.0,0.0,0.0,0.0,0.0,0.0,0.0,0.0,0.0,0.0,0.0,0.0,0.0,0.0,0.0,0.0,0.0,0.0,0.0,0.0,0.0,0.0,0.0,0.0,0.0,0.0,0.0,0.0,0.0,0.0,0.0,0.0,0.0,2.2003,2.2152,2.2265,2.2377,2.2432,2.246,2.2542,2.2676,2.2605,2.2712,0.0,0.0,0.0,0.0,0.0,0.0,0.0,0.0,0.0,0.0,0.0,0.0,0.0,0.0,0.0,0.0,0.0,0.0,0.0,0.0,0.0,0.0,0.0,0.0,0.0,0.0,0.0,0.0,2.4017,2.3918,2.3685,0.0,0.0,0.0,0.0,0.0,0.0,0.0,0.0,0.0,0.0,2.8947,2.9761,2.9858,2.9992,3.0403,2.9958,2.9707,3.0003,2.9623,2.8976,2.8205,0.0,0.0,0.0,0.0,0.0,0.0,0.0,0.0,0.0,0.0,0.0,0.0,0.0,0.0,0.0,0.0,0.0,0.0,0.0,0.0,0.0,0.0,0.0,0.0,0.0,0.0,0.0,0.0,0.0,0.0,2.0395,0.0,0.0,0.0,0.0,0.0,0.0,0.0,0.0,0.0,0.0,0.0,0.0,0.0,0.0,0.0,0.0,0.0,0.0,0.0,0.0,0.0,0.0,2.1754,2.1827,2.2111,2.2254,2.2293,2.2366,2.246,2.2579,2.2623,2.2685,2.2919,0.0,0.0,0.0,0.0,0.0,0.0,0.0,0.0,0.0,0.0,0.0,0.0,0.0,0.0,0.0,0.0,0.0,0.0,0.0,0.0,0.0,0.0,0.0,0.0,0.0,0.0,2.3859,2.3756,2.3684,0.0,0.0,0.0,0.0,0.0,0.0,0.0,0.0,0.0,0.0,2.8414,2.8686,2.9406,2.9518,2.9534,2.955,2.9428,2.9321,2.9337,2.9183,2.8884,0.0,0.0,0.0,0.0,0.0,0.0,0.0,0.0,0.0,0.0,0.0,0.0,0.0,0.0,0.0,0.0,0.0,0.0,0.0,0.0,0.0,0.0,0.0,0.0,0.0,0.0,0.0,2.0157,1.9918,0.0,0.0,0.0,0.0,0.0,0.0,0.0,0.0,0.0,0.0,0.0,2.0166,2.0085,0.0,0.0,0.0,0.0,0.0,0.0,0.0,0.0,0.0,0.0,0.0,0.0,2.2214,2.2356,2.2557,2.2458,2.2135,2.2225,2.2366,2.2525,2.2525,2.2926,2.3746,0.0,0.0,0.0,0.0,0.0,0.0,0.0,0.0,0.0,0.0,0.0,0.0,0.0,0.0,0.0,0.0,0.0,0.0,0.0,0.0,0.0,0.0,0.0,0.0,0.0,2.4704,0.0,0.0,0.0,0.0,0.0,0.0,0.0,0.0,0.0,0.0,0.0,2.7774,2.8268,2.8713,2.9125,2.9441,2.9412,2.9366,0.0,0.0,0.0,0.0,0.0,0.0,0.0,0.0,0.0,0.0,0.0,0.0,0.0,0.0,2.9939,2.7829,2.7592,2.7508,2.6873,0.0,0.0,0.0,0.0,0.0,0.0,0.0,0.0,0.0,0.0,0.0,0.0,0.0,0.0,2.0147,0.0,1.9867,0.0,0.0,0.0,0.0,0.0,0.0,0.0,0.0,1.9551,1.9603,1.9654,1.9588,1.9639,0.0,1.9654,1.9869,0.0,0.0,0.0,0.0,0.0,0.0,0.0,0.0,2.2733,2.2866,2.3112,2.2938,2.2391,2.2463,2.2507,2.2504,2.2809,2.348,2.4523,2.4786,2.5176,0.0,0.0,0.0,0.0,0.0,0.0,0.0,0.0,0.0,0.0,0.0,0.0,0.0,0.0,0.0,0.0,0.0,0.0,0.0,0.0,0.0,0.0,0.0,2.5301,0.0,0.0,0.0,0.0,0.0,0.0,0.0,0.0,0.0,2.6878,2.7597,2.8262,2.8532,2.8928,2.9259,2.9366,0.0,0.0,0.0,0.0,0.0,0.0,0.0,2.9801,2.9801,2.9801,2.9753,2.9721,3.0469,3.1357,3.2181,0.0,0.0,2.884,2.8239,2.7892,2.7438,2.6788,2.6463,2.695,2.6914,2.6878,0.0,0.0,0.0,0.0,0.0,0.0,0.0,0.0,1.9655,1.9965,0.0,1.9656,0.0,0.0,0.0,0.0,0.0,1.9064,0.0,0.0,1.9064,1.9087,1.9087,1.9087,1.9139,1.925,1.9288,1.9465,1.972,2.0005,0.0,0.0,0.0,0.0,0.0,0.0,2.3183,2.3323,2.3667,2.3588,2.3052,2.3109,2.2967,2.2624,2.346,2.4361,2.5292,2.5535,2.5693,2.5864,2.5975,0.0,0.0,0.0,0.0,0.0,0.0,0.0,0.0,0.0,0.0,0.0,0.0,0.0,0.0,0.0,0.0,0.0,0.0,0.0,0.0,2.5415,0.0,0.0,0.0,0.0,0.0,0.0,0.0,0.0,0.0,0.0,2.8158,2.8173,2.841,2.9028,0.0,0.0,0.0,0.0,2.9437,3.0117,3.0212,3.0449,3.1081,3.1191,3.1142,3.1176,0.0,0.0,3.0803,3.082,3.0824,3.0675,3.0758,3.0685,3.0876,2.9748,2.8685,2.7953,2.7083,2.652,2.6945,2.7604,2.7751,1.5634,0.0,0.0,0.0,0.0,1.8081,1.8854,1.9278,2.0136,2.0462,2.0334,1.9823,0.0,0.0,0.0,0.0,0.0,0.0,1.8659,1.8659,1.8673,1.8659,1.8659,1.8659,1.8774,1.895,1.895,1.9319,2.0038,2.0243,2.0467,2.0843,0.0,0.0,0.0,0.0,2.3861,2.3955,2.4314,2.4196,2.3572,2.3764,2.3947,2.4057,2.4511,2.5166,2.6074,2.6234,2.6647,2.7343,2.7378,0.0,0.0,0.0,0.0,0.0,0.0,0.0,0.0,0.0,0.0,0.0,0.0,0.0,0.0,0.0,0.0,0.0,0.0,0.0,2.5484,2.5545,2.5616,0.0,0.0,0.0,0.0,0.0,0.0,0.0,0.0,0.0,2.9516,2.958,2.9659,0.0,0.0,3.0607,3.0622,3.0622,3.0701,3.0891,3.0923,0.0,0.0,3.1108,3.1074,3.1074,3.0873,3.0825,3.1164,3.125,3.1366,3.1643,3.1213,3.0823,3.0723,3.0293,2.9816,2.9554,2.9169,2.9033,2.9412,2.9532,2.9406,1.5196,1.5716,1.635,1.6719,1.6983,1.831,1.9069,1.9397,2.028,2.0598,2.0576,1.9876,1.9456,1.9205,1.844,0.0,0.0,0.0,1.8361,1.8386,1.84,1.8361,1.84,1.8386,1.859,1.8945,1.9013,1.9484,2.0382,2.0834,2.1193,2.1509,0.0,0.0,2.3823,2.4461,2.4839,2.4978,2.5319,2.5108,2.4247,2.4296,2.4596,2.5162,2.5377,2.5888,2.6782,2.6935,2.7291,2.794,2.794,2.794,0.0,0.0,0.0,0.0,0.0,0.0,0.0,0.0,0.0,0.0,0.0,2.6417,0.0,0.0,0.0,0.0,2.5917,2.577,2.5589,2.5805,0.0,0.0,0.0,0.0,0.0,0.0,0.0,2.8805,2.9279,2.9801,3.0496,3.0877,3.0907,3.0638,3.0939,3.1207,3.1207,0.0,3.1318,3.1586,3.1584,3.1612,3.1895,3.1773,3.1566,3.1424,3.125,3.1213,3.1393,3.143,3.1511,3.1687,3.1392,3.1024,3.0884,3.0764,3.0431,3.0069,3.009,3.0232,3.033,3.0173,2.9984,1.4951,1.573,1.6616,1.7179,1.7579,1.8548,1.9198,1.9604,2.0118,2.0523,2.0716,1.994,1.9494,1.9377,1.8453,0.0,1.8232,1.8273,1.8274,1.83,1.8314,1.8314,1.8314,1.83,1.8617,1.9253,1.9363,1.9893,2.0684,2.1556,2.209,2.2376,2.2851,2.3514,2.4379,2.5269,2.5847,2.61,2.6358,2.6005,2.5022,2.4777,2.5079,2.5948,2.6059,2.6523,2.743,2.7557,2.7665,2.7859,2.7806,2.773,2.7672,0.0,0.0,0.0,0.0,0.0,0.0,0.0,0.0,0.0,0.0,0.0,0.0,0.0,0.0,0.0,2.5749,0.0,2.5474,2.6069,0.0,0.0,0.0,2.7657,2.8116,2.817,2.8663,2.9959,0.0,0.0,3.1,3.1744,3.1934,3.1252,3.1252,3.1381,3.1381,3.1394,3.1618,3.2266,3.2175,3.2259,3.2667,3.2453,3.1967,3.1627,3.1773,3.1509,3.1267,3.1168,3.1185,3.104,3.1056,3.1041,3.1028,3.0807,3.0557,2.964,3.0066,3.0495,3.0061,2.9889,2.9797,1.4893,1.5536,1.6332,1.6899,1.7357,1.829,1.8934,1.9344,1.9875,2.0283,2.0607,2.0226,1.9656,1.8967,1.8598,1.8463,1.8532,1.8906,1.9064,1.9051,1.9064,1.9094,1.9182,1.9195,1.9337,1.9633,1.9791,2.0312,2.1121,2.1599,2.2222,2.2922,2.3385,2.4073,2.4928,2.4874,2.5227,2.61,2.5814,2.5761,2.5976,2.605,2.6302,2.6734,2.6813,2.7026,2.7407,2.7438,2.7483,2.7587,2.7526,2.7496,2.7465,2.7117,0.0,0.0,0.0,0.0,0.0,0.0,0.0,0.0,0.0,2.6203,2.622,0.0,2.5974,0.0,2.553,2.5557,2.6046,2.6238,0.0,0.0,2.7673,2.8065,2.818,2.8598,2.9011,2.9327,2.9769,3.0115,3.0272,3.0786,3.1095,3.0939,3.197,3.2803,3.2803,3.2714,3.2725,3.2819,3.2576,3.2353,3.2011,3.1235,3.0517,3.0068,2.9918,2.9792,2.9554,2.9442,2.9315,2.9173,2.9173,2.926,2.9493,2.916,2.903,2.9172,3.0243,3.1016,3.0376,3.0273,3.0042,1.4883,1.5468,1.6171,1.674,1.7245,1.8127,1.8721,1.9133,1.9668,2.0118,2.0434,2.0276,1.9825,1.9198,1.9084,1.8997,1.9024,1.9199,1.9288,1.9301,1.9391,1.9436,1.9481,1.9584,1.9764,2.013,2.0264,2.0716,2.1499,2.1906,2.2392,2.3038,2.3703,2.4551,2.5513,2.5161,2.5326,2.6059,2.6108,2.6449,2.7155,2.7069,2.7164,2.7419,2.7211,2.7152,2.731,2.7376,2.739,2.7483,2.7341,2.7247,2.7233,2.6925,2.6657,0.0,0.0,0.0,0.0,0.0,0.0,0.0,0.0,0.0,0.0,0.0,2.5884,2.5889,2.5648,2.5774,2.6471,2.6836,2.7184,2.7581,2.817,2.8491,2.8462,2.8778,2.9077,2.9375,2.964,2.9951,3.0248,3.0441,3.0623,3.0639,3.141,3.205,3.2154,3.2034,3.1998,3.1998,3.1719,3.1344,3.0853,3.0167,2.9604,2.9182,2.9016,2.889,2.8652,2.8524,2.8468,2.8369,2.8369,2.8426,2.857,2.8441,2.8111,2.7868,2.8728,2.9551,2.9589,2.9491,2.9245,1.4883,1.5526,1.6124,1.674,1.7357,1.8096,1.8625,1.904,1.9552,2.0003,2.0295,2.0215,2.004,1.9822,1.9647,1.9588,1.9602,1.9533,1.9527,1.9527,1.9651,1.9696,1.9709,1.9859,2.0129,2.059,2.0776,2.1142,2.1793,2.2231,2.2629,2.3049,2.3891,2.488,2.5956,2.5733,2.5784,2.6135,2.6821,2.7504,2.8274,2.7898,2.7835,2.81,2.7487,2.7192,2.7336,2.733,2.7359,2.7373,2.7184,2.7038,2.6957,2.6708,2.6521,0.0,2.633,0.0,0.0,0.0,0.0,0.0,0.0,0.0,0.0,2.5819,2.5857,2.6122,2.5979,2.6135,2.6823,2.7449,2.7872,2.7981,2.8482,2.8842,2.8747,2.8763,2.8965,2.9541,2.9506,2.9639,3.0088,3.0156,3.0053,2.994,2.9955,3.012,3.0339,3.0525,3.068,3.0505,3.0201,2.9864,2.9499,2.9178,2.8857,2.8502,2.8277,2.8266,2.7925,2.784,2.7869,2.7869,2.7812,2.784,2.7897,2.7883,2.7414,2.6313,2.6848,2.7641,2.8307,2.8181,2.7998,1.5245,1.5874,1.6457,1.7032,1.7656,1.8205,1.8625,1.904,1.954,2.0207,2.0782,2.0385,2.0254,2.0332,2.0267,2.022,2.0247,2.0561,2.0664,2.0664,2.0713,2.0748,2.0845,2.0906,2.1008,2.1247,2.1485,2.1649,2.1793,2.2324,2.2951,2.3688,2.4158,2.491,2.5925,0.0,0.0,0.0,2.7599,2.8075,2.8307,2.8473,2.8665,2.8846,2.8202,0.0,2.7962,2.7461,2.7135,2.7166,2.704,0.0,0.0,0.0,0.0,0.0,0.0,0.0,0.0,0.0,0.0,0.0,2.6727,2.639,2.5819,2.5821,2.604,2.6451,2.6311,2.65,2.7118,2.735,2.7659,2.823,2.8415,2.8493,2.846,2.8508,2.857,2.8614,2.8532,2.8465,2.8503,2.8354,2.8283,2.8228,2.8152,2.8137,2.8233,2.9367,3.0179,3.0075,2.9335,2.8666,2.8361,2.7788,2.7351,2.6938,2.6723,2.6603,2.6617,2.6452,2.6383,2.6397,2.6341,2.6383,2.6383,2.6341,2.6328,2.5952,2.6063,2.6454,2.7367,2.7167,2.6877,1.6256,0.0,1.7381,1.7908,0.0,1.8896,1.9392,1.9799,1.9735,2.0118,2.0809,2.0678,2.0689,2.0833,2.0798,2.0812,2.0825,2.0962,2.0997,2.0983,2.1095,2.1131,2.1229,2.1277,2.1313,2.141,2.1616,2.1746,2.1902,2.2682,2.3371,2.3999,2.4991,2.5843,2.6611,2.7395,2.7784,2.7742,2.8331,2.8933,2.9447,2.9343,2.9349,2.959,2.8897,0.0,0.0,0.0,0.0,0.0,0.0,0.0,0.0,0.0,0.0,2.6241,2.6203,2.6369,2.67,2.666,2.69,2.7498,2.721,2.6808,2.6359,2.6251,2.638,2.6779,2.6688,2.6792,2.7382,2.7458,2.7595,2.7944,2.7989,2.7989,2.7989,2.7989,2.7974,2.7989,2.7875,2.779,2.7725,2.759,2.7488,2.7437,2.7423,2.7423,2.7482,2.818,2.8785,2.8696,2.8196,2.7645,2.7404,2.7026,2.6592,2.6365,2.615,2.6096,2.6028,2.5948,2.5893,2.5893,2.5893,2.5893,2.5893,2.5893,2.5893,2.5893,2.5893,2.6032,2.6536,2.6436,2.6349,1.7213,1.7647,1.8323,1.8797,1.9168,1.9725,2.0297,2.0742,0.0,0.0,0.0,2.1252,2.1336,2.139,2.139,2.1323,2.1229,2.1144,2.1082,2.1095,2.118,2.1215,2.1229,2.1326,2.1423,2.1423,2.1554,2.1862,2.2225,2.3098,2.3865,2.4517,2.5872,2.6889,2.7518,2.8699,2.9109,2.8828,2.9121,2.9807,3.0658,3.0195,3.0068,3.0294,2.9641,2.8982,2.8405,2.8305,2.7862,2.6945,2.6809,2.6655,2.6312,2.6222,2.627,2.6402,2.6402,2.6717,2.745,2.7349,2.7547,2.8037,2.7688,2.7379,2.7154,2.6787,2.675,2.7159,2.701,2.7105,2.7479,2.7524,2.7524,2.7509,2.7524,2.7524,2.7524,2.7509,2.7524,2.7524,2.7437,2.735,2.735,2.7233,2.7181,2.713,2.713,2.713,2.7144,2.7307,2.7484,2.7395,2.721,2.6913,2.6779,2.6553,2.6365,2.615,2.6111,2.6002,2.5948,2.5893,2.5893,2.5881,2.5853,2.5853,2.5881,2.5867,2.5839,2.5839,2.5839,2.5839,2.5839,2.5907,2.6085,1.7357,1.8129,1.8676,1.9157,1.9561,2.0111,2.0689,2.1356,2.1513,2.1897,2.2525,2.2525,2.2375,2.2133,2.2133,2.1848,2.1375,2.1375,2.1326,2.1313,2.1375,2.1375,2.1375,2.1375,2.1458,2.1554,2.1698,2.2227,2.3019,2.3483,2.438,2.5663,2.6302,2.7213,2.8451,2.9012,2.9467,2.9783,3.0084,3.0385,3.0692,3.0794,3.0903,3.1004,3.0328,2.9926,2.9884,2.9272,2.8574,2.7706,2.7584,2.7175,2.638,2.6272,2.6485,2.7065,2.7168,2.7483,2.8174,2.813,2.8127,2.8324,2.8519,2.8386,2.767,2.7257,2.7157,2.7485,2.7375,2.7282,2.7284,2.7269,2.7269,2.7284,2.7284,2.7284,2.7269,2.7233,2.7233,2.7284,2.7218,2.7196,2.7107,2.7055,2.7003,2.6884,2.6884,2.6884,2.6884,2.6937,2.7055,2.7003,2.675,2.6578,2.651,2.6312,2.6165,2.6111,2.6002,2.5948,2.5893,2.5893,2.5853,2.573,2.573,2.5785,2.5827,2.5675,2.5605,2.5536,2.5536,2.555,2.5605,2.5605,2.5702,1.832,1.8916,1.9665,2.0273,2.0618,2.1428,2.2092,2.2674,2.2961,2.2893,2.2603,2.2791,2.2855,2.269,2.2755,2.2671,2.2363,2.2349,2.2349,2.2349,2.2336,2.2363,2.24,2.2501,2.2551,2.2652,2.2915,2.335,2.3907,2.4601,2.5409,2.6229,2.7142,2.8025,2.8858,2.9275,2.9621,3.0103,3.0231,3.0443,3.079,3.0912,3.1015,3.119,3.0852,3.0535,3.0129,2.9807,2.9228,2.8323,2.8269,2.7992,2.747,2.7417,2.7528,2.7881,2.7914,2.8229,2.8903,2.9075,2.9085,2.8885,2.8824,2.856,2.8029,2.7664,2.7459,2.7509,2.7299,2.7159,2.6974,2.6989,2.6989,2.6989,2.6989,2.6989,2.6989,2.6989,2.6989,2.6974,2.6989,2.6989,2.6884,2.6899,2.6899,2.6794,2.6794,2.6794,2.6779,2.6765,2.6779,2.6823,2.6674,2.6404,2.6215,2.6136,2.6056,2.6002,2.5948,2.5893,2.5893,2.5853,2.5785,2.5744,2.5647,2.5619,2.5647,2.5605,2.5425,2.5273,2.5397,2.5494,2.5508,2.5508,2.5605,1.9133,1.964,2.0624,2.1273,2.1776,2.2641,2.3271,2.3747,2.4041,2.3717,2.3039,2.3285,2.3366,2.3245,2.3378,2.331,2.3202,2.3189,2.3175,2.3189,2.3189,2.3241,2.3294,2.345,2.3554,2.3644,2.4016,2.439,2.4826,2.566,2.6317,2.6841,2.7878,2.8668,2.9075,2.9366,2.9742,3.0162,3.0248,3.0443,3.0871,3.0912,3.1032,3.119,3.119,3.092,3.0395,3.0306,2.9875,2.9034,2.8929,2.8748,2.8428,2.8428,2.8478,2.8588,2.8622,2.888,2.9534,2.9819,2.9738,2.9305,2.8873,2.851,2.8122,2.784,2.759,2.7401,2.7144,2.6951,2.6832,2.6794,2.6837,2.6953,2.6997,2.7113,2.7186,2.7099,2.6997,2.6997,2.6881,2.6794,2.6794,2.6794,2.6794,2.6794,2.6794,2.6779,2.6712,2.6592,2.6553,2.6597,2.6515,2.6297,2.5986,2.6115,2.6214,2.6104,2.6273,2.6425,2.6369,2.6202,2.5981,2.5911,2.5715,2.559,2.5438,2.5383,2.5272,2.5092,2.5189,2.5369,2.5383,2.5383,2.5439,1.926,2.0076,2.0991,2.1901,2.2775,2.321,2.3628,2.4054,2.439,2.4567,2.4506,2.4617,2.4336,2.4028,2.4042,2.3717,2.327,2.3202,2.3229,2.3243,2.3189,2.3294,2.3519,2.353,2.3709,2.4044,2.4275,2.4891,2.5691,2.6079,2.6753,2.7788,2.8365,2.881,2.9122,2.9414,2.9758,3.0205,3.0333,3.0526,3.0871,3.0935,3.1055,3.119,3.119,3.1173,3.1055,3.0971,3.0538,2.9766,2.9588,2.921,2.8544,2.8445,2.8671,2.9251,2.9317,2.9567,3.0035,2.9951,2.9649,2.9167,2.8811,2.8365,2.789,2.759,2.7401,2.7277,2.7122,2.6951,2.6846,2.6823,2.707,2.7592,2.765,2.7868,2.8245,2.7984,2.765,2.7581,2.7229,2.6794,2.6924,2.6924,2.6881,2.6982,2.705,2.6968,2.6794,2.6726,2.6605,2.6415,2.6221,2.6153,2.6059,2.6398,2.6652,2.6764,2.72,2.7343,2.7201,2.7116,2.7106,2.626,2.6057,2.583,2.5306,2.5075,2.5157,2.5279,2.5238,2.5089,2.5075,2.5075,2.5188,1.9508,2.0201,2.1348,2.2372,2.3318,2.37,2.4041,2.4363,2.462,2.4778,2.4948,2.5005,2.4869,2.4652,2.4639,2.4503,2.4286,2.4286,2.4341,2.4395,2.4395,2.4504,2.4681,2.4829,2.5029,2.5307,2.5635,2.606,2.663,2.7357,2.8092,2.8847,2.9465,3.0014,3.045,3.064,3.0967,3.1483,3.1232,3.1257,3.1474,3.1153,3.1055,3.119,3.119,3.119,3.119,3.1055,3.0841,3.0453,3.0339,3.0068,2.9648,2.9648,2.9764,3.0029,3.0038,3.0046,3.0156,2.993,2.956,2.9137,2.8716,2.8284,2.7825,2.7488,2.738,2.7533,2.717,2.6963,2.7273,2.7331,2.7607,2.8144,2.8289,2.8405,2.8608,2.8463,2.8303,2.826,2.8071,2.7882,2.7937,2.7904,2.789,2.7893,2.7919,2.7763,2.7645,2.7537,2.7327,2.706,2.699,2.6962,2.6736,2.7032,2.7255,2.7309,2.7404,2.7565,2.7411,2.7265,2.7042,2.6688,2.6606,2.6107,2.5169,2.5738,2.6077,2.5982,2.567,2.5422,2.5087,2.5013,2.5089,1.9925,2.0556,2.1934,2.2992,2.3747,2.4041,2.4319,2.458,2.4765,2.4948,2.5061,2.523,2.5244,2.5131,2.5131,2.5131,2.5131,2.5131,2.5188,2.53,2.5355,2.5397,2.5647,2.5893,2.6111,2.6354,2.6886,2.743,2.7936,2.8733,2.9352,2.972,3.0355,3.0942,3.1355,3.1598,3.1932,3.2318,3.2078,3.2048,3.2211,3.1883,3.1516,3.1241,3.119,3.119,3.1151,3.1032,3.0952,3.0871,3.0733,3.0609,3.051,3.0468,3.0468,3.0485,3.0443,3.0375,3.0189,2.9902,2.9502,2.9137,2.8684,2.8293,2.8017,2.7654,2.7689,2.8017,2.7617,2.7534,2.7864,2.7955,2.8245,2.8868,2.8913,2.8971,2.9189,2.9087,2.8956,2.8942,2.871,2.8666,2.8708,2.8606,2.8577,2.8621,2.8621,2.8536,2.834,2.8154,2.7953,2.7593,2.7804,2.7849,2.754,2.7664,2.7841,2.7847,2.7857,2.7963,2.77,2.7569,2.7291,2.7341,2.7161,2.6783,2.6002,2.6398,2.6749,2.664,2.637,2.5945,2.5507,2.5347,2.526,2.0459,2.126,2.285,2.3734,2.4112,2.4261,2.4478,2.4835,2.4948,2.5061,2.523,2.5425,2.5494,2.5508,2.5522,2.5508,2.5439,2.5494,2.5481,2.5494,2.5647,2.5798,2.5879,2.615,2.65,2.6982,2.7768,2.8657,2.9569,2.9955,3.0195,3.0387,3.0869,3.1205,3.1548,3.1919,3.2136,3.2544,3.2729,3.2927,3.3031,3.3195,3.256,3.1461,3.1224,3.1202,3.1015,3.0935,3.0871,3.0716,3.0609,3.051,3.0468,3.0468,3.0468,3.0468,3.0443,3.0333,3.0238,2.9923,2.9582,2.92,2.8839,2.8458,2.8494,2.8254,2.8282,2.865,2.8621,2.8618,2.8715,2.8691,2.8926,2.9493,2.9537,2.9827,3.035,2.9871,2.9624,2.9508,2.916,2.8927,2.8782,2.867,2.8813,2.8785,2.8613,2.8511,2.844,2.8224,2.8078,2.806,2.8268,2.8567,2.8361,2.8352,2.8382,2.8358,2.8498,2.8774,2.8793,2.8666,2.8238,2.7911,2.7741,2.7426,2.6952,2.6776,2.6796,2.6783,2.6857,2.6553,2.6465,2.6053,2.5914,2.1551,2.2898,2.3716,2.4319,2.4677,2.4708,2.4948,2.5257,2.5313,2.5411,2.5508,2.5674,2.5798,2.5936,2.6536,2.6383,2.5661,2.5743,2.5798,2.5964,2.6466,2.6802,2.6995,2.7628,2.8065,2.8355,2.8833,2.9432,3.0061,3.0654,3.1081,3.1436,3.2055,3.2602,3.2892,3.3176,3.3535,3.382,3.3719,3.3695,3.3789,3.3558,3.3119,3.2628,3.2138,3.1624,3.1032,3.0935,3.0814,3.0692,3.0551,3.0468,3.0468,3.0468,3.0468,3.0468,3.0359,3.0445,3.0768,3.0477,3.0273,3.0417,2.9959,2.9501,2.9328,2.899,2.8913,2.9287,2.9348,2.9435,2.9755,2.9551,2.9523,3.0104,3.0264,3.0292,3.0466,3.0364,3.0234,3.019,3.0016,2.99,2.9827,2.9899,2.9899,2.9914,2.9721,2.9514,2.938,2.9231,2.904,2.9003,2.9125,2.9223,2.9049,2.9016,2.9004,2.8858,2.8884,2.8798,2.8739,2.8675,2.8309,2.8282,2.8157,2.8125,2.7705,2.7642,2.7602,2.7629,2.7664,2.7447,2.7728,2.6992,2.6606,2.263,2.3878,2.435,2.4708,2.5005,2.5174,2.5355,2.5592,2.5647,2.5743,2.5879,2.6042,2.625,2.6654,2.7328,2.7374,2.6761,2.6816,2.6871,2.6954,2.7535,2.7888,2.8057,2.8712,2.9112,2.9307,2.9858,3.0403,3.0914,3.1505,3.1935,3.23,3.3035,3.3503,3.3797,3.4101,3.4399,3.4624,3.4512,3.4492,3.4633,3.4317,3.3998,3.3728,3.3195,3.2521,3.1707,3.1357,3.1141,3.0983,3.0701,3.0468,3.0468,3.0468,3.0584,3.0799,3.0678,3.086,3.1471,3.1142,3.0927,3.1144,3.0705,3.0287,3.009,2.9699,2.9704,3.0002,3.0075,3.0147,3.0364,3.0176,3.0118,3.0495,3.0642,3.0642,3.0642,3.0642,3.0568,3.0539,3.051,3.0598,3.0642,3.0613,3.0539,3.0642,3.0401,3.0233,3.0111,2.9898,2.9699,2.9602,2.9532,2.9484,2.9338,2.9185,2.9024,2.8939,2.8826,2.8688,2.8651,2.8587,2.8587,2.8587,2.8587,2.8587,2.8587,2.8587,2.8587,2.8573,2.8343,2.803,2.7944,2.7721,2.7284,2.369,2.4323,2.4821,2.5005,2.5118,2.5508,2.5729,2.5784,2.6016,2.6247,2.6465,2.6515,2.6996,2.7607,2.8031,2.8305,2.8659,2.8706,2.8606,2.8519,2.8761,2.8876,2.8931,2.937,2.9665,2.9843,3.0706,3.1558,3.2213,3.2516,3.2866,3.324,3.3577,3.3982,3.4182,3.4578,3.4758,3.4982,3.5185,3.5321,3.5475,3.5425,3.5115,3.4573,3.4307,3.3883,3.3115,3.225,3.1765,3.1553,3.1007,3.0576,3.0709,3.0709,3.0924,3.1477,3.1419,3.1708,3.2223,3.1885,3.1517,3.1444,3.0849,3.0685,3.0709,3.0383,3.0293,3.0631,3.06,3.0553,3.0553,3.051,3.0495,3.0642,3.0642,3.0642,3.0642,3.0642,3.0642,3.0642,3.0642,3.0642,3.0642,3.0642,3.0582,3.0522,3.0355,3.0111,3.0064,2.9789,2.9602,2.9602,2.9602,2.954,2.9352,2.9226,2.9022,2.8844,2.8702,2.8587,2.8587,2.8587,2.8587,2.8587,2.8587,2.8587,2.8587,2.8587,2.8522,2.8509,2.8492,2.8465,2.8275,2.803,2.7854,2.4617,2.4821,2.5272,2.5564,2.566,2.5988,2.6136,2.6258,2.6472,2.6862,2.7316,2.7428,2.7915,2.8693,2.9245,2.9696,2.9918,3.0303,3.0039,2.9263,2.9569,2.9888,3.0018,3.0645,3.1151,3.1445,3.1803,3.2182,3.264,3.3404,3.3912,3.4153,3.484,3.5347,3.5561,3.5936,3.6059,3.5856,3.6044,3.5996,3.5616,3.5594,3.5504,3.5273,3.5105,3.4851,3.4554,3.3284,3.2546,3.2348,3.215,3.2017,3.1984,3.2017,3.2116,3.2315,3.2215,3.2409,3.291,3.2708,3.2526,3.259,3.2217,3.1898,3.1713,3.118,3.0939,3.0999,3.0762,3.0642,3.0642,3.0642,3.0642,3.0642,3.0642,3.0642,3.0642,3.0642,3.0642,3.0642,3.0642,3.0642,3.0642,3.0642,3.0568,3.0447,3.0219,3.005,2.9898,2.9727,2.9602,2.9602,2.954,2.9477,2.9289,2.9099,2.8972,2.878,2.8651,2.8587,2.8587,2.8587,2.8587,2.86,2.86,2.8587,2.8522,2.8444,2.8457,2.8471,2.843,2.8444,2.8549,2.84,2.8093,2.5216,2.5286,2.5715,2.5988,2.6096,2.6418,2.6707,2.7002,2.719,2.773,2.8351,2.8508,2.8971,2.9729,3.0302,3.0672,3.0998,3.1474,3.1147,3.0362,3.0574,3.0911,3.1012,3.16,3.222,3.2614,3.2798,3.316,3.3701,3.4384,3.4825,3.5138,3.5744,3.6206,3.6466,3.6763,3.682,3.6702,3.6877,3.6818,3.654,3.6468,3.6332,3.6067,3.5833,3.5542,3.5274,3.4189,3.3483,3.3139,3.2845,3.268,3.2663,3.2646,3.2796,3.3044,3.3036,3.3195,3.3694,3.347,3.3283,3.3407,3.298,3.2532,3.2176,3.1667,3.1336,3.1073,3.0836,3.0642,3.0628,3.0642,3.0642,3.0642,3.0642,3.0642,3.0642,3.0642,3.0642,3.0642,3.0642,3.0642,3.0642,3.0582,3.0507,3.0326,3.0158,3.0036,2.9822,2.9699,2.9651,2.9602,2.954,2.9352,2.9162,2.8972,2.8844,2.8716,2.8587,2.8587,2.8587,2.8587,2.8587,2.86,2.8614,2.8536,2.8457,2.8314,2.8183,2.8262,2.8302,2.8354,2.8354,2.8368,2.8206,2.555,2.5826,2.6193,2.6494,2.6605,2.7035,2.7515,2.7964,2.8184,2.8729,2.9411,2.9624,3.0093,3.0754,3.1021,3.1379,3.1905,3.1894,3.1985,3.1894,3.1928,3.1944,3.2072,3.241,3.2931,3.3501,3.3717,3.431,3.5086,3.5403,3.5689,3.6072,3.6395,3.6645,3.7072,3.7149,3.7453,3.7585,3.7698,3.781,3.7787,3.7804,3.7516,3.6874,3.6572,3.6178,3.5663,3.5124,3.4551,3.3872,3.3292,3.3027,3.2878,3.2812,3.3276,3.3839,3.3779,3.4067,3.4415,3.4446,3.4127,3.3766,3.3313,3.2656,3.2302,3.1838,3.1511,3.1338,3.1101,3.0908,3.0846,3.0904,3.0814,3.0655,3.064,3.0582,3.0642,3.0642,3.0642,3.0642,3.0642,3.0642,3.0642,3.0642,3.0507,3.0326,3.0158,3.0021,2.9837,2.9651,2.9602,2.954,2.9477,2.9352,2.9162,2.8972,2.8844,2.8716,2.8587,2.8587,2.8587,2.8587,2.8522,2.8536,2.8549,2.8406,2.8249,2.8026,2.8013,2.8172,2.8172,2.8119,2.8079,2.8,2.8013,2.6215,2.6901,2.723,2.7639,2.821,2.8611,2.8862,2.901,2.928,2.9763,3.0343,3.0573,3.0976,3.1607,3.1708,3.1845,3.2068,3.2027,3.2372,3.2837,3.3027,3.3084,3.3207,3.3633,3.4098,3.4514,3.483,3.5109,3.5482,3.6254,3.6741,3.6961,3.7595,3.8161,3.8586,3.8714,3.8705,3.8489,3.8603,3.8381,3.8024,3.7973,3.779,3.7509,3.7297,3.7034,3.6719,3.609,3.5363,3.4684,3.4452,3.4319,3.427,3.427,3.4386,3.4651,3.5083,3.5365,3.5498,3.5673,3.5448,3.4699,3.4213,3.3544,3.2594,3.215,3.1995,3.1975,3.178,3.1728,3.2046,3.2009,3.1758,3.1308,3.0916,3.0671,3.0582,3.0642,3.0642,3.0642,3.0642,3.0642,3.0642,3.0582,3.0447,3.0219,3.0097,2.9974,2.9789,2.9665,2.9602,2.954,2.9477,2.9289,2.9162,2.8908,2.878,2.8651,2.8587,2.8587,2.8587,2.8587,2.8509,2.8444,2.8341,2.8262,2.7881,2.7564,2.7762,2.7801,2.7788,2.7575,2.751,2.7404,2.751,2.7381,2.7893,2.8265,2.8704,2.9138,2.9441,2.9714,2.9993,3.0202,3.0658,3.1243,3.146,3.1728,3.2079,3.2135,3.2318,3.2588,3.2691,3.313,3.3844,3.4399,3.4426,3.4275,3.4612,3.5049,3.5545,3.5821,3.6181,3.6637,3.7319,3.7688,3.7975,3.857,3.904,3.9206,3.952,3.9578,3.9345,3.9412,3.9208,3.8853,3.8819,3.8518,3.8268,3.7986,3.7753,3.7253,3.6738,3.6125,3.5462,3.5098,3.5032,3.533,3.5346,3.5495,3.5777,3.6257,3.6406,3.6322,3.6479,3.6254,3.563,3.516,3.4573,3.3833,3.3332,3.3117,3.3021,3.2674,3.2588,3.2664,3.2591,3.2338,3.1961,3.1366,3.0872,3.0626,3.0642,3.0642,3.0642,3.0642,3.0642,3.0642,3.0642,3.0462,3.0233,3.0111,2.9927,2.9665,2.9602,2.9602,2.954,2.9415,2.9226,2.9099,2.8908,2.8716,2.8651,2.8587,2.8587,2.8587,2.8587,2.8457,2.8314,2.8262,2.7987,2.7537,2.7178,2.7015,2.7079,2.7105,2.7037,2.6837,2.668,2.6786,2.8766,2.8895,2.9341,2.9605,2.9709,2.9952,3.0452,3.09,3.1101,3.146,3.1886,3.2176,3.2277,3.2354,3.2644,3.2946,3.3563,3.3707,3.4255,3.4976,3.5665,3.5922,3.5472,3.5561,3.6017,3.6495,3.6762,3.7278,3.7874,3.8303,3.8658,3.8962,3.9358,3.9607,3.9967,4.0115,4.017,4.0289,4.0392,4.0426,4.0273,4.0155,3.9733,3.9194,3.874,3.832,3.7667,3.7268,3.692,3.6274,3.5528,3.5595,3.6059,3.6125,3.6373,3.687,3.7069,3.7167,3.7098,3.7058,3.6816,3.647,3.5989,3.5578,3.5068,3.4503,3.4204,3.4046,3.3666,3.3336,3.3182,3.2888,3.2672,3.2513,3.2019,3.1366,3.0843,3.0626,3.0642,3.0642,3.0642,3.0642,3.0642,3.0582,3.0447,3.0219,3.0111,2.9913,2.9727,2.9665,2.9602,2.9602,2.9415,2.9162,2.9035,2.8844,2.8716,2.8587,2.8587,2.8587,2.8509,2.8444,2.8379,2.8262,2.8066,2.7656,2.7175,2.6824,2.6552,2.6308,2.6277,2.6233,2.6164,2.5995,2.5983,2.9281,2.9992,3.0216,3.0713,3.1261,3.146,3.1561,3.1769,3.1866,3.2099,3.2206,3.2444,3.2878,3.3382,3.351,3.3979,3.4514,3.4737,3.5123,3.6085,3.697,3.7324,3.7239,3.7239,3.7319,3.7652,3.7882,3.8181,3.8537,3.9291,3.9729,4.0034,4.0564,4.1128,4.1372,4.1379,4.1654,4.176,4.1762,4.1694,4.1559,4.1187,4.0779,4.0282,3.9621,3.9129,3.8795,3.8261,3.7914,3.7599,3.7119,3.6837,3.6854,3.687,3.7019,3.7301,3.7731,3.7963,3.7994,3.8134,3.8138,3.7378,3.6954,3.6358,3.5426,3.5003,3.4901,3.4911,3.4589,3.4267,3.409,3.3645,3.3391,3.3151,3.2687,3.2034,3.1409,3.0887,3.0669,3.0642,3.0642,3.0642,3.0642,3.0642,3.0522,3.028,3.0158,2.9974,2.9851,2.9651,2.9602,2.9602,2.9477,2.9226,2.9035,2.8844,2.8716,2.8587,2.8587,2.8522,2.8444,2.8314,2.8183,2.7987,2.7723,2.7348,2.6977,2.649,2.6226,2.5873,2.5712,2.5873,2.5923,2.561,2.5538,3.0416,3.0857,3.1129,3.1509,3.1868,3.2038,3.2333,3.2634,3.2849,3.3131,3.3419,3.365,3.3908,3.4234,3.4379,3.4779,3.5519,3.6043,3.6722,3.7573,3.8227,3.8632,3.9146,3.9114,3.9049,3.885,3.9266,3.9552,3.9854,4.0278,4.0767,4.1006,4.1533,4.177,4.2088,4.2193,4.2182,4.2236,4.2303,4.2303,4.2202,4.1948,4.1553,4.1339,4.0717,4.0392,4.0216,3.962,3.9305,3.9123,3.8825,3.8278,3.7731,3.7649,3.7781,3.8162,3.8427,3.8709,3.8788,3.883,3.8734,3.8275,3.788,3.7351,3.674,3.6227,3.5942,3.5952,3.5535,3.5115,3.4773,3.4397,3.4068,3.3804,3.334,3.2701,3.2063,3.1424,3.0872,3.0684,3.0642,3.0642,3.0642,3.0642,3.0507,3.0326,3.0158,3.0036,2.9822,2.9699,2.9602,2.9602,2.9477,2.9289,2.9099,2.8908,2.8651,2.8587,2.8587,2.8522,2.8379,2.8183,2.7921,2.7736,2.7429,2.7199,2.6791,2.6355,2.6162,2.6178,2.6152,2.6041,2.5967,2.5908,2.591,3.1552,3.1625,3.2016,3.2205,3.2277,3.2497,3.3049,3.3666,3.3882,3.4244,3.4857,3.4966,3.4971,3.5164,3.5222,3.5687,3.6521,3.7435,3.8243,3.8836,3.9242,3.9774,4.0313,4.0593,4.0603,4.0073,4.0491,4.0894,4.1099,4.1574,4.1777,4.1977,4.2294,4.2677,4.2597,4.2621,4.2828,4.2895,4.2895,4.2861,4.276,4.2608,4.226,4.1787,4.1572,4.1377,4.115,4.0746,4.0481,4.0531,4.0531,3.9885,3.9106,3.8742,3.8907,3.957,3.9669,3.9719,3.9736,3.961,3.9413,3.9188,3.8795,3.8497,3.8088,3.7515,3.7065,3.6645,3.6197,3.5578,3.4898,3.4624,3.4572,3.4351,3.3877,3.3354,3.2745,3.2121,3.1613,3.0713,3.0642,3.0642,3.0642,3.0582,3.0507,3.0387,3.0219,3.005,2.9898,2.9699,2.9665,2.9602,2.954,2.9352,2.9162,2.8844,2.8651,2.8587,2.8587,2.8379,2.8289,2.816,2.7865,2.7481,2.7194,2.7006,2.6801,2.6541,2.6444,2.6526,2.6358,2.613,2.6101,2.6253,2.6247,3.194,3.1985,3.2688,3.3104,3.3326,3.3959,3.4353,3.4665,3.4851,3.5027,3.5225,3.5435,3.5887,3.6292,3.6549,3.7004,3.7754,3.8627,3.9221,3.9661,4.0193,4.0782,4.1187,4.1805,4.1972,4.1923,4.1758,4.16,4.1813,4.2305,4.2775,4.3076,4.3519,4.3844,4.3956,4.4164,4.3961,4.3893,4.3927,4.3944,4.3859,4.3487,4.2833,4.2205,4.2061,4.1826,4.1581,4.1375,4.1243,4.1259,4.1243,4.1094,4.0829,4.0763,4.0862,4.0829,4.0845,4.0779,4.0812,4.0889,4.0899,4.063,3.9993,3.9471,3.8979,3.8216,3.7686,3.7136,3.6507,3.5782,3.5213,3.4898,3.4631,3.4438,3.4269,3.3935,3.3412,3.2991,3.2324,3.1134,3.0814,3.0642,3.0642,3.0642,3.0582,3.0447,3.028,3.0172,2.9974,2.9789,2.9665,2.9602,2.9602,2.9352,2.9162,2.8844,2.8587,2.8587,2.8444,2.8249,2.812,2.8114,2.7825,2.7357,2.7113,2.703,2.6858,2.6673,2.6574,2.6611,2.6422,2.6198,2.6306,2.6479,2.6242,3.2364,3.2813,3.3249,3.3759,3.427,3.4753,3.5227,3.5697,3.59,3.6235,3.653,3.674,3.6956,3.7396,3.7812,3.8408,3.9237,3.9826,4.0382,4.0857,4.1334,4.192,4.2219,4.2857,4.3132,4.3215,4.3079,4.2862,4.3003,4.3417,4.3738,4.3968,4.4305,4.4497,4.4553,4.4502,4.457,4.457,4.457,4.457,4.457,4.413,4.3625,4.3216,4.2952,4.2798,4.2543,4.2104,4.2005,4.1988,4.1972,4.1988,4.2071,4.2237,4.2187,4.164,4.1491,4.1458,4.1442,4.1425,4.1302,4.1115,4.0664,4.0319,3.993,3.9257,3.8439,3.7621,3.6816,3.5988,3.5424,3.5111,3.4831,3.4631,3.4481,3.4109,3.3688,3.3594,3.2701,3.1685,3.1424,3.1105,3.0642,3.0642,3.0642,3.0522,3.0384,3.0305,3.0254,3.0097,2.9918,2.9687,2.9624,2.9352,2.9162,2.8908,2.8651,2.8587,2.8392,2.8183,2.8,2.8043,2.769,2.7195,2.7008,2.7152,2.7073,2.7043,2.6835,2.6764,2.6723,2.6747,2.6691,2.6657,2.6382,3.2952,3.3589,3.4022,3.4613,3.5196,3.5571,3.6105,3.6648,3.6972,3.7374,3.7927,3.8075,3.8107,3.846,3.9082,3.9844,4.0631,4.1007,4.155,4.1986,4.2475,4.3006,4.3488,4.3831,4.3881,4.393,4.4118,4.435,4.4068,4.4192,4.4406,4.4429,4.4536,4.457,4.457,4.457,4.457,4.457,4.457,4.457,4.457,4.457,4.4457,4.4172,4.4097,4.3898,4.3455,4.3015,4.2767,4.275,4.275,4.275,4.2833,4.3297,4.3048,4.2104,4.1872,4.1856,4.1905,4.1972,4.203,4.1915,4.1486,4.1154,4.0745,4.0192,3.9372,3.8279,3.7327,3.658,3.6084,3.5499,3.5177,3.4831,3.4587,3.4321,3.4002,3.3754,3.3456,3.2716,3.2208,3.1787,3.1409,3.1279,3.1424,3.1424,3.1267,3.1037,3.0954,3.0651,3.0404,2.994,2.9645,2.9394,2.9162,2.8908,2.8716,2.8587,2.8406,2.8145,2.8039,2.7971,2.7666,2.7463,2.7445,2.7541,2.7472,2.729,2.717,2.7093,2.7197,2.7092,2.6885,2.678,2.6572,3.365,3.3989,3.5347,3.6012,3.6342,3.6996,3.7488,3.7684,3.7971,3.8238,3.8335,3.8665,3.9047,3.9773,4.0426,4.0843,4.1213,4.1848,4.2369,4.2717,4.3248,4.3648,4.4006,4.4196,4.4253,4.431,4.444,4.444,4.4367,4.4497,4.457,4.457,4.457,4.457,4.457,4.457,4.457,4.457,4.457,4.457,4.457,4.457,4.444,4.4327,4.4155,4.4056,4.3822,4.3488,4.3396,4.3413,4.3462,4.3479,4.3512,4.3545,4.3595,4.3413,4.3363,4.3363,4.3214,4.3115,4.3039,4.289,4.2541,4.2134,4.1624,4.078,3.9939,3.9471,3.8372,3.7465,3.685,3.6064,3.5529,3.5162,3.4883,3.4683,3.4441,3.417,3.3856,3.3616,3.3079,3.2788,3.2469,3.2382,3.2324,3.2246,3.2139,3.1939,3.1632,3.1283,3.0977,3.0488,3.0227,2.9973,2.9753,2.9476,2.9227,2.8937,2.861,2.8425,2.8302,2.8334,2.818,2.8077,2.7997,2.7734,2.7486,2.7378,2.7302,2.7255,2.7219,2.7067,2.6962,2.6809,2.6715,3.5392,3.5383,3.6137,3.6759,3.7297,3.7879,3.8107,3.8221,3.8488,3.86,3.8753,3.9319,4.017,4.1238,4.1881,4.2245,4.2651,4.3082,4.3365,4.3389,4.3839,4.4121,4.4236,4.4367,4.444,4.4497,4.4514,4.457,4.4497,4.4497,4.457,4.457,4.457,4.457,4.457,4.457,4.457,4.457,4.457,4.457,4.457,4.457,4.4497,4.431,4.4253,4.4097,4.3939,4.3839,4.3704,4.3645,4.3645,4.3645,4.3628,4.3628,4.3628,4.3628,4.3611,4.3595,4.3595,4.3645,4.3645,4.3552,4.3135,4.2747,4.2281,4.1488,4.0667,4.0182,3.9377,3.8497,3.7743,3.6911,3.6304,3.5769,3.5323,3.5016,3.4817,3.4683,3.4374,3.4176,3.3964,3.363,3.3267,3.2948,3.2774,3.2687,3.2564,3.2364,3.2055,3.1718,3.1452,3.112,3.0886,3.0695,3.0526,3.038,3.0182,2.986,2.9457,2.9185,2.8871,2.8776,2.8596,2.8295,2.8083,2.7822,2.7505,2.7301,2.7244,2.7208,2.7231,2.7067,2.6891,2.6599,2.6434,3.6844,3.6947,3.7077,3.7454,3.8033,3.8391,3.8504,3.86,3.8821,3.9084,3.9517,4.0337,4.1564,4.2451,4.2898,4.3322,4.3839,4.4097,4.4155,4.4196,4.4253,4.4384,4.4423,4.4497,4.457,4.457,4.457,4.457,4.457,4.457,4.457,4.457,4.457,4.457,4.457,4.457,4.457,4.457,4.457,4.457,4.457,4.457,4.4497,4.4423,4.431,4.4212,4.3998,4.3898,4.3822,4.3645,4.3645,4.3645,4.3645,4.3645,4.3645,4.3645,4.3645,4.3645,4.3645,4.3645,4.3645,4.3568,4.3492,4.3136,4.2831,4.2223,4.1717,4.1199,4.0341,3.9487,3.8669,3.7961,3.7103,3.6432,3.5853,3.5454,3.5067,3.4949,3.475,3.4514,3.4359,3.4351,3.3972,3.3441,3.3195,3.3079,3.2927,3.2818,3.2579,3.2259,3.1948,3.1668,3.1401,3.125,3.1268,3.1124,3.0991,3.0692,3.0279,2.9851,2.9495,2.9073,2.8762,2.8525,2.8191,2.7933,2.7705,2.7395,2.7231,2.7149,2.7149,2.7067,2.6809,2.6505,2.6246,3.7623,3.8254,3.8254,3.8327,3.8408,3.8655,3.886,3.9068,3.9214,3.979,4.0733,4.1961,4.2668,4.3143,4.3628,4.3946,4.4097,4.4253,4.431,4.4384,4.444,4.4514,4.4553,4.457,4.457,4.457,4.457,4.457,4.4621,4.4722,4.4654,4.457,4.4677,4.4587,4.457,4.457,4.457,4.457,4.457,4.457,4.457,4.457,4.457,4.4514,4.4384,4.4253,4.4097,4.3998,4.3822,4.3645,4.3645,4.3645,4.3645,4.3645,4.3645,4.3645,4.3645,4.3645,4.3645,4.3645,4.3645,4.3585,4.3509,4.3372,4.3174,4.2805,4.2474,4.2203,4.1325,4.0737,3.9897,3.9093,3.8135,3.7448,3.6822,3.6148,3.5719,3.5279,3.5096,3.4765,3.4631,3.4563,3.4481,3.392,3.379,3.3688,3.3665,3.3622,3.3303,3.2976,3.2546,3.2174,3.1822,3.1724,3.1903,3.1786,3.1461,3.1129,3.0767,3.0365,3.0077,2.965,2.9087,2.8717,2.8431,2.8122,2.78,2.7476,2.7231,2.7242,2.7161,2.7008,2.6667,2.629,2.6124,3.8339,3.8766,3.8892,3.8876,3.8821,3.8985,3.9466,3.9939,4.0151,4.0996,4.2232,4.2836,4.3452,4.3929,4.4164,4.44,4.44,4.4457,4.444,4.4497,4.4553,4.457,4.457,4.457,4.457,4.457,4.457,4.457,4.4587,4.5015,4.5309,4.5275,4.5021,4.4677,4.457,4.4778,4.4727,4.4694,4.466,4.4587,4.457,4.457,4.457,4.457,4.457,4.4384,4.427,4.4097,4.3939,4.3763,4.3687,4.3645,4.3645,4.3645,4.3645,4.3645,4.3645,4.3645,4.3645,4.3645,4.3645,4.3568,4.3568,4.3509,4.3432,4.3068,4.2805,4.2504,4.214,4.1565,4.0769,4.0135,3.9439,3.8716,3.7901,3.7103,3.6539,3.6129,3.5544,3.5274,3.4905,3.4698,3.4563,3.4438,3.4341,3.4341,3.4332,3.4278,3.3905,3.3642,3.3097,3.275,3.244,3.2398,3.2593,3.2318,3.1958,3.158,3.1199,3.0833,3.0466,2.9915,2.9437,2.9047,2.8563,2.8089,2.7719,2.7476,2.7219,2.7033,2.6996,2.6971,2.6606,2.6157,2.599,3.8947,3.9127,3.9557,3.9508,3.9251,3.9557,4.0084,4.0712,4.1087,4.1933,4.3255,4.3512,4.3973,4.4468,4.457,4.457,4.457,4.457,4.457,4.457,4.457,4.457,4.457,4.457,4.457,4.457,4.4643,4.4716,4.5106,4.5563,4.5966,4.6039,4.5762,4.5609,4.5484,4.5399,4.5399,4.5382,4.5089,4.5021,4.5021,4.4727,4.457,4.457,4.457,4.444,4.431,4.4196,4.4056,4.3881,4.3763,4.3704,4.3645,4.3645,4.3645,4.3645,4.3645,4.3645,4.3645,4.3645,4.3645,4.3568,4.3568,4.3568,4.3432,4.3312,4.3068,4.2805,4.2601,4.2235,4.1451,4.096,4.0515,3.9771,3.8968,3.8152,3.7617,3.7113,3.6371,3.5878,3.5436,3.4964,3.4631,3.4481,3.4414,3.4414,3.4414,3.4293,3.3991,3.3756,3.3589,3.3296,3.3101,3.3157,3.3199,3.2695,3.2289,3.2132,3.1762,3.1296,3.0834,3.0215,2.9559,2.901,2.845,2.802,2.7731,2.7406,2.7033,2.673,2.6715,2.67,2.644,2.599,2.599,3.9305,3.9408,4.0374,4.0274,3.9751,4.0445,4.0886,4.1314,4.1903,4.2648,4.3534,4.4164,4.4451,4.457,4.457,4.457,4.457,4.457,4.457,4.457,4.4626,4.4626,4.4626,4.4626,4.4682,4.4626,4.489,4.5286,4.5745,4.6283,4.672,4.7187,4.7256,4.7119,4.7221,4.7221,4.7221,4.7062,4.6249,4.5971,4.5745,4.5258,4.5032,4.4998,4.4959,4.4936,4.4619,4.4529,4.4339,4.4015,4.3939,4.3822,4.3704,4.3645,4.3645,4.3628,4.3628,4.3645,4.3645,4.3645,4.3645,4.3645,4.3645,4.3568,4.3568,4.3432,4.3312,4.3068,4.2867,4.2696,4.2217,4.1755,4.1277,4.0832,4.0024,3.9361,3.8746,3.7886,3.7164,3.6405,3.5794,3.5309,3.4831,3.4563,3.4414,3.4414,3.4414,3.421,3.402,3.3813,3.3744,3.3507,3.3297,3.3312,3.3241,3.2931,3.2648,3.2503,3.2187,3.1623,3.0917,3.0266,2.9571,2.8923,2.8393,2.7916,2.7661,2.7347,2.6891,2.6517,2.6279,2.624,2.599,2.5906,2.5906,4.0254,4.0517,4.1308,4.153,4.1398,4.1564,4.1987,4.2652,4.3399,4.3888,4.4181,4.4502,4.457,4.457,4.457,4.457,4.457,4.457,4.457,4.4626,4.4682,4.4737,4.472,4.4831,4.4848,4.5039,4.535,4.5764,4.5998,4.6931,4.7689,4.8209,4.8621,4.8409,4.7621,4.7307,4.729,4.7256,4.6959,4.6783,4.6766,4.6357,4.6129,4.6112,4.5981,4.5703,4.5274,4.5108,4.4841,4.4406,4.4298,4.4073,4.3922,4.3889,4.3796,4.3645,4.3628,4.3645,4.3645,4.3645,4.3645,4.3645,4.3645,4.3645,4.3568,4.3492,4.3372,4.3251,4.3068,4.2883,4.2645,4.233,4.1948,4.1788,4.1166,4.0531,3.9866,3.867,3.7732,3.7057,3.6364,3.5589,3.4971,3.4844,3.4724,3.4675,3.4733,3.4365,3.4088,3.3951,3.373,3.3479,3.3325,3.3297,3.3171,3.3002,3.2775,3.2632,3.2187,3.1649,3.0957,3.0253,2.9584,2.8855,2.8345,2.7824,2.751,2.7101,2.6678,2.6324,2.6157,2.6063,2.599,2.5906,2.5906,4.1204,4.1449,4.2227,4.2584,4.2675,4.2584,4.3006,4.3826,4.435,4.457,4.4553,4.457,4.457,4.457,4.457,4.457,4.457,4.4626,4.4682,4.4682,4.4848,4.4886,4.4995,4.5101,4.5326,4.5569,4.6052,4.6519,4.7202,4.8169,4.8833,4.9383,4.9894,4.953,4.8808,4.854,4.8483,4.8375,4.8163,4.7758,4.7598,4.7295,4.705,4.6975,4.6809,4.6556,4.6252,4.5916,4.5647,4.5168,4.4901,4.47,4.4482,4.4306,4.4131,4.3863,4.3628,4.3645,4.3645,4.3645,4.3645,4.3645,4.3645,4.3645,4.3568,4.3492,4.3432,4.3312,4.3129,4.3023,4.2899,4.2634,4.2459,4.2283,4.2012,4.1358,4.0944,3.9834,3.8937,3.8165,3.7067,3.6129,3.5326,3.5125,3.5063,3.5073,3.5136,3.4737,3.4272,3.4091,3.3842,3.3534,3.3311,3.3297,3.3241,3.3072,3.2917,3.2704,3.2259,3.175,3.1018,3.0316,2.9596,2.8807,2.831,2.7754,2.7277,2.6772,2.6407,2.6157,2.6085,2.599,2.5906,2.5895,2.5822,4.2122,4.2294,4.3094,4.3453,4.3453,4.3399,4.3876,4.4519,4.457,4.457,4.457,4.457,4.457,4.4587,4.4626,4.4626,4.4626,4.4737,4.4831,4.4886,4.4995,4.5086,4.5282,4.5421,4.5889,4.6462,4.7034,4.7761,4.867,4.9167,4.975,5.0227,5.0477,5.0337,5.0178,5.0015,4.9847,4.9543,4.9114,4.8776,4.8615,4.7997,4.782,4.7728,4.7561,4.7308,4.7063,4.6886,4.6625,4.6448,4.6329,4.5917,4.5513,4.5278,4.4708,4.4164,4.3803,4.382,4.3645,4.3645,4.3645,4.3645,4.3645,4.3645,4.3568,4.3552,4.3509,4.3449,4.3312,4.3146,4.2961,4.2837,4.2775,4.2618,4.2412,4.2125,4.1997,4.1326,4.0499,3.9499,3.8175,3.7112,3.6246,3.5863,3.5648,3.5659,3.5635,3.5363,3.492,3.4321,3.4013,3.352,3.3381,3.3297,3.3241,3.3157,3.2931,3.2775,3.2286,3.1763,3.1018,3.0316,2.9493,2.8814,2.8205,2.7603,2.6937,2.6501,2.6041,2.5968,2.5906,2.5801,2.5706,2.5728,2.5654,4.3044,4.3128,4.3944,4.4248,4.4231,4.4231,4.4384,4.457,4.457,4.457,4.457,4.457,4.4626,4.4626,4.4682,4.4737,4.4793,4.4903,4.4995,4.5086,4.5247,4.5441,4.5788,4.6274,4.6726,4.7352,4.8085,4.8746,4.9211,4.9794,5.0379,5.0838,5.0963,5.1017,5.1017,5.0909,5.0729,5.0439,4.9899,4.9734,4.9545,4.912,4.8884,4.8809,4.8675,4.8387,4.8021,4.7801,4.7513,4.7056,4.6836,4.6465,4.6219,4.6102,4.5697,4.484,4.4537,4.4344,4.3761,4.3645,4.3678,4.3744,4.3727,4.3645,4.3645,4.3635,4.3635,4.3509,4.3449,4.3267,4.3162,4.3039,4.2886,4.2778,4.2619,4.2476,4.2252,4.1869,4.1119,4.0163,3.8849,3.7979,3.7105,3.6615,3.6438,3.6344,3.6245,3.6,3.551,3.488,3.417,3.3662,3.3395,3.3312,3.3312,3.3241,3.3016,3.2789,3.2286,3.175,3.1053,3.0316,2.9481,2.8674,2.787,2.7195,2.6523,2.6157,2.5957,2.5884,2.5822,2.5611,2.5505,2.5454,2.5475,4.3876,4.3944,4.4367,4.457,4.457,4.457,4.457,4.457,4.457,4.457,4.4587,4.4643,4.4682,4.4682,4.4831,4.4923,4.4978,4.514,4.5283,4.5494,4.5632,4.6064,4.6564,4.7187,4.7799,4.8449,4.9204,4.9785,5.0082,5.0469,5.0982,5.1246,5.1316,5.1454,5.1487,5.1454,5.1281,5.0982,5.0622,5.0453,5.0228,5.0057,4.9942,4.9825,4.9708,4.9282,4.8932,4.8711,4.8362,4.7997,4.7844,4.7522,4.7106,4.6743,4.637,4.5587,4.5117,4.4823,4.4371,4.4228,4.4119,4.4108,4.4274,4.4539,4.4257,4.4125,4.386,4.3568,4.3509,4.3449,4.3284,4.3178,4.2997,4.2875,4.2731,4.2587,4.2346,4.209,4.1374,4.0513,3.9548,3.8666,3.7992,3.7493,3.7258,3.7376,3.7288,3.6953,3.6274,3.5353,3.4497,3.3748,3.3452,3.3312,3.3312,3.3241,3.3086,3.2789,3.2345,3.1796,3.1101,3.0227,2.93,2.8331,2.7475,2.6888,2.6318,2.6096,2.5895,2.5812,2.5633,2.5549,2.5359,2.5179,2.52,4.4553,4.4553,4.4626,4.4626,4.4626,4.4626,4.4626,4.4643,4.4626,4.4626,4.4643,4.4737,4.4831,4.4869,4.4978,4.514,4.5283,4.5441,4.5632,4.5922,4.625,4.6713,4.7382,4.7988,4.887,4.9788,5.0391,5.0695,5.1034,5.1263,5.1367,5.1556,5.1758,5.1858,5.1858,5.1858,5.169,5.1538,5.114,5.082,5.062,5.0397,5.0246,5.0189,4.9942,4.9698,4.9656,4.9615,4.9471,4.9453,4.9197,4.8719,4.8167,4.7556,4.7022,4.6514,4.6102,4.5647,4.525,4.509,4.4953,4.5108,4.5429,4.5512,4.5164,4.4705,4.4406,4.4324,4.4329,4.4065,4.3938,4.3645,4.3477,4.3144,4.284,4.265,4.249,4.2219,4.1694,4.0956,4.0322,3.945,3.8847,3.8344,3.793,3.8238,3.8059,3.7707,3.7141,3.6072,3.5068,3.4172,3.3818,3.3607,3.3312,3.3241,3.3086,3.2789,3.2345,3.1756,3.1074,3.0151,2.9118,2.816,2.7352,2.6741,2.6289,2.6037,2.5825,2.5484,2.5411,2.538,2.5243,2.5147,2.4892,4.457,4.4626,4.4737,4.4737,4.4793,4.4886,4.4886,4.4869,4.4869,4.4886,4.4776,4.4886,4.5032,4.5123,4.5283,4.5441,4.5684,4.5837,4.6087,4.6597,4.7024,4.7677,4.8431,4.9329,5.0127,5.061,5.1129,5.1522,5.1619,5.174,5.179,5.1938,5.2102,5.2084,5.2102,5.2084,5.2036,5.2005,5.174,5.1315,5.1017,5.0729,5.0492,5.0436,5.0268,5.0114,4.9999,4.9825,4.9708,4.9573,4.953,4.9351,4.9138,4.8873,4.8379,4.7802,4.7327,4.6819,4.6337,4.6083,4.5945,4.5918,4.6074,4.6046,4.5868,4.5479,4.5268,4.5235,4.5069,4.4782,4.4489,4.424,4.3974,4.3448,4.2935,4.284,4.2666,4.2317,4.1949,4.148,4.0872,4.0285,3.9662,3.9227,3.8855,3.8531,3.8308,3.8043,3.7794,3.6981,3.5985,3.5082,3.4413,3.4115,3.3663,3.3241,3.3016,3.2717,3.2359,3.1742,3.1088,3.0072,2.9084,2.8093,2.7234,2.6886,2.645,2.6065,2.5787,2.5551,2.5445,2.5541,2.5506,2.533,2.5013,4.4682,4.4737,4.4886,4.4995,4.4978,4.514,4.5177,4.5194,4.523,4.5283,4.523,4.523,4.5283,4.5477,4.558,4.587,4.6087,4.6253,4.6843,4.7417,4.7943,4.8744,4.9647,5.0559,5.1063,5.1531,5.1808,5.2096,5.2132,5.2209,5.2257,5.2304,5.2351,5.2351,5.2415,5.2415,5.2322,5.2293,5.2198,5.1907,5.1505,5.114,5.0874,5.0784,5.0564,5.0453,5.0285,5.0154,5.0057,4.9942,4.9825,4.959,4.9479,4.9368,4.9155,4.8754,4.8277,4.7895,4.7378,4.7123,4.7002,4.6915,4.7178,4.7333,4.7337,4.7008,4.6238,4.6155,4.5616,4.5313,4.5222,4.5003,4.4877,4.4524,4.3826,4.3325,4.2877,4.2429,4.2093,4.1754,4.1229,4.0659,4.0093,3.9632,3.922,3.8694,3.8501,3.8277,3.8057,3.7852,3.6806,3.5912,3.5238,3.4525,3.3944,3.3437,3.2988,3.2704,3.2495,3.1668,3.0906,3.0029,2.9047,2.8303,2.7719,2.7289,2.6824,2.6552,2.6237,2.6064,2.5945,2.5868,2.5732,2.5691,2.5508,4.4831,4.4886,4.5123,4.523,4.5283,4.5441,4.5494,4.5494,4.5632,4.5786,4.5887,4.5684,4.5752,4.5887,4.6055,4.635,4.659,4.6684,4.7408,4.8173,4.8641,4.9622,5.0606,5.1502,5.1892,5.2182,5.2389,5.2426,5.2426,5.2518,5.2563,5.2654,5.2698,5.2806,5.2806,5.2761,5.269,5.2572,5.248,5.2387,5.2018,5.1586,5.1367,5.1105,5.0892,5.0694,5.0602,5.0547,5.0453,5.0285,5.0114,4.9942,4.9767,4.9767,4.9708,4.9392,4.9042,4.8651,4.8303,4.8184,4.8047,4.8,4.8387,4.8526,4.8509,4.8098,4.7387,4.6945,4.645,4.6046,4.6016,4.5857,4.5746,4.5405,4.4542,4.3828,4.3248,4.2702,4.2366,4.2107,4.157,4.0987,4.0493,4.0021,3.9451,3.9002,3.8649,3.8427,3.8248,3.8011,3.7442,3.6644,3.5937,3.522,3.4421,3.3896,3.3417,3.3239,3.2989,3.1845,3.0846,3.0131,2.9515,2.8856,2.8336,2.7789,2.7569,2.7424,2.7093,2.6598,2.626,2.603,2.6145,2.618,2.6264,4.5032,4.514,4.5441,4.5529,4.558,4.5803,4.5887,4.5887,4.6038,4.6253,4.6398,4.6429,4.6429,4.6429,4.6477,4.6684,4.7025,4.7187,4.7859,4.8699,4.9528,5.053,5.1399,5.216,5.2543,5.2662,5.2717,5.2717,5.2717,5.2761,5.2743,5.2787,5.2761,5.2806,5.2824,5.2824,5.2806,5.2735,5.2735,5.2645,5.2444,5.2048,5.179,5.1521,5.1297,5.1105,5.0946,5.082,5.0657,5.0547,5.038,5.0285,5.0228,5.0171,5.0114,4.9982,4.9631,4.9498,4.9238,4.9137,4.8967,4.8959,4.9195,4.9073,4.8995,4.8776,4.8315,4.819,4.773,4.7182,4.7005,4.6775,4.6581,4.5878,4.5078,4.4542,4.3943,4.346,4.3073,4.2524,4.1863,4.1319,4.0783,4.0231,3.9666,3.9147,3.8723,3.8501,3.8277,3.8098,3.7979,3.7322,3.6596,3.5946,3.5156,3.465,3.4205,3.3991,3.3552,3.245,3.1473,3.0577,2.9922,2.9355,2.8756,2.8187,2.8074,2.7949,2.7515,2.6982,2.6468,2.6267,2.642,2.6557,2.663]},{"header":{"parameterUnit":"m.s-1","parameterCategory":1,"la1":31.0,"la2":29.5877,"lo1":-88.7671,"lo2":-86.6584,"dx":0.0162,"dy":0.0185,"nx":115,"ny":88,"refTime":"2023-02-03T18:00:00:Z","depth":0,"parameterNumber":3,"parameterNumberName":"V-component_of_WINDS"},"data":[0.0,0.0,0.0,0.0,0.0,0.0,0.0,0.0,0.0,0.0,0.0,0.0,0.0,0.0,0.0,0.0,0.0,0.0,0.0,0.0,0.0,0.0,0.0,0.0,0.0,0.0,0.0,0.0,0.0,0.0,0.0,0.0,0.0,0.0,0.0,0.0,0.0,0.0,0.0,0.0,0.0,0.0,0.0,0.0,0.0,0.0,0.0,0.0,0.0,0.0,0.0,0.0,0.0,0.0,0.0,0.0,0.0,0.0,0.0,0.0,0.0,0.0,0.0,0.0,0.0,0.0,0.0,0.0,0.0,0.0,0.0,0.0,0.0,0.0,0.0,0.0,0.0,0.0,0.0,0.0,0.0,0.0,0.0,0.0,0.0,0.0,0.0,0.0,0.0,0.0,0.0,0.0,0.0,0.0,0.0,0.0,0.0,0.0,0.0,0.0,0.0,0.0,0.0,0.0,0.0,0.0,0.0,0.0,0.0,0.0,0.0,0.0,0.0,0.0,0.0,0.0,0.0,0.0,0.0,0.0,0.0,0.0,0.0,0.0,0.0,0.0,0.0,0.0,0.0,0.0,0.0,0.0,0.0,0.0,0.0,0.0,0.0,0.0,0.0,0.0,0.0,0.0,0.0,0.0,0.0,0.0,0.0,0.0,0.0,0.0,0.0,0.0,0.0,0.0,0.0,0.0,0.0,0.0,0.0,0.0,0.0,0.0,0.0,0.0,0.0,0.0,0.0,0.0,0.0,0.0,0.0,0.0,0.0,0.0,0.0,0.0,0.0,0.0,0.0,0.0,0.0,0.0,0.0,0.0,0.0,0.0,0.0,0.0,0.0,0.0,0.0,0.0,0.0,0.0,0.0,0.0,0.0,0.0,0.0,0.0,0.0,0.0,0.0,0.0,0.0,0.0,0.0,0.0,0.0,0.0,0.0,0.0,0.0,0.0,0.0,0.0,0.0,0.0,0.0,0.0,0.0,0.0,0.0,0.0,0.0,0.0,0.0,0.0,0.0,0.0,0.0,0.0,0.0,0.0,0.0,0.0,0.0,0.0,0.0,0.0,0.0,0.0,0.0,0.0,0.0,0.0,0.0,0.0,0.0,0.0,0.0,0.0,0.0,0.0,0.0,0.0,0.0,0.0,0.0,0.0,0.0,0.0,0.0,0.0,0.0,0.0,0.0,0.0,0.0,0.0,0.0,0.0,0.0,0.0,0.0,0.0,0.0,0.0,0.0,0.0,0.0,0.0,0.0,0.0,0.0,0.0,0.0,0.0,0.0,0.0,0.0,0.0,0.0,0.0,0.0,0.0,0.0,0.0,0.0,0.0,0.0,0.0,0.0,0.0,0.0,0.0,0.0,0.0,0.0,0.0,0.0,0.0,0.0,0.0,0.0,0.0,0.0,0.0,0.0,0.0,0.0,0.0,0.0,0.0,0.0,0.0,0.0,0.0,0.0,0.0,0.0,0.0,0.0,0.0,0.0,0.0,0.0,0.0,0.0,0.0,0.0,0.0,0.0,0.0,0.0,0.0,0.0,0.0,0.0,0.0,0.0,0.0,0.0,0.0,0.0,0.0,0.0,0.0,0.0,0.0,0.0,0.0,0.0,0.0,0.0,0.0,0.0,0.0,0.0,0.0,0.0,0.0,0.0,0.0,0.0,0.0,0.0,0.0,0.0,0.0,0.0,0.0,0.0,0.0,0.0,0.0,0.0,0.0,0.0,0.0,0.0,0.0,0.0,0.0,0.0,0.0,0.0,0.0,0.0,0.0,0.0,0.0,0.0,0.0,0.0,0.0,0.0,0.0,0.0,0.0,0.0,0.0,0.0,0.0,0.0,0.0,0.0,0.0,0.0,0.0,0.0,0.0,0.0,0.0,0.0,0.0,0.0,0.0,0.0,0.0,0.0,0.0,0.0,0.0,0.0,0.0,0.0,0.0,0.0,0.0,0.0,0.0,0.0,0.0,0.0,0.0,0.0,0.0,0.0,0.0,0.0,0.0,0.0,0.0,0.0,0.0,0.0,0.0,0.0,0.0,0.0,0.0,0.0,0.0,0.0,0.0,0.0,0.0,0.0,0.0,0.0,0.0,0.0,0.0,0.0,0.0,0.0,0.0,0.0,0.0,0.0,0.0,0.0,0.0,0.0,0.0,0.0,0.0,0.0,0.0,0.0,0.0,0.0,0.0,0.0,0.0,0.0,0.0,0.0,0.0,0.0,0.0,0.0,0.0,0.0,0.0,0.0,0.0,0.0,0.0,0.0,0.0,0.0,0.0,0.0,0.0,0.0,0.0,0.0,0.0,0.0,0.0,0.0,0.0,0.0,0.0,0.0,0.0,0.0,0.0,0.0,0.0,0.0,0.0,0.0,0.0,0.0,0.0,0.0,0.0,0.0,0.0,0.0,0.0,0.0,0.0,0.0,0.0,0.0,0.0,0.0,0.0,0.0,0.0,0.0,0.0,0.0,0.0,0.0,0.0,0.0,0.0,0.0,0.0,0.0,0.0,0.0,0.0,0.0,0.0,0.0,0.0,0.0,0.0,0.0,0.0,0.0,0.0,0.0,0.0,0.0,0.0,0.0,0.0,0.0,0.0,0.0,0.0,0.0,0.0,0.0,0.0,0.0,0.0,0.0,0.0,0.0,0.0,0.0,0.0,0.0,0.0,0.0,0.0,0.0,0.0,0.0,0.0,0.0,0.0,0.0,0.0,0.0,0.0,0.0,0.0,0.0,0.0,0.0,0.0,0.0,0.0,0.0,0.0,0.0,0.0,0.0,0.0,0.0,0.0,0.0,0.0,0.0,0.0,0.0,0.0,0.0,0.0,0.0,0.0,0.0,0.0,0.0,0.0,0.0,0.0,0.0,0.0,0.0,0.0,0.0,0.0,0.0,0.0,0.0,0.0,0.0,0.0,0.0,0.0,0.0,0.0,0.0,0.0,0.0,0.0,0.0,0.0,0.0,0.0,0.0,0.0,0.0,0.0,0.0,0.0,0.0,0.0,0.0,0.0,0.0,0.0,0.0,0.0,0.0,0.0,0.0,0.0,0.0,0.0,0.0,0.0,0.0,0.0,0.0,0.0,0.0,0.0,0.0,0.0,0.0,0.0,0.0,0.0,0.0,0.0,0.0,0.0,0.0,0.0,0.0,0.0,0.0,0.0,0.0,0.0,0.0,0.0,0.0,0.0,0.0,0.0,0.0,0.0,0.0,0.0,0.0,0.0,0.0,0.0,0.0,0.0,0.0,0.0,0.0,0.0,0.0,0.0,0.0,0.0,0.0,0.0,0.0,0.0,0.0,0.0,0.0,0.0,0.0,0.0,0.0,0.0,0.0,0.0,0.0,0.0,0.0,0.0,0.0,0.0,0.0,0.0,0.0,0.0,0.0,0.0,0.0,0.0,0.0,0.0,0.0,0.0,0.0,0.0,0.0,0.0,0.0,0.0,0.0,0.0,0.0,0.0,0.0,0.0,0.0,0.0,0.0,0.0,0.0,0.0,0.0,0.0,0.0,0.0,0.0,0.0,0.0,0.0,0.0,0.0,0.0,0.0,0.0,0.0,0.0,0.0,0.0,0.0,0.0,0.0,0.0,0.0,0.0,0.0,0.0,0.0,0.0,0.0,0.0,0.0,0.0,0.0,0.0,0.0,0.0,0.0,0.0,0.0,0.0,0.0,0.0,0.0,0.0,0.0,0.0,0.0,0.0,0.0,0.0,0.0,0.0,0.0,0.0,0.0,0.0,0.0,0.0,0.0,0.0,0.0,0.0,0.0,0.0,0.0,0.0,0.0,0.0,0.0,0.0,0.0,0.0,0.0,0.0,0.0,0.0,0.0,0.0,0.0,0.0,0.0,0.0,0.0,0.0,0.0,0.0,0.0,0.0,0.0,0.0,0.0,0.0,0.0,0.0,0.0,0.0,0.0,0.0,0.0,0.0,0.0,0.0,0.0,0.0,0.0,0.0,0.0,0.0,0.0,0.0,0.0,0.0,0.0,0.0,0.0,0.0,0.0,0.0,0.0,0.0,0.0,0.0,0.0,0.0,0.0,0.0,0.0,0.0,0.0,0.0,0.0,0.0,0.0,0.0,0.0,0.0,0.0,0.0,0.0,0.0,0.0,0.0,0.0,0.0,0.0,0.0,0.0,0.0,0.0,0.0,0.0,0.0,0.0,0.0,0.0,0.0,0.0,0.0,0.0,0.0,0.0,0.0,0.0,0.0,0.0,0.0,0.0,0.0,0.0,0.0,0.0,0.0,0.0,0.0,0.0,0.0,0.0,0.5247,0.0,0.0,0.0,0.0,0.0,0.0,0.0,0.0,0.0,0.0,0.0,0.0,0.0,0.0,0.0,0.0,0.0,0.0,0.0,0.0,0.0,0.0,0.0,0.0,0.0,0.0,0.0,0.0,0.0,0.0,0.0,0.0,0.0,0.0,0.0,0.0,0.0,0.0,0.0,0.0,0.0,0.0,0.0,0.0,0.0,0.0,0.0,0.0,0.0,0.0,0.0,0.0,0.0,0.0,0.0,0.0,0.0,0.0,0.0,0.0,0.0,0.0,0.0,0.0,0.0,0.0,0.0,0.0,0.0,0.0,0.0,0.0,0.0,0.0,0.0,0.0,0.0,0.0,0.0,0.0,0.0,0.0,0.0,0.0,0.0,0.0,0.0,0.0,0.0,0.0,0.0,0.0,0.0,0.0,0.0,0.0,0.0,0.0,0.0,0.0,0.0,0.0,0.0,0.0,0.0,0.0,0.0,0.0,0.0,0.0,0.4669,0.5208,0.5466,0.5675,0.5883,0.0,0.0,0.0,0.0,0.0,0.0,0.0,0.0,0.0,0.0,0.0,0.0,0.0,0.0,0.0,0.0,0.0,0.0,0.0,0.0,0.0,0.0,0.0,0.0,0.0,0.0,0.0,0.0,0.0,0.0,0.0,0.0,0.0,0.0,0.0,0.0,0.0,0.0,0.0,0.0,0.0,0.0,0.0,0.0,0.0,0.0,0.0,0.0,0.0,0.0,0.0,0.0,0.0,0.0,0.0,0.0,0.0,0.0,0.0,0.0,0.0,0.0,0.0,0.0,0.0,0.0,0.0,0.0,0.0,0.0,0.0,0.0,0.0,0.0,0.0,0.0,0.0,0.0,0.0,0.0,0.0,0.0,0.0,0.0,0.0,0.0,0.0,0.0,0.0,0.0,0.0,0.0,0.0,0.0,0.0,0.0,0.0,0.0,0.0,0.0,0.0,0.0,0.0,0.0,0.0,0.0,0.0,0.0,0.0,0.0,0.0,0.0,0.6026,0.6273,0.6544,0.0,0.0,0.0,0.0,0.0,0.0,0.0,0.0,0.0,0.0,0.0,0.0,0.0,0.0,0.0,0.0,0.0,0.0,0.0,0.0,0.0,0.0,0.0,0.0,0.0,0.0,0.0,0.0,0.0,0.0,0.0,0.0,0.0,0.0,0.0,0.0,0.0,0.0,0.0,0.0,0.0,0.0,0.0,0.0,0.0,0.0,0.0,0.0,0.0,0.0,0.0,0.0,0.0,0.0,0.0,0.0,0.0,0.0,0.0,0.0,0.0,0.0,0.0,0.0,0.0,0.0,0.0,0.0,0.0,0.0,0.0,0.0,0.0,0.0,0.0,0.0,0.0,0.0,0.0,0.0,0.0,0.0,0.0,0.0,0.0,0.0,0.0,0.0,0.0,0.0,0.0,0.0,0.0,0.0,0.0,0.0,0.0,0.0,0.0,0.0,0.0,0.0,0.0,0.0,0.0,0.0,0.0,0.0,0.0,0.0,0.5624,0.6293,0.6534,0.0,0.6977,0.0,0.0,0.0,0.0,0.0,0.0,0.0,0.0,0.0,0.0,0.0,0.0,0.0,0.0,0.0,0.0,0.0,0.0,0.0,0.0,0.0,0.0,0.0,0.0,0.0,0.0,0.0,0.0,0.0,0.0,0.0,0.0,0.0,0.0,0.0,0.0,0.0,0.0,0.0,0.0,0.0,0.0,0.0,0.0,0.0,0.0,0.0,0.0,0.0,0.0,0.0,0.0,0.0,0.0,0.0,0.0,0.0,0.0,0.0,0.0,0.0,0.0,0.0,0.0,0.0,0.0,0.0,0.0,0.0,0.0,0.0,0.0,0.0,0.0,0.0,0.0,0.0,0.0,0.0,0.0,0.0,0.0,0.0,0.0,0.0,0.0,0.0,0.0,0.0,0.0,0.0,0.0,0.0,0.0,0.0,0.0,0.0,0.0,0.0,0.0,0.0,0.0,0.0,0.0,0.0,0.0,0.0,0.0,0.0,0.0,0.6187,0.6712,0.6977,0.7241,0.0,0.0,0.0,0.0,0.0,0.0,0.0,0.0,0.0,0.0,0.0,0.0,0.0,0.0,0.0,0.0,0.0,0.0,0.0,0.0,0.0,0.0,0.0,0.0,0.0,0.0,0.0,0.0,0.0,0.0,0.0,0.0,0.0,0.0,0.0,0.0,0.0,0.0,0.0,0.0,0.0,0.0,0.0,0.0,0.0,0.0,0.0,0.0,0.0,0.0,0.0,0.0,0.0,0.0,0.0,0.0,0.0,0.0,0.0,0.0,0.0,0.0,0.0,0.0,0.0,0.0,0.0,0.0,0.0,0.0,0.0,0.0,0.0,0.0,0.0,0.0,0.0,0.0,0.0,0.0,0.0,0.0,0.0,0.0,0.0,0.0,0.0,0.0,0.0,0.0,0.0,0.0,0.0,0.0,0.0,0.0,0.0,0.0,0.0,0.0,0.0,0.0,0.0,0.0,0.0,0.0,0.0,0.0,0.0,0.0,0.6196,0.6707,0.7085,0.7413,0.7681,0.7836,0.0,0.0,0.0,0.0,0.0,0.0,0.0,0.0,0.0,0.0,0.0,0.0,0.0,0.0,0.0,0.0,0.0,0.0,0.0,0.0,0.0,0.0,0.0,0.0,0.0,0.0,0.0,0.0,0.0,0.0,0.0,0.0,0.0,0.0,0.0,0.0,0.0,0.0,0.0,0.0,0.0,0.0,0.0,0.0,0.0,0.0,0.0,0.0,0.0,0.0,0.0,0.0,0.0,0.0,0.0,0.0,0.0,0.0,0.0,0.0,0.0,0.0,0.0,0.0,0.0,0.0,0.0,0.0,0.0,0.0,0.0,0.0,0.0,0.0,0.0,0.0,0.0,0.0,0.0,0.0,0.0,0.0,0.0,0.0,0.0,0.0,0.0,0.0,0.0,0.0,0.0,0.0,0.0,0.0,0.0,0.0,0.0,0.0,0.0,0.0,0.0,0.0,0.0,0.0,0.0,0.0,0.0,0.0,0.6312,0.6712,0.7144,0.7622,0.7842,0.8008,0.0,0.0,0.0,0.0,0.0,0.0,0.0,0.0,0.0,0.0,0.0,0.0,0.0,0.0,0.0,0.0,0.0,0.0,0.0,0.0,0.0,0.0,0.0,0.0,0.0,0.0,0.0,0.0,0.0,0.0,0.0,0.0,0.0,0.0,0.0,0.0,0.0,0.0,0.0,0.0,0.0,0.0,0.0,0.0,0.0,0.0,0.0,0.0,0.0,0.0,0.0,0.0,0.0,0.0,0.0,0.0,0.0,0.0,0.0,0.0,0.0,0.0,0.0,0.0,0.0,0.0,0.0,0.0,0.0,0.0,0.0,0.0,0.0,0.0,0.0,0.0,0.0,0.0,0.0,0.0,0.0,0.0,0.0,0.0,0.0,0.0,0.0,0.0,0.0,0.0,0.0,0.0,0.0,0.0,0.0,0.0,0.0,0.0,0.0,0.0,0.0,0.0,0.0,0.0,0.0,0.0,0.0,0.0,0.0,0.6712,0.7257,0.7681,0.8002,0.8162,0.8321,0.0,0.0,0.0,0.0,0.0,0.0,0.0,0.0,0.0,0.0,0.0,0.0,0.0,0.0,0.0,0.0,0.0,0.0,0.0,0.0,0.0,0.0,0.0,0.0,0.0,0.0,0.0,0.0,0.0,0.0,0.0,0.0,0.0,0.0,0.0,0.0,0.0,0.0,0.0,0.0,0.0,0.0,0.0,0.0,0.0,0.0,0.0,0.0,0.0,0.0,0.0,0.0,0.0,0.0,0.0,0.0,0.0,0.0,0.0,0.0,0.0,0.0,0.0,0.0,0.0,0.0,0.0,0.0,0.0,0.0,0.0,0.0,0.0,0.0,0.0,0.0,0.0,0.0,0.0,0.0,0.0,0.0,0.0,0.0,0.0,0.0,0.0,0.0,0.0,0.0,0.0,0.0,0.0,0.0,0.0,0.0,0.0,0.0,0.0,0.0,0.0,0.0,0.0,0.0,0.0,0.0,0.0,0.0,0.0,0.7203,0.0,0.8062,0.8268,0.8374,0.8474,0.0,0.0,0.0,0.0,0.0,0.0,0.0,0.0,0.0,0.0,0.0,0.0,0.0,0.0,0.0,0.0,0.0,0.0,0.0,0.0,0.0,0.0,0.0,0.0,0.0,0.0,0.0,0.0,0.0,0.0,0.0,0.0,0.0,0.0,0.0,0.0,0.0,0.0,0.0,0.0,0.0,0.0,0.0,0.0,0.0,0.0,0.0,0.0,0.0,0.0,0.0,0.0,0.0,0.0,0.0,0.0,0.0,0.0,0.0,0.0,0.0,0.0,0.0,0.0,0.0,0.0,0.0,0.0,0.0,0.0,0.0,0.0,0.0,0.0,0.0,0.0,0.0,0.0,0.0,0.0,0.0,0.0,0.0,0.0,0.0,0.0,0.0,0.0,0.0,0.0,0.0,0.0,0.0,0.0,0.0,0.0,0.0,0.0,0.0,0.0,0.0,0.0,0.0,0.0,0.0,0.0,0.0,0.0,0.7257,0.7848,0.8109,0.8275,0.8368,0.8421,0.8474,0.0,0.0,0.0,0.0,0.0,0.0,0.0,0.0,0.0,0.0,0.0,0.0,0.0,0.0,0.0,0.0,0.0,0.0,0.0,0.0,0.0,0.0,0.0,0.0,0.0,0.0,0.0,0.0,0.0,0.0,0.0,0.0,0.0,0.0,0.0,0.0,0.0,0.0,0.0,0.0,0.0,0.0,0.0,0.0,0.0,0.0,0.0,0.0,0.0,0.0,0.0,0.0,0.0,0.0,0.0,0.0,0.0,0.0,0.0,0.0,0.0,0.0,0.0,0.0,0.0,0.0,0.0,0.0,0.0,0.0,0.0,0.0,0.0,0.0,0.0,0.0,0.0,0.0,0.0,0.0,0.0,0.0,0.0,0.0,0.0,0.0,0.0,0.0,0.0,0.0,0.0,0.0,0.0,0.0,0.0,0.0,0.0,0.0,0.0,0.0,0.0,0.0,0.0,0.0,0.0,0.0,0.0,0.0,0.0,0.8115,0.8368,0.8474,0.8527,0.8639,0.8699,0.0,0.0,0.0,0.0,0.0,0.0,0.0,0.0,0.0,0.0,0.0,0.0,0.0,0.0,0.0,0.0,0.0,0.0,0.0,0.0,0.0,0.0,0.0,0.0,0.0,0.0,0.0,0.0,0.0,0.0,0.0,0.0,0.0,0.0,0.0,0.0,0.0,0.0,0.0,0.0,0.0,0.0,0.0,0.0,0.0,0.0,0.0,0.0,0.0,0.0,0.0,0.0,0.0,0.0,0.0,0.0,0.0,0.0,0.0,0.0,0.0,0.0,0.0,0.0,0.0,0.0,0.0,0.0,0.0,0.0,0.0,0.0,0.0,0.0,0.0,0.0,0.0,0.0,0.0,0.0,0.0,0.0,0.0,0.0,0.0,0.0,0.0,0.0,0.0,0.0,0.0,0.0,0.0,0.0,0.0,0.0,0.0,0.0,0.0,0.0,0.0,0.0,0.0,0.0,0.0,0.0,0.0,0.0,0.0,0.8586,0.8633,0.8738,0.8844,0.885,0.8857,0.8857,0.0,0.0,0.0,0.0,0.0,0.0,0.0,0.0,0.0,0.0,0.0,0.0,0.0,0.0,0.0,0.0,0.0,0.0,0.0,0.0,0.0,0.0,0.0,0.0,0.0,0.0,0.0,0.0,0.0,0.0,0.0,0.0,0.0,0.0,0.0,0.0,0.0,0.0,0.0,0.0,0.0,0.0,0.0,0.0,0.0,0.0,0.0,0.0,0.0,0.0,0.0,0.0,0.0,0.0,0.0,0.0,0.0,0.0,0.0,0.0,0.0,0.0,0.0,0.0,0.0,0.0,0.0,0.0,0.0,0.0,0.0,0.0,0.0,0.0,0.0,0.0,0.0,0.0,0.0,0.0,0.0,0.0,0.0,0.0,0.0,0.0,0.0,0.0,0.0,0.0,0.0,0.0,0.0,0.0,0.0,0.0,0.0,0.0,0.0,0.0,0.0,0.0,0.0,0.0,0.0,0.0,0.0,0.0,0.9211,0.9008,0.8962,0.9211,0.9113,0.9015,0.0,0.0,0.0,0.0,0.0,0.0,0.0,0.0,0.0,0.0,0.0,0.0,0.0,0.0,0.0,0.0,0.0,0.0,0.0,0.0,0.0,0.0,0.0,0.0,0.0,0.0,0.0,0.0,0.0,0.0,0.0,0.0,0.0,0.0,0.0,0.0,0.0,0.0,0.0,0.0,0.0,0.0,0.0,0.0,0.0,0.0,0.0,0.0,0.0,0.0,0.0,0.0,0.0,0.0,0.0,0.0,0.0,0.0,0.0,0.0,0.0,0.0,0.0,0.0,0.0,0.0,0.0,0.0,0.0,0.0,0.0,0.0,0.0,0.0,0.0,0.0,0.0,0.0,0.0,0.0,0.0,0.0,0.0,0.0,0.0,0.0,0.0,0.0,0.0,0.0,0.0,0.0,0.0,0.0,0.0,0.0,0.0,0.0,0.0,0.0,0.0,0.0,0.0,0.0,0.0,0.0,0.0,0.0,0.0,0.9636,0.9584,0.948,0.9361,0.9309,0.9256,0.0,0.0,0.0,0.0,0.0,0.0,0.0,0.0,0.0,0.0,0.0,0.0,0.0,0.0,0.0,0.0,0.0,0.0,0.0,0.0,0.0,0.0,0.0,0.0,0.0,0.0,0.0,0.0,0.0,0.0,0.0,0.0,0.0,0.0,0.0,0.0,0.0,0.0,0.0,0.0,0.0,0.0,0.0,0.0,0.0,0.0,0.0,0.0,0.0,0.0,0.0,0.0,0.0,0.0,0.0,0.0,0.0,0.0,0.0,0.0,0.0,0.0,0.0,0.0,0.0,0.0,0.0,0.0,0.0,0.0,0.0,0.0,0.0,0.0,0.0,0.0,0.0,0.0,0.0,0.0,0.0,0.0,0.0,0.0,0.0,0.0,0.0,0.0,0.0,0.0,0.0,0.0,0.0,0.0,0.0,0.0,0.0,0.0,0.0,0.0,0.0,0.0,0.0,0.0,0.0,0.0,0.0,0.0,0.9629,1.011,1.0058,0.9947,0.9784,0.9569,0.9458,0.0,0.0,0.0,0.0,0.0,0.0,0.0,0.0,0.0,0.0,0.0,0.0,0.0,0.0,0.0,0.0,0.0,0.0,0.0,0.0,0.0,0.0,0.0,0.0,0.0,0.0,0.0,0.0,0.0,0.0,0.0,0.0,0.0,0.0,0.0,0.0,0.0,0.0,0.0,0.0,0.0,0.0,0.0,0.0,0.0,0.0,0.0,0.0,0.0,0.0,0.0,0.0,0.0,0.0,0.0,0.0,0.0,0.0,0.0,0.0,0.0,0.0,0.0,0.0,0.0,0.0,0.0,0.0,0.0,0.0,0.0,0.0,0.0,0.0,0.0,0.0,0.0,0.0,0.0,0.0,0.0,0.0,0.0,0.0,0.0,0.0,0.0,0.0,0.0,0.0,0.0,0.0,0.0,0.0,0.0,0.0,0.0,0.0,0.0,0.0,0.0,0.0,0.0,0.0,0.0,0.0,0.0,0.0,1.011,1.0514,1.0419,1.0368,1.0324,0.988,0.9666,0.0,0.0,0.0,0.0,0.0,0.0,0.0,0.0,0.0,0.0,0.0,0.0,0.0,0.0,0.0,0.0,0.0,0.0,0.0,0.0,0.0,0.0,0.0,0.0,0.0,0.0,0.0,0.0,0.0,0.0,0.0,0.0,0.0,0.0,0.0,0.0,0.0,0.0,0.0,0.0,0.0,0.0,0.0,0.0,0.0,0.0,0.0,0.0,0.0,0.0,0.0,0.0,0.0,0.0,0.0,0.0,0.0,0.0,0.0,0.0,0.0,0.0,0.0,0.0,0.0,0.0,0.0,0.0,0.0,0.0,0.0,0.0,0.0,0.0,0.0,0.0,0.0,0.0,0.0,0.0,0.0,0.0,0.0,0.0,0.0,0.0,0.0,0.0,0.0,0.0,0.0,0.0,0.0,0.0,0.0,0.0,0.0,0.0,0.0,0.0,0.0,0.0,0.0,0.0,0.0,0.0,0.0,0.0,1.0514,1.0828,1.0769,1.0718,1.0616,1.0316,1.0051,0.0,0.0,0.0,0.0,0.0,0.0,0.0,0.0,0.0,0.0,0.0,0.0,0.0,0.0,0.0,0.0,0.0,0.0,0.0,0.0,0.0,0.0,0.0,0.0,0.0,0.0,0.0,0.0,0.0,0.0,0.0,0.0,0.0,0.0,0.0,0.0,0.0,0.0,0.0,0.0,0.0,0.0,0.0,0.0,0.0,0.0,0.0,0.0,1.3373,0.0,0.0,0.0,0.0,0.0,0.0,0.0,0.0,0.0,0.0,0.0,0.0,0.0,0.0,0.0,0.0,0.0,0.0,0.0,0.0,0.0,0.0,0.0,0.0,0.0,0.0,0.0,0.0,0.0,0.0,0.0,0.0,0.0,0.0,0.0,0.0,0.0,0.0,0.0,0.0,0.0,0.0,0.0,0.0,0.0,0.0,0.0,0.0,0.0,0.0,0.0,0.0,0.0,0.0,0.0,0.0,0.0,0.0,0.0,1.0769,1.0972,1.0922,1.0871,1.0769,1.0667,1.0419,0.0,0.0,0.0,0.0,0.0,0.0,0.0,0.0,0.0,0.0,0.0,0.0,0.0,0.0,0.0,0.0,0.0,0.0,0.0,0.0,0.0,0.0,0.0,0.0,0.0,0.0,0.0,0.0,0.0,0.0,0.0,0.0,0.0,0.0,0.0,0.0,0.0,0.0,0.0,0.0,0.0,0.0,0.0,0.0,0.0,0.0,0.0,0.0,0.0,0.0,0.0,0.0,0.0,0.0,0.0,0.0,0.0,0.0,0.0,0.0,0.0,0.0,0.0,0.0,0.0,0.0,0.0,0.0,0.0,0.0,0.0,0.0,0.0,0.0,0.0,0.0,0.0,0.0,0.0,0.0,0.0,0.0,0.0,0.0,0.0,0.0,0.0,0.0,0.0,0.0,0.0,0.0,0.0,0.0,0.0,0.0,0.0,0.0,0.0,0.0,0.0,0.0,0.0,0.0,0.0,0.0,0.0,1.0922,1.1023,1.1175,1.1074,1.0972,1.0972,1.0922,1.0769,1.0419,0.0,0.0,0.0,0.0,0.0,0.0,0.0,0.0,0.0,0.0,0.0,0.0,0.0,0.0,0.0,0.0,0.0,0.0,0.0,0.0,0.0,0.0,0.0,0.0,0.0,0.0,0.0,0.0,0.0,0.0,0.0,0.0,0.0,0.0,0.0,0.0,0.0,0.0,1.1387,1.2593,0.0,0.0,0.0,0.0,0.0,0.0,0.0,0.0,1.4587,0.0,0.0,0.0,0.0,0.0,0.0,0.0,0.0,0.0,0.0,0.0,0.0,0.0,0.0,0.0,0.0,0.0,0.0,0.0,0.0,0.0,0.0,0.0,0.0,0.0,0.0,0.0,0.0,0.0,0.0,0.0,0.0,0.0,0.0,0.0,0.0,0.0,0.0,0.0,0.0,0.0,0.0,0.0,0.0,0.0,0.0,0.0,0.0,0.0,0.0,0.0,0.0,0.0,0.0,0.0,0.0,1.1175,1.1226,1.1377,1.1569,1.1469,1.1377,1.1217,1.1124,1.0972,1.0769,0.0,0.0,0.0,0.0,0.0,0.0,0.0,0.0,0.0,0.0,0.0,0.0,0.0,0.0,0.0,0.0,0.0,0.0,0.0,0.0,0.0,0.0,0.0,0.0,0.0,0.0,0.0,0.0,0.0,0.0,0.0,0.0,0.0,0.0,0.0,0.0,0.0,0.0,0.0,1.4241,1.4856,0.0,0.0,0.0,0.0,0.0,0.0,0.0,0.0,1.5858,0.0,0.0,0.0,0.0,0.0,0.0,0.0,0.0,0.0,0.0,0.0,0.0,0.0,0.0,0.0,0.0,0.0,0.0,0.0,0.0,0.0,0.0,0.0,0.0,0.0,0.0,0.0,0.0,0.0,0.0,0.0,0.0,0.0,0.0,0.0,0.0,0.0,0.0,0.0,0.0,0.0,0.0,0.0,0.0,0.0,0.0,0.0,0.0,0.0,0.0,0.0,0.0,0.0,0.0,0.0,1.1377,1.1469,1.1569,1.1669,1.1628,1.1528,1.1427,1.1318,1.1226,0.0,0.0,0.0,0.0,0.0,0.0,0.0,0.0,0.0,0.0,0.0,0.0,0.0,0.0,0.0,0.0,0.0,0.0,0.0,0.0,0.0,0.0,0.0,0.0,0.0,0.0,0.0,0.0,0.0,0.0,0.0,0.0,0.0,0.0,0.0,0.0,0.0,0.0,0.0,0.0,1.5204,1.5875,1.5991,0.0,0.0,0.0,0.0,0.0,0.0,1.7235,1.7302,0.0,0.0,0.0,0.0,0.0,0.0,0.0,0.0,0.0,0.0,0.0,0.0,0.0,0.0,0.0,0.0,0.0,0.0,0.0,0.0,0.0,0.0,0.0,0.0,0.0,0.0,0.0,0.0,0.0,0.0,0.0,0.0,0.0,0.0,0.0,0.0,0.0,0.0,0.0,0.0,0.0,0.0,0.0,0.0,0.0,0.0,0.0,0.0,0.0,0.0,0.0,0.0,0.0,0.0,0.0,1.1569,1.1669,1.1778,1.1769,1.1769,1.1669,1.1519,1.1519,1.1368,0.0,0.0,0.0,0.0,0.0,0.0,0.0,0.0,0.0,0.0,0.0,0.0,0.0,0.0,0.0,0.0,0.0,0.0,0.0,0.0,0.0,0.0,0.0,0.0,0.0,0.0,0.0,0.0,0.0,0.0,0.0,0.0,0.0,0.0,0.0,0.0,0.0,0.0,0.0,0.0,0.0,1.6713,1.7066,1.7166,0.0,0.0,0.0,0.0,1.7915,1.8323,0.0,0.0,0.0,0.0,0.0,0.0,0.0,0.0,0.0,0.0,0.0,0.0,0.0,0.0,0.0,0.0,0.0,0.0,0.0,0.0,0.0,0.0,0.0,0.0,0.0,0.0,0.0,0.0,0.0,0.0,0.0,0.0,0.0,0.0,0.0,0.0,0.0,0.0,0.0,0.0,0.0,0.0,0.0,0.0,0.0,0.0,0.0,0.0,0.0,0.0,0.0,0.0,0.0,0.0,0.0,0.0,1.1828,1.1868,1.1927,1.2036,1.1927,1.1819,1.1669,1.1569,1.1427,0.0,0.0,0.0,0.0,0.0,0.0,0.0,0.0,0.0,0.0,0.0,0.0,0.0,0.0,0.0,0.0,0.0,0.0,0.0,0.0,0.0,0.0,0.0,0.0,0.0,0.0,0.0,0.0,0.0,0.0,0.0,0.0,0.0,0.0,0.0,0.0,0.0,0.0,0.0,0.0,0.0,1.7573,1.7429,1.7744,1.792,0.0,0.0,1.8211,1.8405,1.8698,0.0,0.0,0.0,0.0,0.0,0.0,0.0,0.0,0.0,0.0,0.0,0.0,0.0,0.0,0.0,0.0,0.0,0.0,0.0,0.0,0.0,0.0,0.0,0.0,0.0,0.0,0.0,0.0,0.0,0.0,0.0,0.0,0.0,0.0,0.0,0.0,0.0,0.0,0.0,0.0,0.0,0.0,0.0,0.0,0.0,0.0,0.0,0.0,0.0,0.0,0.0,0.0,0.0,0.0,0.0,1.1927,1.2126,1.2076,1.2036,1.2076,1.2026,1.1927,1.1719,1.1728,1.1578,0.0,0.0,0.0,0.0,0.0,0.0,0.0,0.0,0.0,0.0,0.0,0.0,0.0,0.0,0.0,0.0,0.0,0.0,0.0,0.0,0.0,0.0,0.0,0.0,0.0,0.0,0.0,0.0,0.0,0.0,0.0,0.0,0.0,0.0,0.0,0.0,0.0,0.0,0.0,0.0,0.0,0.0,1.8433,1.8596,0.0,0.0,0.0,1.9222,1.977,0.0,0.0,0.0,0.0,0.0,0.0,0.0,0.0,0.0,0.0,0.0,0.0,0.0,0.0,0.0,0.0,0.0,0.0,0.0,0.0,0.0,0.0,0.0,0.0,0.0,0.0,0.0,0.0,0.0,0.0,0.0,0.0,0.0,0.0,0.0,0.0,0.0,0.0,0.0,0.0,0.0,0.0,0.0,0.0,0.0,0.0,0.0,0.0,0.0,0.0,0.0,0.0,0.0,0.0,0.0,0.0,0.0,1.2332,1.2234,1.2126,1.2126,1.2135,1.1977,1.1778,1.1828,0.0,0.0,0.0,0.0,0.0,0.0,0.0,0.0,0.0,0.0,0.0,0.0,0.0,0.0,0.0,0.0,0.0,0.0,0.0,0.0,0.0,0.0,0.0,0.0,0.0,0.0,0.0,1.2252,0.0,0.0,0.0,0.0,0.0,0.0,0.0,0.0,0.0,0.0,0.0,0.0,0.0,0.0,1.8218,1.9215,1.9274,1.9389,0.0,0.0,1.9997,2.0687,2.0774,2.0448,0.0,0.0,0.0,0.0,0.0,0.0,0.0,0.0,0.0,0.0,0.0,0.0,0.0,0.0,0.0,0.0,0.0,0.0,0.0,0.0,0.0,0.0,0.0,0.0,0.0,0.0,0.0,0.0,0.0,0.0,0.0,0.0,0.0,0.0,0.0,0.0,0.0,0.0,0.0,0.0,0.0,0.0,0.0,0.0,0.0,0.0,0.0,0.0,0.0,0.0,0.0,0.0,0.0,0.0,0.0,1.2471,1.2372,1.2274,1.2274,1.2175,1.2026,1.1877,1.1927,1.1778,0.0,0.0,0.0,0.0,0.0,0.0,0.0,0.0,0.0,0.0,0.0,0.0,0.0,0.0,0.0,0.0,0.0,0.0,0.0,0.0,0.0,0.0,0.0,0.0,0.0,0.0,0.0,0.0,0.0,0.0,0.0,0.0,0.0,0.0,0.0,0.0,0.0,0.0,0.0,0.0,0.0,1.853,1.9477,1.955,1.955,0.0,0.0,2.0118,2.039,2.0691,2.0637,1.979,0.0,0.0,0.0,0.0,0.0,0.0,0.0,0.0,0.0,0.0,0.0,0.0,0.0,0.0,0.0,0.0,0.0,0.0,0.0,0.0,0.0,0.0,0.0,0.0,0.0,0.0,0.0,0.0,0.0,0.0,0.0,0.0,0.0,0.0,0.0,0.0,0.0,0.0,0.0,0.0,0.0,0.0,0.0,0.0,0.0,0.0,0.0,0.0,0.0,0.0,0.0,0.0,0.0,1.29,1.2725,1.2627,1.248,1.2431,1.2382,1.2234,1.2026,1.2135,1.1927,0.0,0.0,0.0,0.0,0.0,0.0,0.0,0.0,0.0,0.0,0.0,0.0,0.0,0.0,0.0,0.0,0.0,0.0,0.0,0.0,0.0,0.0,0.0,0.0,0.0,0.0,0.0,0.0,1.4154,1.4175,1.4368,0.0,0.0,0.0,0.0,0.0,0.0,0.0,0.0,0.0,0.0,1.9124,1.9705,1.9802,0.0,0.0,2.0325,2.0499,2.1061,2.1031,2.0728,2.0179,2.0136,0.0,0.0,0.0,0.0,0.0,0.0,0.0,0.0,0.0,0.0,0.0,0.0,0.0,0.0,0.0,0.0,0.0,0.0,0.0,0.0,0.0,0.0,0.0,0.0,0.0,0.0,0.0,0.0,0.0,0.0,0.0,0.0,0.0,0.0,0.0,0.0,0.0,0.0,0.0,0.0,0.0,0.0,0.0,0.0,0.0,0.0,0.0,0.0,0.0,0.0,0.0,0.0,1.3286,1.3113,1.292,1.2725,1.2627,1.2578,1.2431,1.2184,1.2274,1.2076,0.0,0.0,0.0,0.0,0.0,0.0,0.0,0.0,0.0,0.0,0.0,0.0,0.0,0.0,0.0,0.0,0.0,0.0,0.0,0.0,0.0,0.0,0.0,0.0,0.0,0.0,0.0,0.0,1.5227,1.5091,1.5455,0.0,0.0,0.0,0.0,0.0,0.0,0.0,0.0,0.0,0.0,1.9709,2.0074,2.014,2.0325,2.0798,2.0686,2.0705,2.1303,2.113,2.0859,2.0492,0.0,0.0,0.0,0.0,0.0,0.0,0.0,0.0,0.0,0.0,0.0,0.0,0.0,0.0,0.0,0.0,0.0,0.0,0.0,0.0,0.0,0.0,0.0,0.0,0.0,0.0,0.0,0.0,0.0,0.0,1.5579,0.0,0.0,0.0,0.0,0.0,0.0,0.0,0.0,0.0,0.0,0.0,0.0,0.0,0.0,0.0,0.0,0.0,0.0,0.0,0.0,0.0,0.0,1.3726,1.3573,1.322,1.2978,1.2871,1.2783,1.2578,1.2323,1.2283,1.2126,1.1678,0.0,0.0,0.0,0.0,0.0,0.0,0.0,0.0,0.0,0.0,0.0,0.0,0.0,0.0,0.0,0.0,0.0,0.0,0.0,0.0,0.0,0.0,0.0,0.0,0.0,0.0,1.6629,1.5949,1.5528,0.0,0.0,0.0,0.0,0.0,0.0,0.0,0.0,0.0,0.0,1.9896,2.0086,2.059,2.0669,2.068,2.0691,2.0797,2.0914,2.0926,2.1106,2.0986,0.0,0.0,0.0,0.0,0.0,0.0,0.0,0.0,0.0,0.0,0.0,0.0,0.0,0.0,0.0,0.0,0.0,0.0,0.0,0.0,0.0,0.0,0.0,0.0,0.0,0.0,0.0,1.807,1.7544,0.0,0.0,0.0,0.0,0.0,0.0,0.0,0.0,0.0,0.0,0.0,1.5969,1.5976,0.0,0.0,0.0,0.0,0.0,0.0,0.0,0.0,0.0,0.0,0.0,0.0,1.4564,1.438,1.4027,1.3628,1.3104,1.3027,1.2783,1.2421,1.2421,1.2254,1.1904,0.0,0.0,0.0,0.0,0.0,0.0,0.0,0.0,0.0,0.0,0.0,0.0,0.0,0.0,0.0,0.0,0.0,0.0,0.0,0.0,0.0,0.0,0.0,0.0,0.0,1.5966,0.0,0.0,0.0,0.0,0.0,0.0,0.0,0.0,0.0,0.0,0.0,1.972,2.007,2.0387,2.0583,2.0711,2.0786,2.085,0.0,0.0,0.0,0.0,0.0,0.0,0.0,0.0,0.0,0.0,0.0,0.0,0.0,0.0,2.2255,2.0312,1.9772,1.9621,1.9435,0.0,0.0,0.0,0.0,0.0,0.0,0.0,0.0,0.0,0.0,0.0,0.0,0.0,0.0,1.9371,0.0,1.8445,0.0,0.0,0.0,0.0,0.0,0.0,0.0,0.0,1.6625,1.6595,1.6565,1.6582,1.6552,0.0,1.6565,1.6306,0.0,0.0,0.0,0.0,0.0,0.0,0.0,0.0,1.5406,1.5207,1.4795,1.4264,1.3587,1.3431,1.3126,1.2539,1.2513,1.2419,1.2227,1.1822,1.154,0.0,0.0,0.0,0.0,0.0,0.0,0.0,0.0,0.0,0.0,0.0,0.0,0.0,0.0,0.0,0.0,0.0,0.0,0.0,0.0,0.0,0.0,0.0,1.6588,0.0,0.0,0.0,0.0,0.0,0.0,0.0,0.0,0.0,1.926,1.9867,2.0346,2.054,2.0825,2.0967,2.085,0.0,0.0,0.0,0.0,0.0,0.0,0.0,2.1751,2.1751,2.1751,2.1816,2.1892,2.2753,2.3522,2.3921,0.0,0.0,2.1146,2.0611,2.0358,2.0118,1.9913,1.9761,1.976,1.9644,1.9528,0.0,0.0,0.0,0.0,0.0,0.0,0.0,0.0,2.0443,2.014,0.0,1.9065,0.0,0.0,0.0,0.0,0.0,1.724,0.0,0.0,1.724,1.7186,1.7186,1.7186,1.7157,1.7031,1.6989,1.6846,1.6547,1.62,0.0,0.0,0.0,0.0,0.0,0.0,1.6233,1.603,1.5517,1.4883,1.4265,1.4023,1.3461,1.2605,1.254,1.2547,1.261,1.2248,1.1913,1.1583,1.1429,0.0,0.0,0.0,0.0,0.0,0.0,0.0,0.0,0.0,0.0,0.0,0.0,0.0,0.0,0.0,0.0,0.0,0.0,0.0,0.0,1.6663,0.0,0.0,0.0,0.0,0.0,0.0,0.0,0.0,0.0,0.0,2.0458,2.0469,2.0641,2.1187,0.0,0.0,0.0,0.0,2.1388,2.1881,2.195,2.2122,2.2581,2.2662,2.273,2.265,0.0,0.0,2.3317,2.3649,2.3867,2.3645,2.3601,2.3439,2.3056,2.2315,2.1616,2.116,2.0594,2.0075,2.0029,2.0056,1.9886,2.5513,0.0,0.0,0.0,0.0,2.2528,2.2271,2.1982,2.1974,2.1563,2.0873,2.0172,0.0,0.0,0.0,0.0,0.0,0.0,1.7706,1.7706,1.772,1.7706,1.7706,1.7706,1.7584,1.7365,1.7365,1.7395,1.7496,1.7289,1.7023,1.6654,0.0,0.0,0.0,0.0,1.6863,1.6696,1.6169,1.5564,1.4945,1.4563,1.4106,1.3404,1.3101,1.3031,1.3142,1.2866,1.2639,1.2533,1.2549,0.0,0.0,0.0,0.0,0.0,0.0,0.0,0.0,0.0,0.0,0.0,0.0,0.0,0.0,0.0,0.0,0.0,0.0,0.0,1.6629,1.7069,1.7278,0.0,0.0,0.0,0.0,0.0,0.0,0.0,0.0,0.0,2.1445,2.1491,2.1548,0.0,0.0,2.2237,2.2249,2.2249,2.2306,2.2444,2.2467,0.0,0.0,2.2809,2.2889,2.2889,2.3159,2.3546,2.413,2.4306,2.4506,2.4945,2.4828,2.4627,2.4658,2.3881,2.3191,2.2987,2.2687,2.248,2.2467,2.1952,2.1463,2.6454,2.5646,2.5176,2.4555,2.392,2.3542,2.3236,2.3014,2.2922,2.2478,2.1778,2.0854,2.0147,1.9628,1.8683,0.0,0.0,0.0,1.8043,1.7989,1.8003,1.8043,1.8003,1.7989,1.8031,1.8057,1.8042,1.8169,1.8432,1.8513,1.8341,1.7969,0.0,0.0,1.8362,1.81,1.7881,1.7652,1.7159,1.6383,1.5521,1.4816,1.4272,1.3948,1.3636,1.3548,1.3646,1.3429,1.3237,1.3103,1.3103,1.3103,0.0,0.0,0.0,0.0,0.0,0.0,0.0,0.0,0.0,0.0,0.0,1.5951,0.0,0.0,0.0,0.0,1.6751,1.6976,1.7179,1.7487,0.0,0.0,0.0,0.0,0.0,0.0,0.0,2.0928,2.1273,2.1652,2.2157,2.233,2.2455,2.226,2.2478,2.2673,2.2673,0.0,2.2754,2.2949,2.3052,2.3179,2.3387,2.3618,2.3895,2.4113,2.4306,2.4607,2.5196,2.5338,2.5517,2.5889,2.5878,2.5802,2.603,2.5473,2.4863,2.4349,2.4042,2.3833,2.3803,2.3048,2.239,2.6973,2.6572,2.5957,2.5589,2.5339,2.4614,2.4135,2.3782,2.3348,2.2994,2.2608,2.1197,2.0543,2.0331,1.9025,0.0,1.8311,1.8353,1.8434,1.8381,1.8394,1.8394,1.8394,1.8381,1.8617,1.9002,1.8945,1.9044,1.9373,1.9666,1.9716,1.9451,1.8921,1.8788,1.9047,1.9042,1.8952,1.8703,1.82,1.7294,1.5941,1.4888,1.4334,1.4383,1.4223,1.4102,1.4052,1.389,1.3718,1.3363,1.3338,1.345,1.3571,0.0,0.0,0.0,0.0,0.0,0.0,0.0,0.0,0.0,0.0,0.0,0.0,0.0,0.0,0.0,1.7043,0.0,1.759,1.8,0.0,0.0,0.0,1.9546,2.0148,2.0373,2.0825,2.1766,0.0,0.0,2.2626,2.3064,2.3201,2.281,2.281,2.28,2.28,2.2914,2.2972,2.3442,2.3699,2.3979,2.4282,2.4567,2.4975,2.5497,2.5844,2.5859,2.612,2.6269,2.64,2.6511,2.6642,2.6629,2.6854,2.678,2.6563,2.5203,2.4785,2.4475,2.4452,2.3668,2.2864,2.7006,2.664,2.6137,2.5775,2.5492,2.4831,2.4343,2.3994,2.3581,2.3231,2.2786,2.1785,2.0713,1.9641,1.9428,1.9287,1.9274,1.9836,2.0089,2.0075,2.0089,2.0034,1.995,1.9964,1.9936,1.9892,1.9791,1.9874,2.0219,2.0053,2.0009,2.0102,1.9623,1.9494,1.974,1.9173,1.8838,1.8703,1.7991,1.7132,1.6074,1.5575,1.5186,1.4819,1.4634,1.4446,1.4267,1.4207,1.4079,1.383,1.395,1.401,1.407,1.4647,0.0,0.0,0.0,0.0,0.0,0.0,0.0,0.0,0.0,1.6374,1.6384,0.0,1.6627,0.0,1.7301,1.7812,1.8238,1.8372,0.0,0.0,1.9558,2.0018,2.0193,2.0682,2.1078,2.1307,2.1828,2.2182,2.2298,2.2884,2.322,2.3103,2.3549,2.3833,2.3833,2.3987,2.4105,2.4174,2.4436,2.4602,2.4342,2.4294,2.4602,2.5119,2.5327,2.5445,2.5691,2.582,2.5935,2.6153,2.6153,2.6231,2.644,2.6488,2.6369,2.6037,2.6059,2.6025,2.5602,2.4624,2.3789,2.6989,2.6657,2.626,2.5901,2.5567,2.495,2.4508,2.4162,2.3754,2.3348,2.2995,2.2031,2.0983,1.988,1.9936,2.0019,2.0047,2.0499,2.0684,2.0698,2.0613,2.0571,2.0529,2.0458,2.0556,2.0664,2.0531,2.0716,2.1035,2.0697,2.0518,2.0472,2.0334,2.0329,2.0385,1.9569,1.8998,1.876,1.7944,1.7259,1.6804,1.6345,1.5841,1.5355,1.5006,1.4666,1.4369,1.4327,1.4258,1.4079,1.4309,1.4488,1.4556,1.5079,1.5468,0.0,0.0,0.0,0.0,0.0,0.0,0.0,0.0,0.0,0.0,0.0,1.7051,1.771,1.8126,1.8554,1.9057,1.9319,1.957,1.9855,2.0373,2.0795,2.0869,2.1197,2.1516,2.1737,2.2133,2.2467,2.269,2.3148,2.3392,2.3404,2.3777,2.3933,2.3793,2.3921,2.4003,2.4003,2.4339,2.4599,2.4432,2.4538,2.473,2.5256,2.5447,2.556,2.5798,2.591,2.5972,2.6109,2.6109,2.6162,2.6294,2.629,2.6329,2.6331,2.644,2.6375,2.5949,2.5076,2.4215,2.6989,2.6624,2.6312,2.5901,2.5492,2.5021,2.4605,2.4261,2.3824,2.3421,2.3143,2.2061,2.121,2.0526,2.0613,2.0642,2.0656,2.0855,2.0941,2.0941,2.0798,2.0755,2.0769,2.0654,2.0936,2.1414,2.1234,2.1421,2.1793,2.1375,2.101,2.0753,2.0952,2.1062,2.0925,2.0105,1.943,1.8988,1.8006,1.7606,1.7667,1.7012,1.6396,1.5898,1.5393,1.4918,1.4611,1.4455,1.4318,1.4249,1.4606,1.4834,1.502,1.5498,1.5778,0.0,1.6056,0.0,0.0,0.0,0.0,0.0,0.0,0.0,0.0,1.7008,1.7688,1.8805,1.9136,1.9516,2.003,2.0497,2.0813,2.0895,2.1269,2.1537,2.1761,2.1773,2.1926,2.2362,2.2538,2.2846,2.3191,2.3454,2.3586,2.3603,2.3615,2.3532,2.328,2.3423,2.3542,2.3513,2.3808,2.4292,2.4643,2.4811,2.4975,2.5439,2.5572,2.5788,2.5927,2.6075,2.6102,2.6102,2.6049,2.6075,2.6129,2.6115,2.6129,2.6084,2.604,2.6002,2.5713,2.5153,2.4445,2.6808,2.6418,2.6082,2.5733,2.5333,2.4942,2.4605,2.4261,2.3809,2.3246,2.268,2.1957,2.1437,2.1147,2.1264,2.1308,2.1336,2.1953,2.2257,2.2257,2.2212,2.2152,2.2062,2.203,2.2041,2.2002,2.1769,2.1744,2.1793,2.1277,2.1123,2.1328,2.1093,2.0995,2.0994,0.0,0.0,0.0,1.8354,1.78,1.7688,1.7193,1.6717,1.6403,1.5875,0.0,1.5261,1.4833,1.4656,1.4597,1.4911,0.0,0.0,0.0,0.0,0.0,0.0,0.0,0.0,0.0,0.0,0.0,1.744,1.7384,1.7008,1.7913,1.8919,1.9842,2.0189,2.0519,2.1092,2.1176,2.1416,2.1858,2.2002,2.2061,2.2135,2.2073,2.2121,2.2255,2.2392,2.2541,2.2774,2.296,2.3109,2.3269,2.3207,2.3194,2.317,2.357,2.3899,2.403,2.4075,2.4267,2.4653,2.4477,2.4411,2.4577,2.4811,2.5025,2.5039,2.5212,2.5256,2.527,2.5216,2.5256,2.5256,2.5216,2.5314,2.5281,2.5279,2.5324,2.5409,2.5223,2.4845,2.7735,0.0,2.7022,2.6675,0.0,2.6009,2.5617,2.5229,2.4154,2.3348,2.2709,2.2271,2.1993,2.1857,2.1917,2.1931,2.1945,2.2381,2.2615,2.2601,2.2523,2.2463,2.237,2.2324,2.2263,2.217,2.1996,2.1841,2.1712,2.1524,2.1416,2.142,2.1533,2.1494,2.1262,2.0926,2.0372,1.9697,1.8841,1.8344,1.8222,1.7718,1.7288,1.6912,1.6432,0.0,0.0,0.0,0.0,0.0,0.0,0.0,0.0,0.0,0.0,1.6239,1.6374,1.6477,1.6684,1.6821,1.7137,1.7687,1.8267,1.8511,1.8371,1.916,1.9969,2.0828,2.1134,2.1599,2.2174,2.2235,2.2346,2.2628,2.2665,2.2665,2.2665,2.2665,2.2653,2.2665,2.2775,2.2909,2.2957,2.315,2.3271,2.333,2.3318,2.3318,2.3368,2.3541,2.3729,2.3867,2.3976,2.4137,2.4352,2.4334,2.4261,2.4478,2.4708,2.4765,2.4808,2.4948,2.5005,2.5005,2.5005,2.5005,2.5005,2.5005,2.5005,2.5005,2.5005,2.503,2.5181,2.5087,2.4895,2.8507,2.8379,2.7947,2.7607,2.7374,2.7024,2.6572,2.6077,0.0,0.0,0.0,2.2991,2.278,2.254,2.254,2.247,2.237,2.2477,2.2509,2.2523,2.2417,2.2356,2.237,2.2278,2.2184,2.2184,2.203,2.1862,2.1745,2.1824,2.1773,2.169,2.2096,2.2067,2.1596,2.114,2.0572,1.9813,1.9275,1.8898,1.8787,1.8233,1.78,1.749,1.6941,1.6481,1.6071,1.5852,1.5683,1.5557,1.5713,1.5858,1.6124,1.6306,1.6415,1.6498,1.6498,1.6694,1.7069,1.734,1.7719,1.847,1.9298,1.9801,1.991,2.037,2.0993,2.1797,2.2167,2.2543,2.316,2.3198,2.3198,2.3185,2.3198,2.3198,2.3198,2.3185,2.3198,2.3198,2.333,2.3463,2.3463,2.3569,2.3628,2.3688,2.3688,2.3688,2.37,2.3633,2.3577,2.371,2.3863,2.4021,2.4112,2.4332,2.4478,2.4708,2.4778,2.4892,2.4948,2.5005,2.5005,2.5102,2.5075,2.5075,2.5102,2.5089,2.5061,2.5061,2.5061,2.5061,2.5061,2.5018,2.4862,2.7777,2.805,2.7688,2.7358,2.7047,2.6689,2.6244,2.5678,2.5188,2.4751,2.4261,2.4261,2.3786,2.3019,2.3019,2.2724,2.2231,2.2231,2.2278,2.2263,2.2231,2.2231,2.2231,2.2231,2.2123,2.203,2.1888,2.1938,2.2133,2.1898,2.2048,2.2605,2.2464,2.2135,2.1634,2.1175,2.0537,1.9901,1.9444,1.9079,1.8808,1.8412,1.8113,1.79,1.751,1.7191,1.6908,1.6562,1.6249,1.5996,1.6167,1.6168,1.6087,1.6337,1.655,1.6912,1.6894,1.709,1.7605,1.7749,1.8441,1.9649,2.0625,2.1005,2.0756,2.12,2.1893,2.2758,2.3072,2.3301,2.3509,2.3497,2.3497,2.3509,2.3509,2.3509,2.3497,2.3569,2.3569,2.3509,2.3556,2.3641,2.3772,2.3832,2.3891,2.3995,2.3995,2.3995,2.3995,2.3936,2.3832,2.3891,2.4086,2.4247,2.4292,2.4536,2.4721,2.4778,2.4892,2.4948,2.5005,2.5005,2.5075,2.5396,2.5285,2.5229,2.5381,2.5452,2.5383,2.5425,2.5425,2.5439,2.5383,2.5383,2.5257,2.8345,2.8444,2.848,2.8291,2.7992,2.7426,2.6919,2.6431,2.6182,2.5537,2.4667,2.444,2.4085,2.3703,2.3667,2.3477,2.3259,2.3245,2.3245,2.3245,2.3231,2.3259,2.3196,2.3098,2.3049,2.295,2.2715,2.2549,2.2588,2.2444,2.248,2.27,2.2374,2.1994,2.1451,2.0978,2.0453,1.9736,1.9539,1.9208,1.8684,1.8482,1.8269,1.8008,1.7812,1.7541,1.7307,1.7122,1.6875,1.6683,1.6735,1.6819,1.6999,1.7049,1.7202,1.7337,1.7358,1.7554,1.8061,1.8702,1.9434,2.0414,2.1135,2.162,2.1703,2.2104,2.2635,2.3185,2.3522,2.3713,2.3865,2.3878,2.3878,2.3878,2.3878,2.3878,2.3878,2.3878,2.3878,2.3865,2.3878,2.3878,2.3995,2.4008,2.4008,2.4125,2.4125,2.4125,2.4112,2.4099,2.4112,2.4151,2.4229,2.4408,2.4553,2.4694,2.4835,2.4892,2.4948,2.5005,2.5005,2.5075,2.5229,2.5409,2.5424,2.5397,2.5535,2.5494,2.5536,2.5494,2.5508,2.5494,2.5508,2.5508,2.5383,2.877,2.871,2.9048,2.9013,2.8637,2.7959,2.7488,2.7078,2.6817,2.611,2.5142,2.4753,2.4515,2.4388,2.4315,2.4244,2.4132,2.4118,2.4103,2.4118,2.4118,2.4067,2.4016,2.3863,2.3761,2.3644,2.3294,2.3044,2.2949,2.2903,2.2777,2.2523,2.2274,2.18,2.1221,2.085,2.0346,1.9681,1.955,1.9208,1.8549,1.8482,1.8279,1.8008,1.8008,1.7852,1.7549,1.7586,1.751,1.7359,1.7382,1.7531,1.7678,1.7678,1.7709,1.7864,1.7885,1.8134,1.8635,1.9457,2.0248,2.0903,2.1463,2.1975,2.2469,2.2848,2.315,2.3403,2.37,2.3949,2.4054,2.4125,2.4164,2.4269,2.4308,2.4413,2.4478,2.44,2.4308,2.4308,2.4204,2.4125,2.4125,2.4125,2.4125,2.4125,2.4125,2.4112,2.4157,2.4261,2.4332,2.4371,2.4403,2.4523,2.4768,2.5,2.5094,2.5208,2.5371,2.5297,2.5243,2.5303,2.5531,2.5685,2.5715,2.5702,2.5661,2.5605,2.5605,2.5645,2.5632,2.5592,2.5605,2.5605,2.555,2.8023,2.8407,2.876,2.8542,2.7875,2.7539,2.7181,2.6832,2.65,2.6229,2.5937,2.5941,2.5533,2.499,2.4896,2.4667,2.4202,2.4132,2.416,2.4174,2.4118,2.4016,2.3933,2.384,2.3606,2.3321,2.3137,2.311,2.3132,2.2871,2.2748,2.2603,2.2161,2.171,2.1256,2.0884,2.0357,1.9615,1.9417,1.9075,1.8549,1.8405,1.8202,1.8008,1.8008,1.7998,1.793,1.8152,1.8078,1.7885,1.7954,1.79,1.775,1.7688,1.7916,1.8278,1.8319,1.8656,1.9412,1.9824,2.0377,2.1094,2.1612,2.2161,2.2787,2.315,2.3403,2.3607,2.3785,2.3949,2.4067,2.4151,2.4374,2.4844,2.4896,2.5092,2.5432,2.5197,2.4896,2.4943,2.4517,2.4125,2.4243,2.4243,2.4204,2.4295,2.4249,2.4282,2.4445,2.449,2.4593,2.474,2.4775,2.4818,2.4946,2.5382,2.5738,2.5846,2.6267,2.6061,2.57,2.6072,2.6754,2.6606,2.6285,2.6399,2.6091,2.5853,2.5937,2.6063,2.6021,2.5867,2.5853,2.5853,2.5743,2.7349,2.7425,2.8202,2.8125,2.7423,2.7144,2.6817,2.6472,2.6286,2.6111,2.5948,2.5893,2.5753,2.5528,2.5514,2.5374,2.5149,2.5149,2.5096,2.5043,2.5043,2.4936,2.4789,2.4613,2.4382,2.4121,2.3801,2.3568,2.3457,2.3365,2.3157,2.2844,2.2815,2.2514,2.1921,2.1654,2.1184,2.0445,1.9897,1.9342,1.8912,1.8534,1.8202,1.8008,1.8008,1.8008,1.8008,1.8202,1.8257,1.8298,1.841,1.8516,1.8526,1.8526,1.8599,1.8764,1.8861,1.9141,1.9584,1.9998,2.0506,2.1169,2.1737,2.2297,2.2836,2.3271,2.3697,2.4146,2.4144,2.4171,2.4557,2.4609,2.4857,2.5341,2.5471,2.5576,2.5759,2.5628,2.5484,2.5445,2.5275,2.5105,2.5045,2.4905,2.4892,2.5005,2.4918,2.4888,2.5222,2.5455,2.5595,2.5792,2.595,2.581,2.5594,2.5991,2.6435,2.6603,2.6813,2.6619,2.647,2.6676,2.7398,2.7879,2.7551,2.7272,2.7109,2.7004,2.7003,2.6905,2.6582,2.6441,2.6436,2.6129,2.5867,2.6804,2.6669,2.7575,2.7645,2.7078,2.6817,2.6539,2.6244,2.6096,2.5948,2.5839,2.5674,2.5688,2.5798,2.5798,2.5798,2.5798,2.5798,2.5743,2.5633,2.5578,2.5508,2.5313,2.5005,2.4778,2.4576,2.4315,2.4056,2.386,2.3791,2.3558,2.322,2.3292,2.3001,2.2469,2.2125,2.164,2.0988,2.024,1.9735,1.9354,1.8874,1.838,1.8037,1.8008,1.8008,1.8076,1.8279,1.8414,1.8549,1.8741,1.8942,1.9065,1.9131,1.9131,1.9142,1.9208,1.9351,1.9605,2.0074,2.0658,2.1169,2.1812,2.2505,2.3095,2.3619,2.4176,2.4896,2.4758,2.4792,2.4979,2.5171,2.5432,2.5879,2.6033,2.6086,2.6282,2.619,2.6073,2.6059,2.585,2.5811,2.5735,2.5644,2.5618,2.5657,2.5657,2.5694,2.6083,2.6254,2.6411,2.6647,2.685,2.6776,2.6364,2.6714,2.7121,2.7366,2.7495,2.7721,2.7459,2.7811,2.8138,2.8686,2.8372,2.7977,2.7641,2.7696,2.782,2.7708,2.7426,2.7103,2.7115,2.6594,2.6272,2.6423,2.6137,2.6872,2.7063,2.6779,2.6592,2.6365,2.6056,2.5948,2.5839,2.5674,2.5536,2.5494,2.5508,2.5522,2.5508,2.555,2.5494,2.5481,2.5494,2.5313,2.5131,2.4991,2.4708,2.439,2.4295,2.4352,2.4368,2.4375,2.4149,2.3911,2.3634,2.3262,2.2776,2.2399,2.1937,2.1371,2.1034,2.0452,1.9981,1.9847,1.9456,1.8799,1.8164,1.8027,1.8105,1.8269,1.8405,1.8549,1.8731,1.8942,1.9065,1.9131,1.9131,1.9131,1.9131,1.9208,1.9417,1.9637,2.0183,2.0714,2.1215,2.193,2.2738,2.3804,2.4238,2.4803,2.5683,2.5657,2.5543,2.5405,2.5608,2.5931,2.6323,2.6595,2.6857,2.7327,2.6896,2.6674,2.6569,2.6255,2.6046,2.5916,2.6156,2.6172,2.6146,2.6334,2.6587,2.6521,2.6551,2.6762,2.6979,2.7298,2.7466,2.7031,2.7379,2.7769,2.7989,2.8374,2.8899,2.9045,2.9171,2.9369,2.9412,2.8979,2.8524,2.8032,2.7849,2.7992,2.7977,2.7933,2.7738,2.7767,2.7216,2.6835,2.6378,2.6574,2.6688,2.6539,2.6233,2.615,2.5948,2.5702,2.5647,2.5522,2.5397,2.523,2.5131,2.5046,2.5181,2.5256,2.5327,2.5188,2.5131,2.5073,2.5226,2.5213,2.5063,2.5096,2.5049,2.4867,2.4734,2.4478,2.4235,2.4274,2.4174,2.3904,2.3828,2.3578,2.3138,2.2694,2.2196,2.165,2.0968,2.0447,2.0102,1.957,1.9121,1.8838,1.8555,1.835,1.8279,1.8405,1.8607,1.8808,1.8998,1.9131,1.9131,1.9131,1.9131,1.9131,1.9341,1.9677,2.0076,2.0654,2.1395,2.2099,2.2781,2.3466,2.4176,2.476,2.5356,2.6025,2.6309,2.6387,2.6557,2.6492,2.6582,2.6987,2.713,2.7275,2.7432,2.734,2.7223,2.7183,2.7027,2.6922,2.6857,2.704,2.704,2.6935,2.7235,2.7402,2.7517,2.7618,2.7678,2.7886,2.8125,2.822,2.8175,2.8266,2.8502,2.8732,2.901,2.9178,2.9373,2.9435,2.9572,2.9543,2.9285,2.9125,2.8689,2.875,2.8707,2.8736,2.8647,2.8422,2.834,2.783,2.7551,2.6263,2.6753,2.6457,2.615,2.5893,2.5729,2.5578,2.5369,2.5313,2.5188,2.4991,2.4821,2.4801,2.4856,2.4932,2.5084,2.5284,2.5226,2.5167,2.5135,2.5342,2.5332,2.5262,2.529,2.5307,2.5141,2.4943,2.462,2.4481,2.4614,2.4505,2.412,2.4112,2.3897,2.3446,2.3001,2.2553,2.1952,2.1357,2.0828,2.0401,2.0013,1.9629,1.9473,1.9262,1.9061,1.8864,1.8841,1.8897,1.908,1.9091,1.9131,1.9131,1.9131,1.9204,1.9339,1.9638,2.0041,2.0535,2.1204,2.1958,2.2627,2.3349,2.3983,2.4694,2.5254,2.5936,2.6544,2.6843,2.7144,2.734,2.717,2.7118,2.7458,2.7469,2.7469,2.7469,2.7469,2.7523,2.7497,2.7471,2.743,2.7469,2.7443,2.7497,2.7469,2.7736,2.7947,2.8079,2.8249,2.843,2.8587,2.8519,2.8597,2.8579,2.868,2.8898,2.9066,2.9205,2.9449,2.954,2.9602,2.9602,2.9602,2.9602,2.9602,2.9602,2.9602,2.9602,2.9588,2.935,2.9026,2.8811,2.8456,2.8254,2.6081,2.6428,2.6042,2.5893,2.5784,2.5397,2.5174,2.5118,2.4905,2.4691,2.4571,2.4403,2.4629,2.4857,2.4909,2.5042,2.5467,2.5621,2.5644,2.5566,2.5558,2.5547,2.5484,2.5307,2.5113,2.4931,2.4865,2.499,2.5168,2.5063,2.4766,2.4261,2.4061,2.3794,2.3056,2.2778,2.225,2.1859,2.1456,2.1118,2.0896,2.0556,2.0273,1.9961,2.0108,2.0058,1.9897,1.9666,1.9561,1.9717,1.9375,1.9106,1.9189,1.9189,1.9323,1.9765,2.0112,2.0493,2.1026,2.171,2.2274,2.2846,2.3352,2.4299,2.5202,2.5836,2.6449,2.6982,2.7311,2.751,2.751,2.7471,2.7458,2.7469,2.7469,2.7469,2.7469,2.7469,2.7469,2.7469,2.7469,2.7469,2.7469,2.7469,2.7536,2.7603,2.7815,2.8079,2.8158,2.8392,2.8587,2.8587,2.8587,2.8651,2.8844,2.8972,2.9149,2.9352,2.9463,2.9602,2.9602,2.9602,2.9602,2.9602,2.9602,2.9602,2.9602,2.9602,2.9665,2.9651,2.9504,2.9476,2.9279,2.9026,2.8844,2.5941,2.6042,2.5605,2.5342,2.5216,2.4878,2.4694,2.4593,2.4363,2.44,2.4596,2.4588,2.4806,2.5163,2.5422,2.5588,2.5779,2.611,2.5997,2.555,2.5704,2.5753,2.5752,2.5829,2.5679,2.535,2.5184,2.5143,2.5159,2.5058,2.4865,2.47,2.4509,2.4293,2.3874,2.3449,2.2862,2.208,2.1658,2.1204,2.0771,2.0654,2.0498,2.0468,2.0678,2.0837,2.0762,2.0297,2.0042,2.0213,2.0089,2.0006,1.9986,2.0006,2.0069,2.0193,2.0425,2.0846,2.1474,2.2062,2.2775,2.3461,2.4167,2.4809,2.5453,2.6163,2.6659,2.7066,2.7335,2.7469,2.7469,2.7469,2.7469,2.7469,2.7469,2.7469,2.7469,2.7469,2.7469,2.7469,2.7469,2.7469,2.7469,2.7469,2.7523,2.7656,2.7934,2.8145,2.8249,2.8457,2.8587,2.8587,2.8651,2.8716,2.8908,2.9099,2.9226,2.9415,2.954,2.9602,2.9602,2.9602,2.9602,2.9617,2.9617,2.9602,2.9665,2.9713,2.9727,2.9741,2.9699,2.9713,2.9693,2.9538,2.9346,2.566,2.5619,2.516,2.4878,2.4765,2.4421,2.4366,2.4419,2.4268,2.4425,2.4754,2.4782,2.4963,2.5279,2.5539,2.5737,2.5895,2.6177,2.602,2.5589,2.5883,2.5937,2.5907,2.5933,2.5975,2.5826,2.5624,2.5444,2.528,2.5211,2.507,2.4833,2.4681,2.4421,2.4136,2.3646,2.3008,2.2381,2.194,2.1579,2.1203,2.1055,2.0977,2.0928,2.1212,2.1356,2.1195,2.0951,2.072,2.0607,2.0524,2.042,2.041,2.04,2.0493,2.0648,2.0844,2.125,2.1881,2.2469,2.3089,2.3829,2.4515,2.5075,2.5594,2.622,2.6645,2.7011,2.7281,2.7469,2.7456,2.7469,2.7469,2.7469,2.7469,2.7469,2.7469,2.7469,2.7469,2.7469,2.7469,2.7469,2.7469,2.7536,2.759,2.7789,2.8,2.8131,2.83,2.843,2.8509,2.8587,2.8651,2.8844,2.9035,2.9226,2.9352,2.9477,2.9602,2.9602,2.9602,2.9602,2.9602,2.9617,2.9631,2.9679,2.9727,2.9837,2.996,2.9913,2.9955,2.9879,2.9879,2.9893,2.9723,2.5328,2.5159,2.4748,2.4598,2.4593,2.4236,2.4343,2.4632,2.45,2.4645,2.4898,2.4858,2.5028,2.5239,2.5345,2.5524,2.5836,2.5943,2.6017,2.5943,2.6087,2.6099,2.5972,2.5895,2.5961,2.6056,2.5872,2.5737,2.5608,2.5604,2.5339,2.4791,2.4664,2.4255,2.396,2.3439,2.3063,2.2583,2.2317,2.205,2.1816,2.1826,2.166,2.1289,2.165,2.1738,2.1534,2.163,2.159,2.1166,2.0803,2.0638,2.0545,2.0503,2.0793,2.1145,2.1313,2.1808,2.2349,2.2907,2.3345,2.3864,2.4426,2.4945,2.5465,2.6013,2.6559,2.7003,2.7275,2.7465,2.7652,2.7704,2.7745,2.7602,2.7589,2.7536,2.7469,2.7469,2.7469,2.7469,2.7469,2.7469,2.7469,2.7469,2.759,2.7789,2.8,2.8118,2.8314,2.8509,2.8587,2.8651,2.8716,2.8844,2.9035,2.9226,2.9352,2.9477,2.9602,2.9602,2.9602,2.9602,2.9665,2.9679,2.9693,2.9803,2.9898,3.0054,3.0172,3.0211,3.0211,3.0154,3.0111,3.0158,3.0172,2.5206,2.5306,2.4952,2.4996,2.5179,2.4871,2.476,2.4887,2.4569,2.4753,2.5124,2.5091,2.5308,2.5709,2.5677,2.5787,2.5853,2.5935,2.6098,2.6237,2.6154,2.6082,2.6178,2.6395,2.6402,2.6245,2.589,2.5743,2.5661,2.5622,2.5369,2.5048,2.512,2.49,2.4346,2.3957,2.3487,2.2898,2.2512,2.2271,2.1953,2.1924,2.1928,2.1984,2.2189,2.2362,2.2391,2.2333,2.2097,2.1673,2.1528,2.1445,2.1414,2.1414,2.1487,2.1652,2.2029,2.2314,2.2724,2.3388,2.3798,2.396,2.4516,2.4935,2.5123,2.5688,2.6375,2.7069,2.7626,2.8071,2.8477,2.8695,2.8595,2.819,2.7837,2.7496,2.7536,2.7469,2.7469,2.7469,2.7469,2.7469,2.7469,2.7536,2.7656,2.7934,2.8066,2.8197,2.8392,2.8522,2.8587,2.8651,2.8716,2.8908,2.9035,2.9289,2.9415,2.954,2.9602,2.9602,2.9602,2.9602,2.9651,2.9713,2.9865,2.9913,3.0162,3.0346,3.043,3.0606,3.0592,3.0626,3.0553,3.0569,3.0553,2.5422,2.5559,2.5117,2.5062,2.5218,2.4924,2.4933,2.5056,2.4896,2.5049,2.5413,2.5362,2.5465,2.5746,2.5676,2.5822,2.5922,2.5887,2.6118,2.6442,2.6395,2.6297,2.63,2.6439,2.6412,2.6302,2.6026,2.5927,2.5893,2.5769,2.5541,2.5254,2.5167,2.4871,2.4498,2.41,2.3664,2.3176,2.2869,2.2637,2.2432,2.2412,2.2463,2.2542,2.2712,2.2909,2.2941,2.2845,2.2573,2.2159,2.1932,2.189,2.2076,2.2087,2.218,2.2356,2.2656,2.286,2.314,2.369,2.3996,2.426,2.4734,2.5119,2.5495,2.5925,2.6698,2.7341,2.7906,2.8453,2.8899,2.9216,2.9118,2.8778,2.8242,2.7798,2.7575,2.7469,2.7469,2.7469,2.7469,2.7469,2.7469,2.7469,2.7669,2.7947,2.8079,2.8276,2.8522,2.8587,2.8587,2.8651,2.878,2.8972,2.9099,2.9289,2.9477,2.954,2.9602,2.9602,2.9602,2.9602,2.9727,2.9837,2.9913,3.0144,3.045,3.0719,3.094,3.1014,3.1043,3.1102,3.1146,3.1101,3.1087,2.5788,2.579,2.5282,2.5062,2.5151,2.48,2.4992,2.5246,2.5185,2.5362,2.5706,2.5594,2.556,2.562,2.5504,2.5625,2.6104,2.5982,2.6166,2.6476,2.6632,2.6581,2.6368,2.6314,2.6288,2.6394,2.6222,2.6102,2.603,2.5957,2.5708,2.5423,2.4953,2.4629,2.4492,2.3984,2.3662,2.3614,2.3438,2.334,2.3252,2.3184,2.3172,2.3202,2.3277,2.3368,2.3423,2.3287,2.307,2.2666,2.2201,2.2242,2.2532,2.2573,2.2729,2.3039,2.3163,2.3338,2.352,2.3837,2.4138,2.4483,2.5083,2.5495,2.5831,2.6356,2.6964,2.757,2.8124,2.8724,2.9228,2.9353,2.9418,2.9274,2.883,2.8242,2.7771,2.7575,2.7469,2.7469,2.7469,2.7469,2.7469,2.7536,2.7656,2.7934,2.8079,2.8262,2.8457,2.8522,2.8587,2.8587,2.878,2.9035,2.9162,2.9352,2.9477,2.9602,2.9602,2.9602,2.9651,2.9713,2.9775,2.9913,3.0097,3.0447,3.0851,3.1131,3.1364,3.1492,3.1595,3.1682,3.1739,3.1675,3.166,2.5678,2.5843,2.558,2.5657,2.5884,2.5704,2.5672,2.5726,2.5575,2.5533,2.5618,2.5348,2.5457,2.5731,2.5597,2.5722,2.6245,2.6177,2.6347,2.6459,2.6737,2.6746,2.6563,2.6563,2.6619,2.6487,2.6157,2.5997,2.5994,2.5883,2.5677,2.5382,2.5347,2.5327,2.4736,2.4496,2.4414,2.4232,2.4111,2.4072,2.3994,2.3779,2.3782,2.4085,2.4161,2.4214,2.4124,2.3908,2.3691,2.3494,2.3194,2.3018,2.3029,2.3039,2.3132,2.3308,2.3577,2.3722,2.3857,2.4294,2.4649,2.474,2.5161,2.5577,2.5739,2.6376,2.7024,2.7645,2.8387,2.9138,3.0028,3.003,2.9933,2.9849,2.9431,2.8843,2.8281,2.7811,2.7615,2.7469,2.7469,2.7469,2.7469,2.7469,2.7603,2.7868,2.8,2.8197,2.8327,2.8509,2.8587,2.8587,2.8716,2.8972,2.9162,2.9352,2.9477,2.9602,2.9602,2.9665,2.9713,2.9837,2.996,3.0144,3.0387,3.0776,3.1309,3.1569,3.1814,3.1951,3.2181,3.2527,3.2737,3.2486,3.2394,2.5978,2.6123,2.589,2.5859,2.6037,2.5828,2.5834,2.5958,2.578,2.5769,2.5876,2.5704,2.5784,2.6032,2.5906,2.6089,2.6403,2.6549,2.668,2.6801,2.6891,2.6925,2.6904,2.6882,2.6838,2.6576,2.6485,2.6303,2.613,2.5908,2.5722,2.5375,2.5451,2.5098,2.4792,2.473,2.4477,2.4385,2.4424,2.4424,2.4365,2.4219,2.4354,2.4716,2.4951,2.4995,2.513,2.4757,2.456,2.4447,2.426,2.3919,2.3577,2.3525,2.3608,2.3846,2.4012,2.4188,2.4355,2.4618,2.4914,2.4975,2.5431,2.5791,2.6086,2.6563,2.7207,2.7837,2.8648,2.9465,3.0495,3.0566,3.0407,3.0438,3.0019,2.9444,2.8869,2.8294,2.7798,2.7628,2.7469,2.7469,2.7469,2.7469,2.759,2.7789,2.8,2.8131,2.83,2.843,2.8587,2.8587,2.8716,2.8908,2.9099,2.9289,2.954,2.9602,2.9602,2.9665,2.9775,2.996,3.0205,3.0401,3.0731,3.1427,3.1928,3.2113,3.2597,3.3207,3.3624,3.3785,3.3841,3.3764,3.3615,2.6358,2.6302,2.6042,2.5963,2.5905,2.5849,2.5937,2.6067,2.5882,2.5922,2.6148,2.623,2.5995,2.6258,2.6182,2.6407,2.6656,2.6826,2.6903,2.6941,2.6971,2.6954,2.7063,2.6995,2.6875,2.6649,2.6547,2.643,2.6183,2.5978,2.5726,2.5473,2.5287,2.5139,2.4967,2.4732,2.4727,2.4766,2.4766,2.4746,2.4687,2.46,2.4769,2.5108,2.535,2.548,2.5589,2.5461,2.5295,2.5326,2.5326,2.4923,2.4436,2.4209,2.4312,2.4726,2.4788,2.4819,2.483,2.4992,2.523,2.5327,2.5678,2.6089,2.6546,2.6883,2.7302,2.7992,2.8664,2.9459,3.047,3.0633,3.0722,3.0794,3.0503,3.0032,2.9483,2.8922,2.8464,2.7654,2.7469,2.7469,2.7469,2.7536,2.759,2.7723,2.7934,2.8145,2.8249,2.843,2.8522,2.8587,2.8651,2.8844,2.9035,2.9352,2.954,2.9602,2.9602,2.9775,2.9941,3.0463,3.0812,3.0789,3.1146,3.1901,3.2657,3.3069,3.3694,3.457,3.482,3.4675,3.4794,3.4998,3.4831,2.598,2.6017,2.6235,2.6214,2.6154,2.6294,2.636,2.624,2.6025,2.5919,2.5947,2.5627,2.5835,2.6007,2.595,2.6152,2.6682,2.6796,2.683,2.6878,2.6856,2.6993,2.6875,2.689,2.6739,2.6451,2.6347,2.6121,2.6001,2.5798,2.5702,2.5501,2.5635,2.5698,2.5506,2.5498,2.5381,2.5342,2.5361,2.5371,2.5322,2.5107,2.5105,2.536,2.5523,2.5757,2.5857,2.5854,2.5771,2.5782,2.5771,2.5678,2.5513,2.5471,2.5533,2.5513,2.5523,2.5482,2.5502,2.5674,2.5805,2.6009,2.6096,2.6249,2.6664,2.7009,2.738,2.7731,2.8522,2.9365,3.0075,3.047,3.0773,3.0872,3.0856,3.0555,3.0085,2.9706,2.9104,2.8033,2.7745,2.7469,2.7469,2.7469,2.7536,2.7656,2.7868,2.8013,2.8197,2.8392,2.8522,2.8587,2.8587,2.8844,2.9035,2.9352,2.9602,2.9602,2.9713,2.9898,3.0287,3.1087,3.145,3.1471,3.1886,3.2645,3.3315,3.3986,3.4632,3.5315,3.5383,3.5404,3.5713,3.5949,3.5953,2.5859,2.5984,2.6094,2.6139,2.6178,2.6188,2.6305,2.6294,2.6083,2.6086,2.6177,2.6086,2.6118,2.6307,2.6599,2.6769,2.6841,2.6737,2.6855,2.6915,2.6971,2.6964,2.6896,2.691,2.6691,2.6482,2.6141,2.601,2.5966,2.5959,2.5763,2.5641,2.5838,2.582,2.5723,2.5693,2.5732,2.5732,2.5732,2.5732,2.5732,2.5478,2.5569,2.5839,2.5936,2.6227,2.6455,2.631,2.6248,2.6237,2.6227,2.6237,2.6289,2.6392,2.6361,2.602,2.5927,2.5906,2.5896,2.5885,2.5934,2.6193,2.6282,2.656,2.6933,2.7361,2.7672,2.8093,2.825,2.9143,2.9856,3.0254,3.0546,3.0773,3.0911,3.0712,3.0333,3.0116,2.9444,2.8529,2.8294,2.8007,2.7469,2.7469,2.7469,2.7603,2.7842,2.8014,2.8212,2.8437,2.8766,2.8668,2.8733,2.8844,2.9035,2.9289,2.954,2.9602,2.9789,2.996,3.0557,3.1282,3.1854,3.2124,3.2764,3.368,3.4342,3.5084,3.5611,3.6005,3.6279,3.6479,3.6738,3.6859,3.6816,2.5745,2.6007,2.5988,2.6083,2.6282,2.6201,2.6232,2.6382,2.6129,2.6169,2.6434,2.629,2.6313,2.6557,2.686,2.7129,2.7149,2.6758,2.6854,2.7006,2.693,2.7004,2.7043,2.686,2.6628,2.6396,2.6118,2.5994,2.6088,2.6031,2.5897,2.5781,2.5713,2.5732,2.5732,2.5732,2.5732,2.5732,2.5732,2.5732,2.5732,2.5732,2.5927,2.641,2.6496,2.6638,2.7022,2.6879,2.6724,2.6713,2.6713,2.6713,2.6765,2.7055,2.69,2.631,2.6165,2.6154,2.6185,2.6227,2.6391,2.6574,2.6557,2.6854,2.7225,2.7623,2.8214,2.8714,2.8772,2.8967,2.9613,2.9919,3.0177,3.0546,3.0735,3.0768,3.0481,3.0259,3.0124,2.9457,2.9,2.8621,2.8281,2.8164,2.8294,2.8294,2.8526,2.869,2.8865,2.896,2.9106,2.8912,2.8879,2.8885,2.9035,2.9289,2.9477,2.9602,2.9803,3.005,3.0733,3.1477,3.2108,3.3021,3.4196,3.5093,3.5641,3.6051,3.6385,3.6782,3.7263,3.746,3.7345,3.7372,3.7425,2.5704,2.5612,2.6275,2.6526,2.6404,2.6634,2.6617,2.6509,2.6097,2.5913,2.5979,2.5592,2.5722,2.6076,2.6504,2.6651,2.6764,2.6788,2.6733,2.6693,2.6763,2.6747,2.6572,2.6294,2.6197,2.61,2.5917,2.5917,2.6004,2.582,2.5732,2.5732,2.5732,2.5732,2.5732,2.5732,2.5732,2.5732,2.5732,2.5732,2.5732,2.5732,2.5917,2.611,2.64,2.6602,2.6986,2.7043,2.7117,2.7127,2.7158,2.7169,2.7189,2.721,2.7241,2.7127,2.7096,2.7096,2.7003,2.6941,2.7025,2.6931,2.6972,2.7101,2.742,2.7766,2.8226,2.8677,2.8785,2.9009,2.9443,2.9729,2.9945,3.0164,3.0457,3.0685,3.0605,3.0498,3.0351,3.0268,2.9784,2.9523,2.9235,2.9157,2.9104,2.9162,2.9193,2.9267,2.9369,2.9428,2.9524,2.9442,2.9318,2.9326,2.9494,2.9605,2.9742,2.9834,3.0148,3.0349,3.1022,3.1886,3.3287,3.4212,3.5355,3.5981,3.6146,3.6497,3.7065,3.7342,3.7464,3.7599,3.7626,3.7759,3.7801,2.5951,2.6062,2.6255,2.6462,2.6481,2.64,2.6313,2.6146,2.5717,2.5549,2.5529,2.5412,2.5714,2.6145,2.6298,2.6526,2.6651,2.666,2.6574,2.6459,2.6471,2.638,2.6187,2.6004,2.5917,2.582,2.583,2.5732,2.582,2.582,2.5732,2.5732,2.5732,2.5732,2.5732,2.5732,2.5732,2.5732,2.5732,2.5732,2.5732,2.5732,2.582,2.61,2.6197,2.6496,2.6794,2.6996,2.7177,2.7272,2.7272,2.7272,2.7262,2.7262,2.7262,2.7262,2.7251,2.7241,2.7241,2.7272,2.7272,2.7347,2.7348,2.7628,2.7985,2.8116,2.8344,2.9061,2.8872,2.9009,2.9224,2.9492,2.9529,2.9749,3.0036,3.0305,3.0533,3.0685,3.068,3.0637,3.0581,3.0281,2.9954,2.9666,2.951,2.9431,2.945,2.9526,2.9631,2.9707,2.9847,3.0052,2.9957,2.9901,3.0129,3.0248,3.0446,3.0653,3.1041,3.1297,3.1507,3.2382,3.3779,3.4941,3.5784,3.6259,3.65,3.6896,3.7326,3.7449,3.748,3.7599,3.77,3.7812,3.7927,2.6039,2.6232,2.6082,2.6225,2.6385,2.5895,2.5728,2.5549,2.5211,2.5019,2.5175,2.5451,2.5846,2.627,2.6288,2.6418,2.6733,2.6496,2.64,2.6294,2.6197,2.6014,2.5907,2.582,2.5732,2.5732,2.5732,2.5732,2.5732,2.5732,2.5732,2.5732,2.5732,2.5732,2.5732,2.5732,2.5732,2.5732,2.5732,2.5732,2.5732,2.5732,2.582,2.5907,2.61,2.6304,2.6699,2.69,2.6986,2.7272,2.7272,2.7272,2.7272,2.7272,2.7272,2.7272,2.7272,2.7272,2.7272,2.7272,2.7272,2.7357,2.7441,2.7746,2.8215,2.8212,2.8404,2.9116,2.9041,2.8953,2.9007,2.9261,2.925,2.9371,2.9555,2.9882,3.0216,3.0381,3.0609,3.067,3.0667,3.0794,3.0455,3.0111,2.9889,2.9784,2.9778,2.981,2.9984,3.0214,3.0317,3.0581,3.0323,3.031,3.046,3.0719,3.0991,3.1369,3.1768,3.2011,3.2048,3.3006,3.443,3.5383,3.6245,3.6568,3.6765,3.7191,3.748,3.7539,3.7539,3.7599,3.7759,3.7854,3.801,2.5497,2.5924,2.5924,2.5852,2.5906,2.5464,2.5115,2.5009,2.4742,2.4743,2.4961,2.5462,2.5765,2.5923,2.6215,2.6406,2.6496,2.6197,2.61,2.6014,2.5917,2.583,2.5723,2.5732,2.5732,2.5732,2.5732,2.5732,2.5762,2.582,2.5781,2.5732,2.5664,2.5742,2.5732,2.5732,2.5732,2.5732,2.5732,2.5732,2.5732,2.5732,2.5732,2.583,2.6014,2.6197,2.6496,2.6699,2.6986,2.7272,2.7272,2.7272,2.7272,2.7272,2.7272,2.7272,2.7272,2.7272,2.7272,2.7272,2.7272,2.7367,2.7452,2.7631,2.7904,2.8466,2.8784,2.887,2.8936,2.9058,2.912,2.906,2.913,2.9126,2.929,2.9534,2.9839,2.9998,3.0241,3.0622,3.0773,3.0849,3.0911,3.0542,3.0424,3.0333,3.0446,3.0406,3.0785,3.1021,3.102,3.107,3.073,3.0635,3.0674,3.0964,3.1461,3.1816,3.2139,3.2279,3.2254,3.3513,3.4973,3.578,3.6554,3.6816,3.706,3.7301,3.748,3.7496,3.7555,3.7689,3.7908,3.8075,3.8189,2.5376,2.5295,2.5137,2.5126,2.5211,2.4956,2.4781,2.4836,2.4604,2.4755,2.5125,2.5485,2.5595,2.5747,2.5885,2.6024,2.6024,2.5927,2.5917,2.582,2.5723,2.5732,2.5732,2.5732,2.5732,2.5732,2.5732,2.5732,2.5742,2.5859,2.5896,2.5877,2.5731,2.5664,2.5732,2.5723,2.5693,2.5674,2.5655,2.5742,2.5732,2.5732,2.5732,2.5732,2.5732,2.6014,2.6207,2.6496,2.6794,2.7081,2.7167,2.7272,2.7272,2.7272,2.7272,2.7272,2.7272,2.7272,2.7272,2.7272,2.7272,2.7357,2.7357,2.7452,2.7536,2.8102,2.8466,2.8669,2.8962,2.9104,2.8946,2.9026,2.9183,2.9042,2.9083,2.925,2.9457,2.965,2.9957,3.0394,3.0611,3.0698,3.0849,3.0872,3.0921,3.0921,3.1048,3.1136,3.1341,3.1509,3.1546,3.1626,3.1327,3.1287,3.1338,3.1621,3.1958,3.2277,3.2591,3.2777,3.2958,3.4112,3.5394,3.6191,3.6723,3.6939,3.7121,3.7301,3.7464,3.7551,3.7673,3.7812,3.7998,3.8237,3.8351,2.5052,2.4807,2.4598,2.4567,2.4646,2.4598,2.4563,2.4583,2.4566,2.4824,2.5352,2.5376,2.5516,2.5674,2.5732,2.5732,2.5732,2.5732,2.5732,2.5732,2.5732,2.5732,2.5732,2.5732,2.5732,2.5732,2.5645,2.5557,2.578,2.6042,2.6006,2.5915,2.5891,2.5804,2.5865,2.5817,2.5817,2.5807,2.577,2.5731,2.5731,2.5693,2.5732,2.5732,2.5732,2.5917,2.61,2.6294,2.6602,2.689,2.7081,2.7177,2.7272,2.7272,2.7272,2.7272,2.7272,2.7272,2.7272,2.7272,2.7272,2.7357,2.7357,2.7357,2.7536,2.7726,2.8102,2.8466,2.8735,2.8892,2.8756,2.8947,2.9033,2.8896,2.8835,2.9011,2.9258,2.9521,2.9849,3.0105,3.0265,3.0394,3.0773,3.0911,3.0986,3.0986,3.0986,3.1149,3.1421,3.1616,3.1736,3.1874,3.1965,3.2019,3.22,3.2269,3.2289,3.2556,3.289,3.3414,3.3946,3.4912,3.5699,3.6471,3.6909,3.7016,3.7136,3.7377,3.7551,3.7648,3.7801,3.7956,3.8113,3.8351,3.8351,2.456,2.4506,2.45,2.4439,2.4359,2.4422,2.4446,2.4336,2.4683,2.4996,2.5261,2.5498,2.5664,2.5732,2.5732,2.5732,2.5732,2.5732,2.5732,2.5732,2.5635,2.5635,2.5635,2.5635,2.5538,2.5635,2.5527,2.5621,2.5881,2.592,2.5897,2.6022,2.606,2.5984,2.6041,2.6041,2.6041,2.6087,2.5901,2.5877,2.5881,2.5867,2.5869,2.5849,2.5957,2.6075,2.6152,2.6229,2.651,2.6709,2.6794,2.6986,2.7177,2.7272,2.7272,2.7262,2.7262,2.7272,2.7272,2.7272,2.7272,2.7272,2.7272,2.7357,2.7357,2.7536,2.7726,2.8102,2.8373,2.8664,2.8745,2.8832,2.8903,2.8857,2.8813,2.8861,2.9197,2.9071,2.9298,2.9744,2.9902,3.0023,3.0546,3.0849,3.0986,3.0986,3.0986,3.1211,3.1447,3.1669,3.1743,3.1936,3.2155,3.2169,3.2241,3.2503,3.2648,3.2931,3.3185,3.3616,3.4187,3.4817,3.5714,3.6689,3.7002,3.7046,3.7212,3.7468,3.77,3.787,3.8059,3.818,3.8351,3.8408,3.8408,2.4547,2.4225,2.4576,2.4585,2.4386,2.4605,2.4733,2.4874,2.5183,2.5467,2.5508,2.5693,2.5732,2.5732,2.5732,2.5732,2.5732,2.5732,2.5732,2.5635,2.5538,2.544,2.543,2.5235,2.5245,2.5223,2.5267,2.5367,2.5629,2.588,2.6163,2.6312,2.6125,2.6147,2.6126,2.6088,2.6078,2.606,2.603,2.6066,2.6056,2.6227,2.6232,2.6222,2.6413,2.6387,2.6271,2.6438,2.6545,2.655,2.6617,2.6876,2.7047,2.7027,2.7102,2.7272,2.7262,2.7272,2.7272,2.7272,2.7272,2.7272,2.7272,2.7272,2.7357,2.7441,2.7631,2.782,2.8102,2.8384,2.8495,2.8822,2.8965,2.899,2.8959,2.9044,2.9097,2.8745,2.8692,2.9213,2.9579,2.9995,3.0534,3.0827,3.0992,3.1222,3.1274,3.1215,3.1373,3.1522,3.173,3.1909,3.2042,3.2155,3.2314,3.2431,3.2632,3.2775,3.3185,3.3644,3.423,3.4802,3.5729,3.6767,3.694,3.7091,3.7348,3.7646,3.7924,3.8123,3.8237,3.8278,3.8351,3.8408,3.8408,2.4636,2.4415,2.475,2.4834,2.4639,2.4834,2.508,2.5303,2.5605,2.5732,2.5723,2.5732,2.5732,2.5732,2.5732,2.5732,2.5732,2.5635,2.5538,2.5538,2.5245,2.5137,2.4941,2.4871,2.4867,2.4871,2.5004,2.5126,2.5629,2.6017,2.6102,2.5982,2.5973,2.5784,2.5815,2.5945,2.6051,2.6129,2.615,2.6201,2.6248,2.6351,2.6349,2.6442,2.6618,2.6744,2.6569,2.6643,2.6754,2.6606,2.6713,2.6858,2.6992,2.7018,2.7043,2.7143,2.7262,2.7272,2.7272,2.7272,2.7272,2.7272,2.7272,2.7272,2.7357,2.7441,2.7536,2.7726,2.8008,2.8207,2.8395,2.8757,2.891,2.8925,2.9009,2.9094,2.9071,2.8676,2.8812,2.9285,2.9484,3.0049,3.0573,3.0804,3.1021,3.1304,3.1498,3.1415,3.1404,3.1514,3.1696,3.1823,3.2028,3.2155,3.2241,3.2359,3.2489,3.2704,3.3115,3.3604,3.4148,3.4721,3.5744,3.6706,3.6894,3.7167,3.7543,3.7881,3.8065,3.8237,3.831,3.8351,3.8408,3.8391,3.8464,2.4812,2.4789,2.5006,2.5088,2.5088,2.5183,2.5332,2.5703,2.5732,2.5732,2.5732,2.5732,2.5732,2.5742,2.5635,2.5635,2.5635,2.544,2.5235,2.5137,2.4941,2.4735,2.4458,2.4405,2.44,2.4445,2.4615,2.4995,2.5742,2.5595,2.5486,2.5454,2.5305,2.5235,2.5292,2.5484,2.5811,2.5928,2.6114,2.6208,2.6259,2.6332,2.6371,2.6456,2.6636,2.6766,2.6763,2.6798,2.7055,2.7088,2.729,2.7182,2.7212,2.7071,2.6996,2.7064,2.7239,2.7249,2.7272,2.7272,2.7272,2.7272,2.7272,2.7272,2.7357,2.7347,2.7452,2.7547,2.7726,2.8019,2.8301,2.8488,2.8581,2.8746,2.9013,2.9087,2.9134,2.9071,2.9289,2.9495,2.9559,3.0052,3.082,3.1176,3.1539,3.1967,3.2227,3.2121,3.1998,3.1726,3.1856,3.1809,3.1955,3.2155,3.2241,3.23,3.2503,3.2632,3.3143,3.3618,3.4148,3.4721,3.5778,3.6551,3.6925,3.7304,3.7764,3.8024,3.8246,3.8319,3.8408,3.8432,3.8472,3.8504,3.8576,2.4977,2.5026,2.5371,2.5547,2.5537,2.5537,2.5625,2.5732,2.5732,2.5732,2.5732,2.5732,2.5635,2.5635,2.5538,2.544,2.5342,2.5147,2.4941,2.4735,2.444,2.4035,2.3836,2.3705,2.3808,2.3997,2.4237,2.4704,2.521,2.5098,2.4844,2.4795,2.4582,2.447,2.447,2.4693,2.5017,2.5423,2.5837,2.6028,2.6344,2.6393,2.6542,2.6639,2.6842,2.6959,2.6893,2.7045,2.7156,2.6894,2.7041,2.7097,2.7361,2.7292,2.7322,2.7344,2.7426,2.7441,2.7345,2.7272,2.7293,2.7334,2.7324,2.7272,2.7272,2.7398,2.7398,2.7452,2.7547,2.7831,2.803,2.8218,2.852,2.8718,2.8883,2.8921,2.9039,2.9045,2.9195,2.9584,2.9676,3.0345,3.1135,3.1829,3.2238,3.2725,3.2922,3.2843,3.2539,3.2243,3.2003,3.1944,3.1969,3.2169,3.2169,3.2241,3.2444,3.2646,3.3143,3.3604,3.4037,3.4721,3.5763,3.6537,3.7154,3.7603,3.8056,3.8237,3.8303,3.8375,3.8464,3.8511,3.8535,3.8639,3.8672,2.5332,2.5371,2.5615,2.5732,2.5732,2.5732,2.5732,2.5732,2.5732,2.5732,2.5742,2.5645,2.5538,2.5538,2.5235,2.503,2.4932,2.4637,2.4332,2.3935,2.3755,2.3471,2.3216,2.3014,2.3184,2.35,2.3733,2.4147,2.4562,2.4616,2.4454,2.4033,2.3929,2.3585,2.3464,2.3585,2.3913,2.4454,2.5101,2.5569,2.6008,2.6336,2.6554,2.6772,2.6989,2.7037,2.6984,2.714,2.7084,2.7017,2.7207,2.7299,2.7471,2.7396,2.7451,2.7392,2.7377,2.7333,2.7324,2.7369,2.7435,2.7562,2.7665,2.7831,2.7655,2.7572,2.7407,2.7357,2.7452,2.7547,2.7841,2.804,2.8459,2.8784,2.8822,2.8861,2.8833,2.8793,2.9105,2.9569,3.0209,3.0894,3.1597,3.2306,3.2963,3.3359,3.3574,3.3566,3.3093,3.2537,3.231,3.2165,3.2164,3.2169,3.2169,3.2241,3.2372,3.2646,3.3058,3.3506,3.3941,3.4773,3.5861,3.6755,3.7471,3.7871,3.8293,3.8327,3.8391,3.8448,3.8544,3.86,3.8678,3.8772,3.8805,2.5723,2.5723,2.5635,2.5635,2.5635,2.5635,2.5635,2.5645,2.5635,2.5635,2.5645,2.544,2.5235,2.5128,2.4932,2.4637,2.4332,2.4035,2.3628,2.3147,2.3059,2.2783,2.2473,2.2377,2.2659,2.2953,2.3231,2.3505,2.3933,2.3904,2.368,2.336,2.2909,2.2683,2.2683,2.2683,2.3014,2.3352,2.4119,2.4787,2.5238,2.5679,2.6017,2.6127,2.6554,2.6844,2.6961,2.7079,2.7422,2.7413,2.7552,2.7564,2.739,2.7318,2.7422,2.7399,2.7292,2.7292,2.7458,2.7496,2.7682,2.7914,2.8249,2.8301,2.8084,2.7935,2.7748,2.7696,2.7835,2.7668,2.7723,2.8074,2.8369,2.8556,2.8625,2.8768,2.8795,2.8881,2.933,2.9757,3.0385,3.11,3.1881,3.2604,3.3263,3.383,3.4118,3.4101,3.3736,3.3054,3.2701,3.2428,3.2374,3.2312,3.2169,3.2241,3.2372,3.2646,3.3058,3.3463,3.3912,3.4838,3.5958,3.7033,3.7995,3.819,3.8431,3.8602,3.865,3.8502,3.8574,3.8711,3.887,3.9095,3.9073,2.5732,2.5635,2.544,2.544,2.5342,2.5137,2.5137,2.5128,2.5128,2.5137,2.5333,2.5137,2.4833,2.4627,2.4332,2.4035,2.3529,2.3229,2.2728,2.235,2.2178,2.198,2.169,2.1834,2.2057,2.2269,2.2497,2.267,2.2982,2.2901,2.2788,2.2449,2.2116,2.2108,2.2116,2.2108,2.2222,2.2343,2.2901,2.3792,2.447,2.5017,2.545,2.556,2.5889,2.6227,2.6445,2.6772,2.6989,2.7196,2.7314,2.7356,2.7378,2.737,2.7372,2.7321,2.7324,2.7304,2.7431,2.7553,2.7743,2.7864,2.8096,2.8217,2.8246,2.828,2.8286,2.8266,2.8162,2.7847,2.78,2.8049,2.8285,2.8485,2.8553,2.8625,2.8779,2.9084,2.951,2.9999,3.066,3.1332,3.2117,3.2769,3.3479,3.394,3.4191,3.4254,3.4179,3.3738,3.3119,3.2858,3.2656,3.2516,3.2367,3.2241,3.2444,3.2717,3.3072,3.3449,3.3926,3.5523,3.7059,3.7792,3.8535,3.8755,3.903,3.9194,3.9145,3.8972,3.8995,3.9329,3.9654,3.9952,3.9643,2.5538,2.544,2.5137,2.4941,2.4932,2.4637,2.4529,2.4538,2.443,2.4332,2.443,2.443,2.4332,2.3926,2.3728,2.312,2.2728,2.2434,2.1968,2.1609,2.1346,2.1321,2.1202,2.1201,2.1413,2.1609,2.1858,2.1979,2.1995,2.1759,2.1645,2.1531,2.1417,2.1417,2.131,2.131,2.1539,2.166,2.1888,2.257,2.3472,2.4119,2.4676,2.4906,2.5348,2.5569,2.5898,2.6109,2.6336,2.6554,2.6772,2.7206,2.7286,2.7365,2.7387,2.7304,2.7314,2.7236,2.7353,2.7481,2.7687,2.7911,2.8347,2.8581,2.8725,2.8665,2.8613,2.8561,2.8504,2.8177,2.8396,2.867,2.8866,2.9052,2.887,2.8812,2.8921,2.9024,2.9474,2.992,3.0508,3.1199,3.1892,3.2525,3.3202,3.3784,3.4063,3.4314,3.4267,3.4232,3.3727,3.3342,3.3148,3.2907,3.2779,3.2573,3.2417,3.2704,3.3212,3.4108,3.5087,3.6753,3.8199,3.8777,3.9221,3.9521,3.9768,3.9926,4.0018,3.9944,3.9951,4.0024,4.039,4.0717,4.0624,2.5235,2.5137,2.4627,2.443,2.4332,2.4035,2.3935,2.3935,2.3628,2.3329,2.3129,2.3529,2.3438,2.3129,2.2837,2.2232,2.1725,2.1522,2.1107,2.0821,2.0522,2.0554,2.0575,2.0547,2.0834,2.095,2.1167,2.1181,2.1181,2.0952,2.0838,2.0608,2.0493,2.027,2.027,2.0385,2.0622,2.0974,2.1203,2.1432,2.2214,2.3103,2.368,2.4239,2.4684,2.5,2.5229,2.534,2.5569,2.5898,2.6227,2.6554,2.6881,2.6881,2.6989,2.6957,2.6905,2.6967,2.719,2.74,2.76,2.7993,2.8645,2.887,2.886,2.89,2.8755,2.8768,2.8604,2.8773,2.8894,2.9074,2.9284,2.9345,2.9203,2.9009,2.9034,2.9075,2.9527,2.9896,3.0341,3.1026,3.1637,3.2264,3.2957,3.3458,3.3894,3.4147,3.4288,3.4376,3.416,3.3874,3.3659,3.3423,3.324,3.3164,3.2983,3.3384,3.4012,3.5059,3.6276,3.805,3.9167,3.9535,3.9909,4.0244,4.049,4.0658,4.0739,4.0762,4.0631,4.0663,4.1238,4.1493,4.1626,2.4833,2.4637,2.4035,2.3827,2.3728,2.3338,2.3129,2.3129,2.2828,2.2434,2.2131,2.2021,2.2021,2.2021,2.192,2.1522,2.0814,2.064,2.0315,1.9923,2.0011,2.0032,2.0117,2.0153,2.0301,2.0479,2.05,2.05,2.05,2.0385,2.0378,2.0263,2.0385,2.027,2.0277,2.0277,2.027,2.0507,2.0507,2.0737,2.1189,2.2093,2.2788,2.3344,2.3784,2.4239,2.4573,2.4787,2.5119,2.534,2.567,2.5898,2.6008,2.6118,2.6227,2.6436,2.6389,2.6596,2.6873,2.7097,2.7283,2.7418,2.7833,2.8048,2.8145,2.8445,2.846,2.867,2.8679,2.9055,2.9229,2.9228,2.939,2.9368,2.9274,2.9203,2.9223,2.9452,2.9742,2.9914,3.0137,3.0714,3.1294,3.2001,3.2698,3.3288,3.381,3.4063,3.4314,3.4454,3.4498,3.4349,3.4126,3.3963,3.3801,3.3902,3.3908,3.4289,3.4745,3.5724,3.7178,3.9313,4.0253,4.0403,4.0688,4.1013,4.1233,4.1436,4.1374,4.135,4.1148,4.1231,4.1873,4.2295,4.2411]}]]